[[{"header":{"parameterUnit":"m.s-1","parameterCategory":1,"la1":30.6,"la2":29.2853,"lo1":-89.7004,"lo2":-87.6739,"dy":0.0162,"dx":0.0183,"nx":112,"ny":82,"refTime":"2023-09-29T18:00:00:Z","depth":0,"parameterNumber":2,"parameterNumberName":"U-component_of_WINDS"},"data":[0.0,0.0,0.0,0.0,0.0,0.0,0.0,0.0,0.0,0.0,0.0,0.0,0.0,0.0,0.0,0.0,0.0,0.0,0.0,0.0,0.0,0.0,0.0,0.0,0.0,0.0,0.0,0.0,0.0,0.0,0.0,0.0,0.0,0.0,0.0,0.0,0.0,0.0,0.0,0.0,0.0,0.0,0.0,0.0,0.0,0.0,0.0,0.0,0.0,0.0,0.0,0.0,0.0,0.0,0.0,0.0,0.0,0.0,0.0,0.0,0.0,0.0,0.0,0.0,0.0,0.0,0.0,0.0,0.0,0.0,0.0,0.0,0.0,0.0,0.0,0.0,0.0,0.0,0.0,0.0,0.0,0.0,0.0,0.0,0.0,0.0,0.0,0.0,0.0,0.0,-0.9154,-0.943,-0.8795,-0.7649,-0.5892,-0.5583,-0.4753,-0.3042,0.0,0.0,0.0,0.0,0.0,0.0,0.0,0.0,0.0,0.0,0.0,0.0,0.0,0.0,0.0,0.0,0.0,0.0,0.0,0.0,0.0,0.0,0.0,0.0,0.0,0.0,0.0,0.0,0.0,0.0,0.0,0.0,0.0,0.0,0.0,0.0,0.0,0.0,0.0,0.0,0.0,0.0,0.0,0.0,0.0,0.0,0.0,0.0,0.0,0.0,0.0,0.0,0.0,0.0,0.0,0.0,0.0,0.0,0.0,0.0,0.0,0.0,0.0,0.0,0.0,0.0,0.0,0.0,0.0,0.0,0.0,0.0,0.0,0.0,0.0,0.0,0.0,0.0,0.0,0.0,0.0,0.0,0.0,0.0,0.0,0.0,0.0,0.0,0.0,0.0,0.0,0.0,0.0,0.0,0.0,0.0,0.0,0.0,0.0,0.0,0.0,0.0,0.0,0.0,-0.9812,-0.9742,-0.9857,-0.921,-0.7429,-0.725,-0.6276,-0.4102,0.0,0.0,0.0,0.0,0.0,0.0,0.0,0.0,0.0,0.0,0.0,0.0,0.0,0.0,0.0,0.0,0.0,0.0,0.0,0.0,0.0,0.0,0.0,0.0,0.0,0.0,0.0,0.0,0.0,0.0,0.0,0.0,0.0,0.0,0.0,0.0,0.0,0.0,0.0,0.0,0.0,0.0,0.0,0.0,0.0,0.0,0.0,0.0,0.0,0.0,0.0,0.0,0.0,0.0,0.0,0.0,0.0,0.0,0.0,0.0,0.0,0.0,0.0,0.0,0.0,0.0,0.0,0.0,0.0,0.0,0.0,0.0,0.0,0.0,0.0,0.0,0.0,0.0,0.0,0.0,0.0,0.0,0.0,0.0,0.0,0.0,0.0,0.0,0.0,0.0,0.0,0.0,0.0,0.0,0.0,0.0,0.0,0.0,0.0,0.0,0.0,0.0,0.0,-1.0358,-1.0284,-0.9744,-0.9903,-0.9684,-0.8864,-0.8779,-0.789,-0.5789,-0.5115,0.0,0.0,0.0,0.0,0.0,0.0,0.0,0.0,0.0,0.0,0.0,0.0,0.0,0.0,0.0,0.0,0.0,0.0,0.0,0.0,0.0,0.0,0.0,0.0,0.0,0.0,0.0,0.0,0.0,0.0,0.0,0.0,0.0,0.0,0.0,0.0,0.0,0.0,0.0,0.0,0.0,0.0,0.0,0.0,0.0,0.0,0.0,0.0,0.0,0.0,0.0,0.0,0.0,0.0,0.0,0.0,0.0,0.0,0.0,0.0,0.0,0.0,0.0,0.0,0.0,0.0,0.0,0.0,0.0,0.0,0.0,0.0,0.0,0.0,0.0,0.0,0.0,0.0,0.0,0.0,0.0,0.0,0.0,0.0,0.0,0.0,0.0,0.0,0.0,0.0,0.0,0.0,0.0,0.0,0.0,0.0,0.0,0.0,0.0,0.0,0.0,0.0,-1.0876,-1.0481,-0.9525,-0.9521,-0.9582,-0.9582,-0.9582,-0.8916,-0.7323,-0.6875,0.0,0.0,0.0,0.0,0.0,0.0,0.0,0.0,0.0,0.0,0.0,0.0,0.0,0.0,0.0,0.0,0.0,0.0,0.0,0.0,0.0,0.0,0.0,0.0,0.0,0.0,0.0,0.0,0.0,0.0,0.0,0.0,0.0,0.0,0.0,0.0,0.0,0.0,0.0,0.0,0.0,0.0,0.0,0.0,0.0,0.0,0.0,0.0,0.0,0.0,0.0,0.0,0.0,0.0,0.0,0.0,0.0,0.0,0.0,0.0,0.0,0.0,0.0,0.0,0.0,0.0,0.0,0.0,0.0,0.0,0.0,0.0,0.0,0.0,0.0,0.0,0.0,0.0,0.0,0.0,0.0,0.0,0.0,0.0,0.0,0.0,0.0,0.0,0.0,0.0,0.0,0.0,0.0,0.0,0.0,0.0,0.0,0.0,0.0,0.0,0.0,0.0,-1.1017,-1.0266,-0.9078,-0.8967,-0.8973,-0.8973,-0.8973,-0.8743,-0.8227,-0.7141,0.0,0.0,0.0,0.0,0.0,0.0,0.0,0.0,0.0,0.0,0.0,0.0,0.0,0.0,0.0,0.0,0.0,0.0,0.0,0.0,0.0,0.0,0.0,0.0,0.0,0.0,0.0,0.0,0.0,0.0,0.0,0.0,0.0,0.0,0.0,0.0,0.0,0.0,0.0,0.0,0.0,0.0,0.0,0.0,0.0,0.0,0.0,0.0,0.0,0.0,0.0,0.0,0.0,0.0,0.0,0.0,0.0,0.0,0.0,0.0,0.0,0.0,0.0,0.0,0.0,0.0,0.0,0.0,0.0,0.0,0.0,0.0,0.0,0.0,0.0,0.0,0.0,0.0,0.0,0.0,0.0,0.0,0.0,0.0,0.0,0.0,0.0,0.0,0.0,0.0,0.0,0.0,0.0,0.0,0.0,0.0,0.0,0.0,0.0,0.0,0.0,0.0,-1.1521,-1.0863,-0.8875,-0.8655,-0.8655,-0.8655,-0.8716,-0.8648,-0.8321,0.0,0.0,0.0,0.0,0.0,0.0,0.0,0.0,0.0,0.0,0.0,0.0,0.0,0.0,0.0,0.0,0.0,0.0,0.0,0.0,0.0,0.0,0.0,0.0,0.0,0.0,0.0,0.0,0.0,0.0,0.0,0.0,0.0,0.0,0.0,0.0,0.0,0.0,0.0,0.0,0.0,0.0,0.0,0.0,0.0,0.0,0.0,0.0,0.0,0.0,0.0,0.0,0.0,0.0,0.0,0.0,0.0,0.0,0.0,0.0,0.0,0.0,0.0,0.0,0.0,0.0,0.0,0.0,0.0,0.0,0.0,0.0,0.0,0.0,0.0,0.0,0.0,0.0,0.0,0.0,0.0,0.0,0.0,0.0,0.0,0.0,0.0,0.0,0.0,0.0,0.0,0.0,0.0,0.0,0.0,0.0,0.0,0.0,0.0,0.0,0.0,0.0,-1.1508,-1.138,-1.0674,-0.8561,-0.8343,-0.8343,-0.8343,-0.8438,-0.8411,-0.8208,0.0,0.0,0.0,0.0,0.0,0.0,0.0,0.0,0.0,0.0,0.0,0.0,0.0,0.0,0.0,0.0,0.0,0.0,0.0,0.0,0.0,0.0,0.0,0.0,0.0,0.0,0.0,0.0,0.0,0.0,0.0,0.0,0.0,0.0,0.0,0.0,0.0,0.0,0.0,0.0,0.0,0.0,0.0,0.0,0.0,0.0,0.0,0.0,0.0,0.0,0.0,0.0,0.0,0.0,0.0,0.0,0.0,0.0,0.0,0.0,0.0,0.0,0.0,0.0,0.0,0.0,0.0,0.0,0.0,0.0,0.0,0.0,0.0,0.0,0.0,0.0,0.0,0.0,0.0,0.0,0.0,0.0,0.0,0.0,0.0,0.0,0.0,0.0,0.0,0.0,0.0,0.0,0.0,0.0,0.0,0.0,0.0,0.0,0.0,0.0,0.0,0.0,-1.1296,-1.0499,-0.9534,-0.8187,-0.8038,-0.8013,-0.8013,-0.8013,-0.7988,0.0,0.0,0.0,0.0,0.0,0.0,0.0,0.0,0.0,0.0,0.0,0.0,0.0,0.0,0.0,0.0,0.0,0.0,0.0,0.0,0.0,0.0,0.0,0.0,0.0,0.0,0.0,0.0,0.0,0.0,0.0,0.0,0.0,0.0,0.0,0.0,0.0,0.0,0.0,0.0,0.0,0.0,0.0,0.0,0.0,0.0,0.0,0.0,0.0,0.0,0.0,0.0,0.0,0.0,0.0,0.0,0.0,0.0,0.0,0.0,0.0,0.0,0.0,0.0,0.0,0.0,0.0,0.0,0.0,0.0,0.0,0.0,0.0,0.0,0.0,0.0,0.0,0.0,0.0,0.0,0.0,0.0,0.0,0.0,0.0,0.0,0.0,0.0,0.0,0.0,0.0,0.0,0.0,0.0,0.0,0.0,0.0,0.0,0.0,0.0,0.0,0.0,0.0,-1.2598,-1.2614,-1.2231,-1.0901,-0.9953,-0.941,-0.941,-0.8552,-0.7988,-0.7988,0.0,0.0,0.0,0.0,0.0,0.0,0.0,0.0,0.0,0.0,0.0,0.0,0.0,0.0,0.0,0.0,0.0,0.0,0.0,0.0,0.0,0.0,0.0,0.0,0.0,0.0,0.0,0.0,0.0,0.0,0.0,0.0,0.0,0.0,0.0,0.0,0.0,0.0,0.0,0.0,0.0,0.0,0.0,0.0,0.0,0.0,0.0,0.0,0.0,0.0,0.0,0.0,0.0,0.0,0.0,0.0,0.0,0.0,0.0,0.0,0.0,0.0,0.0,0.0,0.0,0.0,0.0,0.0,0.0,0.0,0.0,0.0,0.0,0.0,0.0,0.0,0.0,0.0,0.0,0.0,0.0,0.0,0.0,0.0,0.0,0.0,0.0,0.0,0.0,0.0,0.0,0.0,0.0,0.0,0.0,0.0,0.0,0.0,0.0,0.0,0.0,0.0,-1.3109,-1.3062,-1.2788,-1.1999,-1.1219,-1.0558,-1.0051,-0.9262,-0.8577,-0.8038,0.0,0.0,0.0,0.0,0.0,0.0,0.0,0.0,0.0,0.0,0.0,0.0,0.0,0.0,0.0,0.0,0.0,0.0,0.0,0.0,0.0,0.0,0.0,0.0,0.0,0.0,0.0,0.0,0.0,0.0,0.0,0.0,0.0,0.0,0.0,0.0,0.0,0.0,0.0,0.0,0.0,0.0,0.0,0.0,0.0,0.0,0.0,0.0,0.0,0.0,0.0,0.0,0.0,0.0,0.0,0.0,0.0,0.0,0.0,0.0,0.0,0.0,0.0,0.0,0.0,0.0,0.0,0.0,0.0,0.0,0.0,0.0,0.0,0.0,0.0,0.0,0.0,0.0,0.0,0.0,0.0,0.0,0.0,0.0,0.0,0.0,0.0,0.0,0.0,0.0,0.0,0.0,0.0,0.0,0.0,0.0,0.0,0.0,0.0,0.0,0.0,0.0,-1.3212,-1.2649,-1.2266,-1.2266,-1.2169,-1.1585,-1.0288,-1.0067,-0.9435,-0.8088,0.0,0.0,0.0,0.0,0.0,0.0,0.0,0.0,0.0,0.0,0.0,0.0,0.0,0.0,0.0,0.0,0.0,0.0,0.0,0.0,0.0,0.0,0.0,0.0,0.0,0.0,0.0,0.0,0.0,0.0,0.0,0.0,0.0,0.0,0.0,0.0,0.0,0.0,0.0,0.0,0.0,0.0,0.0,0.0,0.0,0.0,0.0,0.0,0.0,0.0,0.0,0.0,0.0,0.0,0.0,0.0,0.0,0.0,0.0,0.0,-1.9506,-1.8796,0.0,0.0,0.0,0.0,0.0,0.0,0.0,0.0,0.0,0.0,0.0,0.0,0.0,0.0,0.0,0.0,0.0,0.0,0.0,0.0,0.0,0.0,0.0,0.0,0.0,0.0,0.0,0.0,0.0,0.0,0.0,0.0,0.0,0.0,0.0,0.0,0.0,0.0,0.0,0.0,-1.4868,-1.4935,-1.4973,-1.4973,-1.4076,-1.2933,-1.1609,-1.0583,-0.9435,-0.8088,-0.7988,0.0,0.0,0.0,0.0,0.0,0.0,0.0,0.0,0.0,0.0,0.0,0.0,0.0,0.0,0.0,0.0,0.0,0.0,0.0,0.0,0.0,0.0,0.0,0.0,0.0,0.0,0.0,0.0,0.0,0.0,0.0,0.0,0.0,0.0,0.0,0.0,0.0,0.0,0.0,0.0,0.0,0.0,0.0,0.0,0.0,0.0,0.0,0.0,0.0,0.0,0.0,0.0,0.0,0.0,0.0,0.0,0.0,0.0,0.0,-2.1256,-2.0521,0.0,0.0,0.0,0.0,0.0,0.0,0.0,0.0,0.0,0.0,0.0,0.0,0.0,0.0,0.0,0.0,0.0,0.0,0.0,0.0,0.0,0.0,0.0,0.0,0.0,0.0,0.0,0.0,0.0,0.0,0.0,0.0,0.0,0.0,0.0,0.0,0.0,0.0,0.0,0.0,-1.5378,-1.5091,-1.4902,-1.4902,-1.3716,-1.2401,-1.1097,-1.0386,-0.9435,-0.8088,-0.7988,0.0,0.0,0.0,0.0,0.0,0.0,0.0,0.0,0.0,0.0,0.0,0.0,0.0,0.0,0.0,0.0,0.0,0.0,0.0,0.0,0.0,0.0,0.0,0.0,0.0,0.0,0.0,0.0,0.0,0.0,0.0,0.0,0.0,0.0,0.0,0.0,0.0,0.0,0.0,0.0,0.0,0.0,0.0,0.0,0.0,0.0,0.0,0.0,0.0,0.0,0.0,0.0,0.0,-2.3768,-2.4088,-2.4258,-2.4022,-2.4075,-2.4298,-2.3514,-2.2792,-2.2117,-2.1328,0.0,0.0,0.0,0.0,0.0,0.0,0.0,0.0,0.0,0.0,0.0,0.0,0.0,0.0,0.0,0.0,0.0,0.0,0.0,0.0,0.0,0.0,-1.0518,-0.9559,-1.0236,-1.1224,-1.1791,0.0,0.0,0.0,0.0,0.0,0.0,0.0,0.0,0.0,0.0,0.0,-1.4818,-1.4064,-1.356,-1.356,-1.2546,-1.139,-1.0116,-1.0002,-0.9435,-0.8088,-0.7988,-0.7988,0.0,0.0,0.0,0.0,0.0,0.0,0.0,0.0,0.0,0.0,0.0,0.0,0.0,0.0,0.0,0.0,0.0,0.0,0.0,0.0,0.0,0.0,0.0,0.0,0.0,0.0,0.0,0.0,0.0,0.0,0.0,0.0,-1.9983,-2.0378,0.0,0.0,0.0,0.0,0.0,0.0,0.0,0.0,0.0,0.0,0.0,0.0,0.0,-2.2465,-2.2998,-2.4372,-2.4997,-2.4847,-2.6158,-2.6533,-2.6052,-2.6266,-2.6347,-2.6413,-2.6253,0.0,-2.2746,-2.2338,0.0,0.0,0.0,0.0,0.0,0.0,0.0,0.0,0.0,0.0,0.0,0.0,0.0,0.0,0.0,0.0,0.0,0.0,0.0,0.0,0.0,0.0,-1.0087,-0.9924,-1.0036,-1.0137,-1.0002,-1.1353,-1.2588,-1.2537,-1.2228,-1.2349,0.0,0.0,0.0,0.0,0.0,0.0,-1.2483,-1.2245,-1.2159,-1.2159,-1.2023,-1.139,-1.0116,-1.0002,-0.9435,-0.8088,-0.7988,-0.7988,-0.7988,-0.7988,0.0,0.0,0.0,0.0,0.0,0.0,0.0,0.0,0.0,0.0,0.0,0.0,0.0,0.0,0.0,0.0,0.0,0.0,0.0,0.0,0.0,0.0,0.0,0.0,0.0,0.0,0.0,0.0,0.0,-1.9663,-2.0588,-2.0227,-2.0388,-2.0281,0.0,0.0,0.0,0.0,0.0,0.0,0.0,0.0,0.0,-2.3412,-2.3754,-2.4195,-2.4796,-2.5758,-2.6266,-2.6359,-2.7121,-2.7496,-2.7416,-2.7335,-2.7321,-2.7321,-2.7321,-2.5725,-2.3191,-2.3507,-2.3038,-2.1972,0.0,0.0,0.0,0.0,-1.6265,-1.5992,-1.466,-1.3896,-1.3495,-1.3379,0.0,0.0,0.0,0.0,0.0,0.0,0.0,-1.1162,-1.149,-1.08,-1.0062,-1.0224,-1.0265,-1.0243,-1.0032,-1.0554,-1.1121,-1.138,-1.1269,-1.1484,-1.2544,-1.2541,0.0,0.0,0.0,-1.2406,-1.1954,-1.1292,-1.0828,-1.0828,-1.0165,-0.9484,-0.8924,-0.8874,-0.8627,-0.8038,-0.7988,-0.7988,-0.7988,-0.7988,-0.7988,0.0,0.0,0.0,0.0,0.0,0.0,0.0,0.0,0.0,0.0,0.0,0.0,0.0,0.0,0.0,0.0,0.0,0.0,0.0,0.0,0.0,0.0,0.0,0.0,0.0,0.0,0.0,0.0,-2.0521,-2.1344,-2.0561,-2.1443,-2.163,0.0,0.0,0.0,0.0,0.0,0.0,-2.3273,-2.3607,-2.4182,-2.5013,-2.5371,-2.5812,-2.6439,-2.6907,-2.7268,-2.7536,-2.775,-2.763,-2.7308,-2.7058,-2.6607,-2.605,-2.605,-2.477,-2.2742,-2.3776,-2.3312,-2.1819,-1.9415,-1.8427,-1.8136,-1.6466,-1.5643,-1.5199,-1.4011,-1.3322,-1.293,-1.265,-1.2141,-1.1743,-1.2407,0.0,0.0,0.0,0.0,-1.0922,-1.1362,-1.0783,-1.0143,-1.0432,-1.0466,-1.0399,-1.0249,-1.0012,-0.9916,-1.0264,-1.0266,-1.0576,-1.1573,-1.1602,0.0,-1.151,-1.1496,-1.1344,-1.1033,-1.0144,-0.9541,-0.9492,-0.8638,-0.8074,-0.8074,-0.8108,-0.8128,-0.8128,-0.8128,-0.8115,-0.8074,-0.8074,-0.8054,-0.7988,0.0,0.0,0.0,0.0,0.0,0.0,0.0,0.0,0.0,0.0,0.0,0.0,0.0,0.0,0.0,0.0,0.0,0.0,0.0,0.0,0.0,0.0,0.0,0.0,0.0,0.0,0.0,0.0,0.0,-2.2331,-2.3821,0.0,0.0,0.0,0.0,-2.3132,-2.3474,-2.3915,-2.4479,-2.4836,-2.5398,-2.6266,-2.6587,-2.7014,-2.7602,-2.7965,-2.8125,-2.8138,-2.8152,-2.6999,-2.4861,-2.485,-2.363,-2.1546,-2.1546,-2.1246,-2.0879,-2.2342,-2.1256,-1.8545,-1.7517,-1.7216,-1.7114,-1.5071,-1.438,-1.4219,-1.2496,-1.1734,-1.1508,-1.1638,-1.1173,-1.0541,-1.0263,-0.999,0.0,0.0,-1.0012,-1.0135,-1.0474,-1.0429,-1.0304,-1.046,-1.0392,-1.0249,-1.0062,-0.9907,-0.9686,-0.9332,-0.9133,-0.9316,-1.0315,0.0,-1.0332,-1.0466,-1.0365,-0.9851,-0.8638,-0.8434,-0.8302,-0.8126,-0.8224,-0.8281,-0.8281,-0.841,-0.8485,-0.8485,-0.8485,-0.8423,-0.8287,-0.8281,-0.8187,-0.7995,-0.7988,0.0,0.0,0.0,0.0,0.0,0.0,0.0,0.0,0.0,0.0,0.0,0.0,0.0,0.0,0.0,0.0,0.0,0.0,0.0,0.0,0.0,0.0,0.0,0.0,0.0,0.0,0.0,0.0,-2.3367,-2.4727,0.0,-2.3848,-2.3995,-2.4212,-2.4436,-2.5077,-2.5718,-2.6293,-2.66,-2.7001,-2.755,-2.7657,-2.7083,-2.5791,-2.5889,-2.5203,-2.3684,-2.3684,-2.3255,-2.2439,-2.2439,-2.1998,-2.1221,-2.1221,-2.0191,-1.8645,-1.9217,-1.9204,-1.8738,-1.6908,-1.6126,-1.5793,-1.3808,-1.3028,-1.283,-1.2312,-1.1932,-1.1584,-1.1259,-1.084,-1.0453,-1.0256,-1.0127,-1.0073,-1.0215,-1.029,-1.0385,-1.0588,-1.0527,-1.0426,-1.048,-1.0385,-1.0236,-1.0049,-0.9974,-0.9832,-0.9517,-0.9142,-0.8982,-0.927,-0.9201,-0.9113,-0.9171,-0.9127,-0.8942,-0.8482,-0.843,-0.841,-0.833,-0.8377,-0.843,-0.843,-0.8478,-0.8505,-0.8505,-0.8423,-0.8349,-0.8301,-0.8174,-0.8074,-0.7988,-0.7988,-0.7988,0.0,0.0,0.0,0.0,0.0,0.0,0.0,0.0,0.0,0.0,0.0,0.0,0.0,0.0,0.0,0.0,0.0,0.0,0.0,0.0,0.0,0.0,0.0,0.0,0.0,-2.3567,-2.4756,-2.4298,-2.5717,-2.6305,-2.5197,-2.5531,-2.5945,-2.6253,-2.6814,-2.7308,-2.7737,-2.7896,-2.7706,-2.7054,-2.7025,-2.5896,-2.3555,-2.3512,-2.274,-2.1221,-2.1221,-2.0789,-2.0053,-2.0053,-1.9619,-1.8889,-1.8889,-1.7922,-1.6337,-1.6274,-1.6626,-1.7106,-1.556,-1.4829,-1.4462,-1.3138,-1.2501,-1.2284,-1.2291,-1.2088,-1.1712,-1.1225,-1.0928,-1.0716,-1.0487,-1.0426,-1.0446,-1.0541,-1.0568,-1.0595,-1.0697,-1.0609,-1.0493,-1.0493,-1.0385,-1.0249,-1.0116,-1.0055,-0.9947,-0.9697,-0.9332,-0.9042,-0.8886,-0.8696,-0.8594,-0.8723,-0.8669,-0.8635,-0.8635,-0.8635,-0.8594,-0.8519,-0.8526,-0.856,-0.856,-0.8608,-0.8615,-0.856,-0.8472,-0.8403,-0.8301,-0.8174,-0.8067,-0.7988,-0.7988,-0.7988,-0.7988,0.0,0.0,0.0,0.0,0.0,0.0,0.0,0.0,0.0,0.0,0.0,0.0,0.0,0.0,0.0,0.0,0.0,0.0,0.0,0.0,0.0,0.0,0.0,-2.2242,-2.4266,-2.5235,-2.5008,-2.6745,-2.7621,-2.6731,-2.7461,-2.8127,-2.839,-2.8403,-2.8403,-2.8403,-2.8403,-2.7217,-2.4671,-2.4629,-2.3492,-2.1102,-2.1102,-2.1058,-2.0962,-2.0962,-1.9836,-1.7676,-1.7676,-1.6466,-1.4299,-1.4299,-1.4211,-1.4061,-1.3912,-1.3632,-1.341,-1.3397,-1.3295,-1.3186,-1.3043,-1.2854,-1.2632,-1.2379,-1.2081,-1.1739,-1.1477,-1.1315,-1.1138,-1.0812,-1.0691,-1.0691,-1.0724,-1.0691,-1.0684,-1.0684,-1.0609,-1.0493,-1.0493,-1.0385,-1.0315,-1.0315,-1.0161,-0.9981,-0.9832,-0.9598,-0.9383,-0.9248,-0.8947,-0.8832,-0.9145,-0.9042,0.0,-0.8926,-0.8926,-0.8811,-0.8566,-0.8642,-0.873,-0.8723,-0.8831,-0.8852,-0.8723,-0.8703,-0.8574,-0.8308,-0.8294,-0.8194,-0.8027,-0.7977,-0.7952,-0.7952,0.0,0.0,0.0,0.0,0.0,0.0,0.0,0.0,0.0,0.0,0.0,0.0,0.0,0.0,0.0,0.0,0.0,0.0,0.0,0.0,0.0,-1.7599,-1.8459,-1.9735,-2.0863,-2.1733,-2.2067,-2.2934,-2.3414,-2.326,-2.3403,-2.3567,-2.3718,-2.3665,-2.3611,-2.3611,-2.3611,-2.327,-2.2545,-2.2545,-2.1361,-1.8884,-1.8884,-1.7987,-1.621,-1.621,-1.5858,-1.5256,-1.5256,-1.4911,-1.4299,-1.4299,-1.4211,-1.4112,-1.4027,-1.3831,-1.3546,-1.3322,-1.3078,-1.2847,-1.2807,-1.263,-1.2366,-1.206,-1.18,-1.159,-1.1321,-1.1124,-1.0955,-1.0874,-1.0772,-1.0711,-1.0819,-1.0772,-1.0684,-1.0684,-1.0609,-1.0493,-1.0493,-1.0385,-1.0315,-1.0315,-1.0249,-1.0202,-1.0161,-0.9998,-0.9717,-0.941,-0.9281,-0.9254,-0.9335,-0.9286,0.0,-0.9259,-0.9259,-0.9225,-0.9172,-0.9199,-0.9179,-0.907,-0.9097,-0.8988,-0.8723,-0.8608,-0.8492,-0.8301,-0.816,-0.8133,-0.8208,-0.7267,-0.6765,0.0,0.0,0.0,0.0,0.0,0.0,0.0,0.0,0.0,0.0,0.0,0.0,0.0,0.0,0.0,0.0,0.0,0.0,0.0,0.0,0.0,0.0,-1.6363,-1.6627,-1.701,-1.9034,-2.0729,-2.1399,-2.1645,-2.1886,-2.2106,-2.2006,-2.2031,-2.2171,-2.2106,-2.2026,-2.1936,-2.1936,-2.1484,-2.0497,-2.0359,-1.9185,-1.6762,-1.6615,-1.5794,-1.4387,-1.4326,-1.4299,-1.4299,-1.4299,-1.4299,-1.4299,-1.4299,-1.4251,-1.4163,-1.4139,-1.3973,-1.3777,0.0,0.0,0.0,0.0,-1.2542,-1.2264,-1.2088,-1.1884,-1.1631,-1.143,-1.1253,-1.109,-1.1056,-1.0975,-1.0921,-1.1016,-1.0901,-1.0779,-1.0779,-1.0671,-1.0588,-1.0588,-1.0527,-1.0466,-1.0466,-1.0412,-1.0371,-1.0371,-1.0249,0.0,-0.9802,-0.9598,-0.9496,-0.9557,-0.9517,-0.9476,-0.9476,-0.9476,-0.9449,-0.9417,-0.941,-0.9376,-0.9288,-0.922,0.0,0.0,0.0,-0.8513,-0.8389,-0.8275,0.0,0.0,0.0,-0.5972,-0.5332,-0.4482,0.0,0.0,-0.4266,-0.3868,0.0,0.0,0.0,0.0,0.0,0.0,0.0,0.0,0.0,0.0,0.0,0.0,0.0,0.0,0.0,0.0,-1.4532,-1.4099,-1.4667,-1.7985,-2.0621,-2.1261,-2.1267,-2.1327,-2.1723,-2.1621,-2.1621,-2.1845,-2.177,-2.1658,-2.1565,-2.1565,0.0,0.0,0.0,-1.7119,-1.5044,-1.4726,-1.457,-1.4536,-1.4394,-1.4326,-1.4326,-1.4306,-1.4299,-1.4299,-1.4299,-1.4299,-1.4292,-1.4156,-1.4132,-1.4071,-1.3573,-1.3308,-1.318,-1.284,-1.2562,-1.2332,-1.2305,0.0,0.0,-1.1638,-1.1518,-1.1369,-1.1261,-1.1213,-1.12,-1.12,-1.107,-1.0934,-1.0921,-1.0826,-1.0765,-1.0718,-1.0711,-1.0711,-1.0691,-1.0616,-1.0521,-1.0521,-1.0419,-1.0363,-1.0363,-0.9971,-0.9727,-0.9825,-0.9768,-0.968,-0.9659,-0.9659,-0.9598,-0.9449,0.0,0.0,-0.9437,-0.9315,-0.9165,-0.8946,-0.8791,-0.8595,-0.8296,-0.8282,-0.7593,-0.6095,-0.5904,-0.5158,-0.3789,-0.3737,-0.3061,-0.1812,-0.3165,-0.3067,0.0,0.0,0.0,0.0,0.0,0.0,0.0,0.0,0.0,0.0,0.0,0.0,0.0,0.0,0.0,-1.3993,-1.4208,-1.4647,-1.5045,-1.5889,-1.6523,-1.6659,-1.6792,-1.6892,-1.7143,-1.6999,-1.6976,-1.7199,-1.7047,-1.6925,-1.6925,-1.6925,-1.6685,-1.6213,-1.6184,-1.5812,-1.5194,-1.5079,-1.493,-1.4647,-1.4543,0.0,-1.4468,-1.4353,-1.4299,-1.4299,-1.4299,-1.4299,-1.4299,-1.4272,-1.4183,-1.4071,-1.3573,-1.3308,-1.318,-1.284,-1.2652,-1.2571,-1.2372,-1.2207,-1.1972,-1.1708,-1.1518,-1.1389,-1.1355,-1.1295,0.0,-1.12,-1.1179,-1.1097,-1.0948,-1.1016,-1.105,-1.0901,-1.0874,-1.084,-1.0711,-1.0664,-1.0677,-1.0677,-1.0656,-1.0636,-1.0636,-1.0365,-1.0161,-1.0188,-1.0168,-1.0107,-0.9947,-0.9934,-0.9873,-0.9724,-0.9734,-0.9686,-0.9578,-0.9537,-0.9401,-0.9158,-0.8974,-0.8268,-0.6936,-0.6993,-0.6284,-0.4627,-0.3558,-0.2836,-0.2547,-0.1367,-0.0672,-0.041,-0.1866,-0.1779,0.0,0.0,0.0,0.0,0.0,0.0,0.0,0.0,0.0,0.0,0.0,-1.4354,-1.3956,0.0,-1.4597,-1.4336,-1.4733,-1.5181,-1.5479,-1.5636,-1.5608,-1.5533,-1.5655,-1.5744,-1.5744,-1.5811,-1.5832,-1.575,-1.5818,-1.5859,-1.5859,-1.5859,-1.5927,-1.6026,-1.594,-1.5784,-1.5635,-1.5486,-1.5262,-1.4957,-1.4814,-1.4699,-1.4618,-1.4475,-1.4407,-1.4401,-1.4333,-1.4299,-1.4299,-1.4299,-1.4211,-1.4091,-1.3824,-1.3553,-1.3261,-1.3037,-1.2908,-1.2813,-1.2589,-1.2413,-1.2244,-1.2026,-1.185,-1.1714,-1.1633,-1.1558,-1.1484,-1.1409,-1.1335,-1.1295,-1.1192,-1.1165,-1.1179,-1.107,-1.0968,-1.0894,-1.0819,-1.0738,-1.0684,-1.0684,-1.0684,-1.0684,-1.0684,-1.0602,-1.0473,-1.0399,-1.0324,-1.0249,-1.0175,-1.0168,-1.0134,-1.0059,-1.0053,-0.9992,-0.9812,-0.9663,-0.951,-0.9308,-0.8423,-0.755,-0.6721,-0.5992,-0.4836,-0.3219,-0.2535,-0.1842,-0.1101,-0.0357,0.0,-0.003,-0.0764,-0.0704,0.0,0.0,0.0,0.0,0.0,0.0,0.0,-1.159,-1.187,-1.239,-1.2615,-1.2922,-1.366,-1.3944,-1.4346,-1.5106,-1.5377,-1.5594,-1.5908,-1.5976,-1.5906,-1.5769,-1.5886,-1.59,-1.5729,-1.6008,-1.6069,-1.5776,-1.6029,-1.6171,-1.6171,-1.6171,-1.6273,-1.6517,-1.6293,-1.6137,-1.6083,-1.5845,-1.5554,-1.5221,-1.5079,-1.493,-1.4735,-1.4624,-1.4536,-1.4502,-1.436,-1.4299,-1.4299,-1.4299,-1.4231,-1.4159,-1.4125,-1.3851,-1.3505,-1.3295,-1.3186,-1.3064,-1.284,-1.2657,-1.2481,-1.2366,-1.2247,-1.2077,-1.1911,-1.182,-1.1766,-1.1624,-1.1531,-1.143,-1.1396,-1.1356,-1.1281,-1.1247,-1.1118,-1.0988,-1.0928,-1.0819,-1.0725,-1.0724,-1.0684,-1.0684,-1.0684,-1.0684,-1.0644,-1.0555,-1.0439,-1.0351,-1.0324,-1.0356,-1.0342,-1.0315,-1.0315,-1.0229,-1.0076,-0.9819,-0.949,-0.9068,-0.776,-0.671,-0.6063,-0.4791,-0.3374,-0.1809,-0.1771,-0.118,0.0,0.0,0.0,0.0,0.0,0.0,-1.1512,-1.1434,-1.1655,-1.2257,-1.2204,-1.2268,0.0,-1.3234,-1.318,-1.3771,-1.3966,-1.4183,-1.4505,-1.4841,-1.5113,-1.535,-1.5622,-1.5915,-1.6085,-1.6171,-1.63,-1.6408,-1.6327,-1.6252,-1.6239,-1.6381,-1.6456,-1.6422,-1.6449,-1.6469,-1.6469,-1.6469,-1.649,-1.6517,-1.649,-1.6347,-1.6083,-1.6049,-1.5818,-1.5384,-1.5228,-1.5086,-1.4943,-1.4787,-1.4593,-1.4502,-1.436,-1.4299,-1.4299,-1.4299,-1.4292,-1.4265,-1.4166,-1.4084,-1.3989,-1.3526,-1.3363,-1.3308,-1.3071,-1.2745,-1.2501,-1.2481,-1.2329,-1.2098,-1.2077,-1.1938,-1.1766,-1.1624,-1.1606,-1.1565,-1.1423,-1.1477,-1.1531,-1.1396,-1.1355,-1.1267,-1.0968,-1.0901,-1.0846,-1.0711,-1.0684,-1.0684,-1.0684,-1.0684,-1.0684,-1.0664,-1.065,-1.0622,-1.0487,-1.0466,-1.0419,-1.0297,-1.0315,-1.0308,-1.0256,-1.0069,-0.9336,-0.7882,-0.75,-0.6046,-0.3121,-0.2815,-0.193,-0.0276,-0.0246,-0.0154,0.0,0.0,0.0,0.0,0.0,0.0,-1.1955,-1.1881,-1.1928,-1.2433,-1.2733,-1.3064,-1.3457,-1.3641,-1.3838,-1.4353,-1.4584,-1.4808,-1.5147,-1.5432,-1.5697,-1.5893,-1.611,-1.6266,-1.6327,-1.6395,-1.6422,-1.6402,-1.6446,-1.6479,-1.6442,-1.6513,-1.6567,-1.653,-1.6686,-1.6748,-1.6608,-1.6601,-1.6693,-1.6788,-1.67,-1.6551,-1.6341,-1.6334,-1.611,-1.5669,-1.5649,-1.55,-1.5221,-1.5065,-1.4821,-1.4509,-1.4448,-1.4373,-1.4299,-1.4299,-1.4299,-1.4153,-1.2666,-1.2132,-1.2221,-1.3154,-1.3532,-1.3492,-1.3227,-1.3037,-1.2874,-1.2839,-1.2623,-1.2433,-1.2345,-1.2216,-1.2047,-1.1773,-1.1705,-1.1671,-1.1558,-1.1572,-1.1606,-1.1538,-1.1457,-1.1355,-1.1233,-1.1036,-1.0589,-0.9502,-0.9224,-0.8806,-0.7802,-0.7603,-0.7622,-0.7617,-0.9391,-1.0664,-1.0629,-0.9689,-0.864,-0.7575,-0.7349,-0.7279,-0.7279,-0.7115,-0.6737,-0.6073,-0.5087,-0.3925,-0.2559,-0.1561,-0.0716,0.0,0.0,0.0,0.0,0.0,0.0,0.0,0.0,0.0,-1.2375,-1.2494,-1.2576,-1.2855,-1.3403,-1.3892,-1.3844,-1.4089,-1.4434,-1.4841,-1.5011,-1.5228,-1.5676,-1.5845,-1.6064,-1.632,-1.6456,-1.6537,-1.6527,-1.6493,-1.6497,-1.6435,-1.6533,-1.6608,-1.654,-1.6669,-1.6716,-1.6653,-1.6856,-1.6931,-1.677,-1.6763,-1.6863,-1.6978,-1.687,-1.6669,-1.6524,-1.6564,-1.6341,-1.5901,-1.5942,-1.5764,-1.5418,-1.4553,-1.3555,-1.256,-1.248,-1.2398,-1.2325,-1.2325,-1.2325,-1.2137,-1.0405,-0.9712,-0.9864,-1.124,-1.1767,-1.1716,-1.1488,-1.1388,-1.1335,-1.1253,-1.1083,-1.0909,-1.082,-1.0691,-1.0512,-1.0283,-1.017,-1.0112,-1.0027,-0.9998,-0.9986,-0.9987,-0.9941,-0.983,-0.9794,-0.9602,-0.904,-0.7737,-0.738,-0.6892,-0.5603,-0.5413,-0.5406,-0.5406,-0.7584,-0.9222,-0.9224,-0.8089,-0.6798,-0.5529,-0.5281,-0.5182,-0.5182,-0.5047,-0.4778,-0.4327,-0.3155,-0.2305,-0.184,-0.0635,0.0,0.0,0.0,0.0,0.0,0.0,0.0,0.0,0.0,0.0,-1.178,-1.2176,-1.2678,-1.3375,-1.3838,-1.4261,-1.484,-1.4983,-1.5031,-1.533,-1.5398,-1.5533,-1.5988,-1.6069,-1.6171,-1.6469,-1.6517,-1.6571,-1.6669,-1.656,-1.6571,-1.6669,-1.656,-1.6585,-1.6675,-1.6883,-1.6971,-1.6965,-1.6978,-1.6978,-1.6971,-1.6971,-1.6978,-1.6978,-1.6978,-1.6829,-1.6524,-1.6615,-1.6442,-1.5901,-1.6051,-1.592,-1.5525,-1.2782,-1.0086,-0.759,-0.7425,-0.7308,-0.7324,-0.7324,-0.7324,-0.7324,-0.7235,-0.7187,-0.718,-0.7142,-0.7108,-0.7095,-0.6933,-0.6815,-0.6697,-0.6702,-0.6588,-0.6472,-0.6474,-0.6358,-0.6177,-0.6173,-0.608,-0.5968,-0.5974,-0.5994,-0.5974,-0.5974,-0.5989,-0.5928,-0.582,-0.5763,-0.5715,-0.5539,-0.5494,-0.546,-0.5423,-0.539,-0.5413,-0.5409,-0.5499,-0.5557,-0.5566,-0.5511,-0.5462,-0.5396,-0.5396,-0.5392,-0.5392,-0.5225,-0.4428,-0.2857,-0.2592,-0.177,-0.0129,-0.0032,0.0,0.0,0.0,0.0,0.0,0.0,0.0,0.0,0.0,0.0,-1.2267,-1.2794,-1.3342,-1.3939,-1.4448,-1.4862,-1.5112,-1.5269,-1.5466,-1.5711,-1.5466,-1.5364,-1.5723,-1.5791,-1.5886,-1.6185,-1.6476,-1.6675,-1.6883,-1.6856,-1.6768,-1.6567,-1.6734,-1.6768,-1.656,-1.6689,-1.687,-1.6971,-1.7066,-1.708,-1.6985,-1.7073,-1.708,-1.6985,-1.6978,-1.5982,-1.3859,-1.3898,-1.2821,-1.0644,-1.0595,-1.0527,-1.0391,-0.9348,-0.8342,-0.7392,-0.7318,-0.7244,-0.7083,-0.7081,-0.7102,-0.6965,-0.5369,-0.4779,-0.4597,-0.2933,-0.2301,-0.2755,-0.5699,-0.6685,-0.6618,-0.6632,-0.6533,-0.6418,-0.6424,-0.631,-0.6154,-0.6054,-0.5969,-0.5894,-0.5825,-0.5805,-0.5799,-0.5809,-0.5806,-0.5786,-0.575,-0.566,-0.5239,-0.3987,-0.368,-0.3242,-0.204,-0.1802,-0.1834,-0.1809,-0.3847,-0.497,-0.3748,-0.36,-0.3155,-0.1948,-0.1814,-0.1814,-0.1814,-0.1739,-0.1501,-0.0935,-0.0864,-0.0594,-0.0033,0.0,0.0,0.0,0.0,0.0,0.0,0.0,0.0,0.0,0.0,0.0,-1.2882,-1.3451,-1.3919,-1.4475,-1.4943,-1.5289,-1.5398,-1.5574,-1.5723,-1.5771,-1.5459,-1.5228,-1.5371,-1.5398,-1.5479,-1.5723,-1.609,-1.608,-1.5337,-1.5175,-1.4765,-1.3693,-1.3677,-1.3727,-1.3559,-1.3672,-1.4174,-1.537,-1.5552,-1.514,-1.4007,-1.4061,-1.4072,-1.3949,-1.3943,-1.2985,-1.1039,-1.1075,-1.0072,-0.8126,-0.7928,-0.7358,-0.6433,-0.6372,-0.5741,-0.4772,-0.477,-0.4676,-0.4585,-0.4581,-0.4561,-0.4425,-0.2888,-0.2305,-0.2127,-0.0573,0.0,-0.0393,-0.3303,-0.4286,-0.4298,-0.4305,-0.4231,-0.4196,-0.4189,-0.4112,-0.4033,-0.3875,-0.3854,-0.3839,-0.3738,-0.3721,-0.3717,-0.3738,-0.3736,-0.3727,-0.3737,-0.3658,-0.3245,-0.2089,-0.1785,-0.1382,-0.0211,0.0,0.0,0.0,-0.1989,-0.3055,-0.1884,-0.1747,-0.1277,-0.0135,0.0,0.0,0.0,0.0,0.0,0.0,0.0,0.0,0.0,0.0,0.0,0.0,0.0,0.0,0.0,0.0,0.0,0.0,0.0,0.0,-1.3538,-1.3987,-1.4343,-1.5018,-1.5316,-1.5506,-1.584,-1.5901,-1.5811,-1.551,-1.5174,-1.4899,-1.4659,-1.4606,-1.4666,-1.4812,-1.5022,-1.4446,-1.2257,-1.1757,-1.0793,-0.8566,-0.8131,-0.8104,-0.8272,-0.8282,-0.9398,-1.2045,-1.2408,-1.1352,-0.866,-0.8516,-0.8519,-0.8494,-0.8494,-0.8348,-0.8117,-0.8078,-0.8022,-0.785,-0.7658,-0.6264,-0.3777,-0.3787,-0.2414,0.0,0.0,0.0,0.0,0.0,0.0,0.0,0.0,0.0,0.0,0.0,0.0,0.0,0.0,0.0,0.0,0.0,0.0,0.0,0.0,0.0,0.0,0.0,0.0,0.0,0.0,0.0,0.0,0.0,0.0,0.0,0.0,0.0,0.0,0.0,0.0,0.0,0.0,0.0,0.0,0.0,0.0,0.0,0.0,0.0,0.0,0.0,0.0,0.0,0.0,0.0,0.0,0.0,0.0,0.0,0.0,0.0,0.0,0.0,0.0,0.0,0.0,0.0,0.0,0.0,0.0,0.0,-1.3878,-1.4448,-1.497,-1.5276,-1.5547,-1.5806,-1.5888,-1.5901,-1.5332,-1.338,-1.2569,-1.1637,-0.9701,-0.9317,-0.9382,-0.9495,-0.9881,-0.9971,-0.9507,-0.9368,-0.9058,-0.8372,-0.8325,-0.8345,-0.8305,-0.8405,-0.7845,-0.6492,-0.8455,-0.9378,-0.855,-0.8614,-0.8593,-0.8523,-0.8516,-0.747,-0.5241,-0.322,-0.2159,-0.2101,-0.2063,-0.1677,-0.1005,-0.1038,-0.0633,0.0,0.0,0.0,0.0,0.0,0.0,0.0,0.0,0.0,0.0,0.0,0.0,0.0,0.0,0.0,0.0,0.0,0.0,0.0,0.0,0.0,0.0,0.0,0.0,0.0,0.0,0.0,0.0,0.0,0.0,0.0,0.0,0.0,0.0,0.0,0.0,0.0,0.0,0.0,0.0,0.0,0.0,0.0,0.0,0.0,0.0,0.0,0.0,0.0,0.0,0.0,0.0,0.0,0.0,0.0,0.0,0.0,0.0,0.0,0.0,0.0,0.0,0.0,0.0,0.0,0.0,0.0,-1.1038,-1.1496,-1.1894,-1.2009,-1.227,-1.2453,-1.2439,-1.2434,-1.1989,-1.0438,-0.9763,-0.8934,-0.7393,-0.7111,-0.7108,-0.7175,-0.7502,-0.7462,-0.6471,-0.6346,-0.5904,-0.4809,-0.4747,-0.4764,-0.4685,-0.4703,-0.4121,-0.2484,-0.5053,-0.6129,-0.4854,-0.4837,-0.4828,-0.4766,-0.4745,-0.3969,-0.2395,-0.0795,0.0,0.0,0.0,0.0,0.0,0.0,0.0,0.0,0.0,0.0,0.0,0.0,0.0,0.0,0.0,0.0,0.0,0.0,0.0,0.0,0.0,0.0,0.0,0.0,0.0,0.0,0.0,0.0,0.0,0.0,0.0,0.0,0.0,0.0,0.0,0.0,0.0,0.0,0.0,0.0,0.0,0.0,0.0,0.0,0.0,0.0,0.0,0.0,0.0,0.0,0.0,0.0,0.0,0.0,0.0,0.0,0.0,0.0,0.0,0.0,0.0,0.0,0.0,0.0,0.0,0.0,0.0,0.0,0.0,0.0,0.0,0.0,0.0,0.0,-0.7265,-0.7507,-0.7682,-0.7791,-0.7897,-0.8013,-0.8012,-0.797,-0.7798,-0.7246,-0.6889,-0.6508,-0.5904,-0.5792,-0.5825,-0.5792,-0.6011,-0.5467,-0.3419,-0.3134,-0.2328,-0.0274,0.0,0.0,0.0,0.0,0.0,0.0,-0.2281,-0.2595,-0.011,0.0,0.0,0.0,0.0,0.0,0.0,0.0,0.0,0.0,0.0,0.0,0.0,0.0,0.0,0.0,0.0,0.0,0.0,0.0,0.0,0.0,0.0,0.0,0.0,0.0,0.0,0.0,0.0,0.0,0.0,0.0,0.0,0.0,0.0,0.0,0.0,0.0,0.0,0.0,0.0,0.0,0.0,0.0,0.0,0.0,0.0,0.0,0.0,0.0,0.0,0.0,0.0,0.0,0.0,0.0,0.0,0.0,0.0,0.0,0.0,0.0,0.0,0.0,0.0,0.0,0.0,0.0,0.0,0.0,0.0,0.0,0.0,0.0,0.0,0.0,0.0,0.0,0.0,0.0,0.0,0.0,-0.7498,-0.7682,-0.7793,-0.7907,-0.7975,-0.7977,-0.798,-0.7928,-0.7239,-0.5075,-0.4487,-0.3715,-0.1548,-0.1172,-0.1179,-0.1152,-0.1204,-0.1113,-0.0699,-0.06,-0.0495,-0.0056,0.0,0.0,0.0,0.0,0.0,0.0,-0.0448,-0.0504,0.0,0.0,0.0,0.0,0.0,0.0,0.0,0.0,0.0,0.0,0.0,0.0,0.0,0.0,0.0,0.0,0.0,0.0,0.0,0.0,0.0,0.0,0.0,0.0,0.0,0.0,0.0,0.0,0.0,0.0,0.0,0.0,0.0,0.0,0.0,0.0,0.0,0.0,0.0,0.0,0.0,0.0,0.0,0.0,0.0,0.0,0.0,0.0,0.0,0.0,0.0,0.0,0.0,0.0,0.0,0.0,0.0,0.0,0.0,0.0,0.0,0.0,0.0,0.0,0.0,0.0,0.0,0.0,0.0,0.0,0.0,0.0,0.0,0.0,0.0,0.0,0.0,0.0,0.0,0.0,0.0,0.0,-0.361,-0.3716,-0.375,-0.3834,-0.384,-0.3854,-0.3828,-0.3778,-0.3401,-0.2164,-0.1872,-0.1438,-0.0243,0.0,0.0,0.0,0.0,0.0,0.0,0.0,0.0,0.0,0.0,0.0,0.0,0.0,0.0,0.0,0.0,0.0,0.0,0.0,0.0,0.0,0.0,0.0,0.0,0.0,0.0,0.0,0.0,0.0,0.0,0.0,0.0,0.0,0.0,0.0,0.0,0.0,0.0,0.0,0.0,0.0,0.0,0.0,0.0,0.0,0.0,0.0,0.0,0.0,0.0,0.0,0.0,0.0,0.0,0.0,0.0,0.0,0.0,0.0,0.0,0.0,0.0,0.0,0.0,0.0,0.0,0.0,0.0,0.0,0.0,0.0,0.0,0.0,0.0,0.0,0.0,0.0,0.0,0.0,0.0,0.0,0.0,0.0,0.0,0.0,0.0,0.0,0.0,0.0,0.0,0.0,0.0,0.0,0.0,0.0,0.0,0.0033,0.097,0.1417,0.0,0.0,0.0,0.0,0.0,0.0,0.0,0.0,0.0,0.0,0.0,0.0,0.0,0.0,0.0,0.0,0.0,0.0,0.0,0.0,0.0,0.0,0.0,0.0,0.0,0.0,0.0,0.0,0.0,0.0,0.0,0.0,0.0,0.0,0.0,0.0,0.0,0.0,0.0,0.0,0.0,0.0,0.0,0.0,0.0,0.0,0.0,0.0,0.0,0.0,0.0,0.0,0.0,0.0,0.0,0.0,0.0,0.0,0.0,0.0,0.0,0.0,0.0,0.0,0.0,0.0,0.0,0.0,0.0,0.0,0.0,0.0,0.0,0.0,0.0,0.0,0.0,0.0,0.0,0.0,0.0,0.0,0.0,0.0,0.0,0.0,0.0,0.0,0.0,0.0,0.0,0.0,0.0,0.0,0.0,0.0,0.0,0.0,0.0,0.0,0.0,0.0,0.0,0.0,0.0406,0.0608,0.0574,0.1002,0.1193,0.119,0.261,0.3276,0.0,0.0,0.0,0.0,0.0,0.0,0.0,0.0,0.0,0.0,0.0,0.0,0.0,0.0,0.0,0.0,0.0,0.0,0.0,0.0,0.0,0.0,0.0,0.0,0.0,0.0,0.0,0.0,0.0,0.0,0.0,0.0,0.0,0.0,0.0,0.0,0.0,0.0,0.0,0.0,0.0,0.0,0.0,0.0,0.0,0.0,0.0,0.0,0.0,0.0,0.0,0.0,0.0,0.0,0.0,0.0,0.0,0.0,0.0,0.0,0.0,0.0,0.0,0.0,0.0,0.0,0.0,0.0,0.0,0.0,0.0,0.0,0.0,0.0,0.0,0.0,0.0,0.0,0.0,0.0,0.0,0.0,0.0,0.0,0.0,0.0,0.0,0.0,0.0,0.0,0.0,0.0,0.0,0.0,0.0,0.0,0.0,0.0,0.0,0.0,0.0,0.0,0.0,0.0,0.1723,0.2566,0.2463,0.4229,0.5011,0.4918,0.5078,0.5142,0.0,0.0,0.0,0.0,0.0,0.0,0.0,0.0,0.0,0.0,0.0,0.0,0.0,0.0,0.0,0.0,0.0,0.0,0.0,0.0,0.0,0.0,0.0,0.0,0.0,0.0,0.0,0.0,0.0,0.0,0.0,0.0,0.0,0.0,0.0,0.0,0.0,0.0,0.0,0.0,0.0,0.0,0.0,0.0,0.0,0.0,0.0,0.0,0.0,0.0,0.0,0.0,0.0,0.0,0.0,0.0,0.0,0.0,0.0,0.0,0.0,0.0,0.0,0.0,0.0,0.0,0.0,0.0,0.0,0.0,0.0,0.0,0.0,0.0,0.0,0.0,0.0,0.0,0.0,0.0,0.0,0.0,0.0,0.0,0.0,0.0,0.0,0.0,0.0,0.0,0.0,0.0,0.0,0.0,0.0,0.0,0.0,0.0,0.0,0.0543,0.1685,0.1734,0.2279,0.346,0.4239,0.4606,0.4572,0.5332,0.5635,0.5562,0.6648,0.7089,0.0,0.0,0.0,0.0,0.0,0.0,0.0,0.0,0.0,0.0,0.0,0.0,0.0,0.0,0.0,0.0,0.0,0.0,0.0,0.0,0.0,0.0,0.0,0.0,0.0,0.0,0.0,0.0,0.0,0.0,0.0,0.0,0.0,0.0,0.0,0.0,0.0,0.0,0.0,0.0,0.0,0.0,0.0,0.0,0.0,0.0,0.0,0.0,0.0,0.0,0.0,0.0,0.0,0.0,0.0,0.0,0.0,0.0,0.0,0.0,0.0,0.0,0.0,0.0,0.0,0.0,0.0,0.0,0.0,0.0,0.0,0.0,0.0,0.0,0.0,0.0,0.0,0.0,0.0,0.0,0.0,0.0,0.0,0.0,0.0,0.0,0.0,0.0,0.0,0.0,0.0,0.0,0.0,0.0,0.0,0.0,0.0,0.0,0.0,0.0893,0.2869,0.2941,0.3918,0.5894,0.6449,0.6708,0.6668,0.7205,0.7386,0.7287,0.8562,0.9047,0.0,0.0,0.0,0.0,0.0,0.0,0.0,0.0,0.0,0.0,0.0,0.0,0.0,0.0,0.0,0.0,0.0,0.0,0.0,0.0,0.0,0.0,0.0,0.0,0.0,0.0,0.0,0.0,0.0,0.0,0.0,0.0,0.0,0.0,0.0,0.0,0.0,0.0,0.0,0.0,0.0,0.0,0.0,0.0,0.0,0.0,0.0,0.0,0.0,0.0,0.0,0.0,0.0,0.0,0.0,0.0,0.0,0.0,0.0,0.0,0.0,0.0,0.0,0.0,0.0,0.0,0.0,0.0,0.0,0.0,0.0,0.0,0.0,0.0,0.0,0.0,0.0,0.0,0.0,0.0,0.0,0.0,0.0,0.0,0.0,0.0,0.0,0.0,0.0,0.0,0.0,0.0,0.0,0.0,0.0,0.0,0.0,0.0,0.0,0.0946,0.3021,0.3095,0.4096,0.6248,0.8007,0.8812,0.8662,1.0451,1.1272,1.1124,1.1158,1.1049,0.0,0.0,0.0,0.0,0.0,0.0,0.0,0.0,0.0,0.0,0.0,0.0,0.0,0.0,0.0,0.0,0.0,0.0,0.0,0.0,0.0,0.0,0.0,0.0,0.0,0.0,0.0,0.0,0.0,0.0,0.0,0.0,0.0,0.0,0.0,0.0,0.0,0.0,0.0,0.0,0.0,0.0,0.0,0.0,0.0,0.0,0.0,0.0,0.0,0.0,0.0,0.0,0.0,0.0,0.0,0.0,0.0,0.0,0.0,0.0,0.0,0.0,0.0,0.0,0.0,0.0,0.0,0.0,0.0,0.0,0.0,0.0,0.0,0.0,0.0,0.0,0.0,0.0,0.0,0.0,0.0,0.0,0.0,0.0,0.0,0.0,0.0,0.0576,0.2239,0.2456,0.306,0.468,0.485,0.4154,0.2417,0.2271,0.2887,0.4361,0.4449,0.5278,0.7173,0.7273,0.8216,1.0211,1.0804,1.1057,1.102,1.1471,1.1565,1.1314,1.1247,1.1172,0.0,0.0,0.0,0.0,0.0,0.0,0.0,0.0,0.0,0.0,0.0,0.0,0.0,0.0,0.0,0.0,0.0,0.0,0.0,0.0,0.0,0.0,0.0,0.0,0.0,0.0,0.0,0.0,0.0,0.0,0.0,0.0,0.0,0.0,0.0,0.0,0.0,0.0,0.0,0.0,0.0,0.0,0.0,0.0,0.0,0.0,0.0,0.0,0.0,0.0,0.0,0.0,0.0,0.0,0.0,0.0,0.0,0.0,0.0,0.0,0.0,0.0,0.0,0.0,0.0,0.0,0.0,0.0,0.0,0.0,0.0,0.0,0.0,0.0,0.0,0.0,0.0,0.0,0.0,0.0,0.0718,0.1345,0.1345,0.2106,0.2687,0.2687,0.2687,0.3214,0.4741,0.4914,0.5475,0.6926,0.7094,0.6785,0.6069,0.5193,0.5225,0.6499,0.6579,0.7421,0.9353,0.9441,1.0349,1.2273,1.2295,1.2241,1.2186,1.1993,1.1823,1.1676,1.1484,1.1389,0.0,0.0,0.0,0.0,0.0,0.0,0.0,0.0,0.0,0.0,0.0,0.0,0.0,0.0,0.0,0.0,0.0,0.0044,0.0224,0.028,0.0292,0.0303,0.0105,0.0,0.0,0.0,0.0,0.0,0.0166,0.0275,0.0324,0.0485,0.0591,0.0586,0.0586,0.0426,0.0,0.0,0.0,0.0,0.0213,0.032,0.0266,0.0475,0.0575,0.057,0.0565,0.0557,0.0547,0.0552,0.0545,0.0532,0.0537,0.0536,0.053,0.0526,0.0524,0.0522,0.0513,0.0506,0.05,0.0495,0.0494,0.0494,0.0494,0.0269,0.0,0.0,0.0,0.0,0.0,0.0135,0.0269,0.0269,0.0404,0.0494,0.0494,0.0494,0.0494,0.0494,0.233,0.3848,0.3848,0.5678,0.7102,0.7102,0.7102,0.7146,0.7324,0.7369,0.7413,0.7595,0.7595,0.8449,1.0598,0.8548,0.7141,0.7177,0.7177,0.8016,0.9949,1.003,1.0867,1.2706,1.2596,1.244,1.2291,1.2186,1.2111,1.2098,1.1911,1.1732,0.0,0.0,0.0,0.0,0.0,0.0,0.0,0.0,0.0,0.0,0.0,0.0,0.0,0.0,0.0,0.0,0.0,0.07,0.2634,0.2925,0.3008,0.3171,0.1307,0.0,0.0,0.0,0.0,0.0,0.1972,0.3205,0.3204,0.5328,0.6488,0.6528,0.6528,0.4409,0.0053,0.0,0.0,0.0,0.2182,0.318,0.3157,0.5367,0.6244,0.6137,0.6131,0.6038,0.5984,0.5948,0.5927,0.5821,0.583,0.5743,0.5656,0.5642,0.5552,0.543,0.5452,0.5452,0.5439,0.5428,0.541,0.541,0.541,0.2866,0.0,0.0,0.0,0.0,0.0,0.139,0.2776,0.2776,0.4116,0.541,0.541,0.541,0.541,0.541,0.5898,0.6255,0.6255,0.6745,0.7102,0.7102,0.7102,0.777,0.9602,0.9869,1.0584,1.2414,1.2597,1.2764,1.3203,1.0956,1.017,1.173,1.1716,1.1844,1.2227,1.2268,1.2455,1.2908,1.2752,1.2549,1.2291,1.225,1.2213,1.2098,1.2064,1.1925,0.0,0.0,0.0,0.0,0.0,0.0,0.0,0.0,0.0,0.0,0.0,0.0,0.0,0.0901,0.1285,0.0174,0.1925,0.3932,0.5414,0.569,0.5828,0.6146,0.4898,0.4004,0.4055,0.4004,0.3984,0.3988,0.5322,0.6192,0.6165,0.7641,0.8487,0.8487,0.8487,0.7005,0.3933,0.3879,0.3879,0.3933,0.5393,0.6053,0.6021,0.749,0.8089,0.7995,0.8022,0.7903,0.7817,0.7802,0.769,0.7501,0.7531,0.744,0.7393,0.7387,0.733,0.7233,0.7233,0.7163,0.7111,0.7115,0.7102,0.7102,0.7102,0.532,0.3267,0.3267,0.3267,0.3267,0.3267,0.4204,0.5186,0.5186,0.6168,0.7102,0.7102,0.7102,0.7102,0.7102,0.7996,0.8753,0.8753,0.9691,1.0402,1.0402,1.0402,1.0895,1.2192,1.237,1.2863,1.4166,1.4299,1.4265,1.4183,1.2892,1.2503,1.3529,1.3526,1.3417,1.3275,1.3268,1.32,1.3105,1.2908,1.2759,1.2635,1.2635,1.256,1.2366,1.2298,1.2182,0.0936,0.1069,0.0873,0.0168,0.0,0.0085,0.0426,0.0505,0.0624,0.0965,0.1053,0.1058,0.1069,0.2759,0.3471,0.1439,0.5021,0.8178,0.8546,0.8673,0.8821,0.9165,0.8948,0.8741,0.8841,0.8741,0.8674,0.8648,0.896,0.9153,0.9126,0.9545,0.9809,0.9809,0.9809,0.9809,0.9809,0.8911,0.8487,0.8484,0.8776,0.8942,0.8924,0.9137,0.9264,0.9248,0.9225,0.9142,0.899,0.9015,0.8803,0.8559,0.8602,0.8563,0.847,0.8528,0.847,0.843,0.843,0.8336,0.8219,0.8219,0.8219,0.8219,0.8219,0.8219,0.8219,0.8219,0.7681,0.7102,0.7102,0.7372,0.7636,0.7636,0.7951,0.8219,0.8219,0.8219,0.8219,0.8219,0.9869,1.125,1.125,1.2952,1.4299,1.4299,1.4299,1.4299,1.4299,1.4299,1.4299,1.4299,1.4299,1.4299,1.4299,1.4183,1.4048,1.3876,1.3822,1.3734,1.3592,1.3565,1.3458,1.322,1.3098,1.3023,1.3003,1.3003,1.2895,1.272,1.263,1.2481,0.5262,0.5843,0.4895,0.0967,0.0,0.0511,0.2362,0.2855,0.3392,0.5279,0.5783,0.5838,0.5859,0.6225,0.6488,0.6299,0.8994,1.1375,1.2105,1.1994,1.1968,1.2433,1.0317,0.8817,0.8756,0.8736,0.8657,0.8519,1.0697,1.2035,1.2036,1.437,1.5704,1.5704,1.5704,1.5704,1.5704,1.0923,0.8487,0.854,1.0774,1.1776,1.1737,1.4022,1.4963,1.485,1.4881,1.4662,1.4412,1.4389,1.4187,1.3851,1.3943,1.3768,1.3403,1.3528,1.3455,1.3242,1.3242,1.3211,1.3179,1.3179,1.3179,1.3179,1.3179,1.3179,1.3179,1.3179,1.0268,0.7102,0.7102,0.8619,1.0135,1.0135,1.1699,1.3179,1.3179,1.3179,1.3179,1.3179,1.3489,1.3761,1.3761,1.4033,1.4299,1.4299,1.4299,1.4299,1.4299,1.4299,1.4299,1.4299,1.4299,1.4299,1.4299,1.4278,1.4251,1.4231,1.3944,1.3734,1.3592,1.3505,1.3356,1.3214,1.3193,1.3118,1.3003,1.3003,1.2989,1.2969,1.2941,1.2778,0.6241,0.6625,0.6199,0.4153,0.38,0.4249,0.5128,0.5373,0.5673,0.6727,0.6982,0.7056,0.7136,0.8409,0.9969,1.1704,1.2101,1.2836,1.4635,1.4886,1.5051,1.5422,1.4359,1.3591,1.3546,1.3411,1.3333,1.322,1.4332,1.5015,1.5008,1.6288,1.6978,1.6978,1.6897,1.6856,1.6856,1.4198,1.2886,1.2948,1.4134,1.4578,1.4497,1.5607,1.6069,1.6076,1.5913,1.5715,1.5587,1.5499,1.5248,1.4862,1.5011,1.4889,1.4606,1.4808,1.4726,1.4523,1.4441,1.4367,1.4299,1.4299,1.4299,1.4299,1.4299,1.4299,1.4299,1.4299,1.2686,1.0984,1.0984,1.1788,1.2642,1.2642,1.3489,1.4299,1.4299,1.4299,1.4299,1.4299,1.4299,1.4299,1.4299,1.4299,1.4299,1.4299,1.4299,1.4299,1.4299,1.4299,1.4299,1.4299,1.4299,1.4299,1.4299,1.4299,1.4299,1.4299,1.4089,1.3939,1.3871,1.3722,1.3566,1.3424,1.3417,1.3349,1.3241,1.3241,1.32,1.3118,1.3118,1.3003,0.7764,0.797,0.8094,0.824,0.7727,0.7324,0.7882,0.7956,0.8144,0.8825,0.8992,0.9031,0.9092,1.0826,1.3075,1.5453,1.4489,1.4252,1.6422,1.6965,1.7236,1.7494,1.7541,1.7575,1.7548,1.7406,1.7304,1.7154,1.7039,1.6978,1.6978,1.6978,1.6978,1.6978,1.6777,1.6696,1.6696,1.6547,1.6527,1.6642,1.6544,1.6415,1.63,1.6029,1.6003,1.6015,1.5825,1.5634,1.5533,1.5499,1.5201,1.4808,1.4964,1.4903,1.4708,1.4835,1.4787,1.4626,1.455,1.4441,1.4346,1.4346,1.4326,1.4299,1.4299,1.4299,1.4299,1.4299,1.4326,1.434,1.4306,1.4299,1.4299,1.4299,1.4299,1.4299,1.4299,1.4299,1.4299,1.4299,1.4299,1.4299,1.4299,1.4299,1.4299,1.4299,1.4299,1.4299,1.4299,1.4299,1.4299,1.4299,1.4299,1.4299,1.4299,1.4299,1.4299,1.4299,1.4156,1.4119,1.4119,1.3926,1.3747,1.3639,1.3605,1.3531,1.3451,1.3417,1.3356,1.3275,1.3241,1.3207,1.2049,1.2711,1.2764,1.286,0.9726,0.7265,0.999,1.0522,1.1219,1.3892,1.4514,1.452,1.4231,1.4567,1.5073,1.5553,1.6038,1.6641,1.7243,1.7446,1.765,1.7868,1.7717,1.7541,1.7453,1.7297,1.7148,1.7005,1.6985,1.6978,1.6978,1.6978,1.6978,1.6978,1.6777,1.6696,1.6696,1.6547,1.6473,1.6537,1.6395,1.632,1.6307,1.6137,1.6044,1.5928,1.5995,1.5811,1.5438,1.5519,1.5357,1.497,1.5113,1.4991,1.4681,1.459,1.4536,1.4523,1.4516,1.4502,1.4496,1.4496,1.4407,1.4299,1.4299,1.4299,1.4299,1.4299,1.4394,1.4468,1.4333,1.4299,1.4299,1.4299,1.4299,1.4299,1.4299,1.4299,1.4299,1.4299,1.4299,1.4299,1.4299,1.4299,1.4299,1.4299,1.4299,1.4299,1.4299,1.4299,1.4299,1.4299,1.4299,1.4299,1.4299,1.4299,1.4299,1.4299,1.4156,1.4119,1.4119,1.3926,1.3795,1.3781,1.3653,1.3585,1.3572,1.3471,1.3464,1.3551,1.3451,1.3376,1.2508,1.2996,1.3227,1.3247,1.2098,1.1294,1.2819,1.3257,1.3729,1.4973,1.5432,1.554,1.5289,1.5622,1.592,1.6035,1.6598,1.7087,1.7256,1.7412,1.7528,1.7582,1.7541,1.7446,1.7297,1.7222,1.7134,1.6992,1.6978,1.6978,1.6978,1.689,1.6883,1.6978,1.6653,1.6466,1.6554,1.6368,1.6198,1.6103,1.6151,1.6117,1.6071,1.5872,1.5825,1.5894,1.5716,1.5622,1.554,1.5411,1.5201,1.5023,1.5078,1.4984,1.4889,1.4916,1.4814,1.4606,1.4606,1.4536,1.438,1.438,1.4346,1.4299,1.4299,1.4299,1.4299,1.4299,1.434,1.4367,1.4312,1.4367,1.4407,1.4319,1.4299,1.4299,1.4299,1.4299,1.4299,1.4299,1.4299,1.4299,1.4299,1.4299,1.4299,1.4299,1.4299,1.4299,1.4299,1.4299,1.4299,1.4299,1.4299,1.4299,1.4299,1.4299,1.4299,1.4299,1.4245,1.4211,1.4211,1.4156,1.4082,1.3987,1.3933,1.3858,1.372,1.366,1.366,1.3714,1.3572,1.3504,1.2576,1.28,1.3057,1.3193,1.3403,1.3781,1.4557,1.4923,1.5262,1.5798,1.5879,1.5901,1.5852,1.5938,1.6144,1.6286,1.6809,1.7195,1.7195,1.7324,1.7419,1.7419,1.7378,1.7311,1.7202,1.7154,1.7087,1.6985,1.6978,1.6978,1.6978,1.6876,1.687,1.6978,1.6585,1.6422,1.6517,1.6232,1.6029,1.5976,1.5934,1.5886,1.5784,1.5683,1.5689,1.5778,1.5622,1.5554,1.5506,1.5391,1.5215,1.5078,1.5037,1.5017,1.5017,1.497,1.4875,1.4687,1.464,1.4536,1.4367,1.4367,1.434,1.4299,1.4299,1.4299,1.4306,1.4353,1.4401,1.4441,1.4441,1.4441,1.4421,1.4326,1.4299,1.4299,1.4299,1.4299,1.4299,1.4299,1.4299,1.4299,1.4299,1.4299,1.4299,1.4299,1.4299,1.4319,1.436,1.4367,1.4367,1.4367,1.4367,1.4346,1.4306,1.4299,1.4299,1.4299,1.4299,1.4299,1.4299,1.4299,1.4251,1.4143,1.4139,1.4021,1.3869,1.3822,1.3822,1.3912,1.372,1.3653,1.2686,1.2693,1.276,1.3098,1.341,1.3912,1.495,1.5303,1.571,1.6768,1.6439,1.6003,1.6252,1.5898,1.5742,1.6239,1.6809,1.7188,1.7188,1.7317,1.7419,1.7419,1.7283,1.7188,1.7188,1.7066,1.6978,1.6978,1.6978,1.6978,1.6978,1.6978,1.6978,1.6978,1.668,1.6517,1.6517,1.6225,1.6083,1.6076,1.5778,1.5593,1.5593,1.5587,1.5587,1.5593,1.5784,1.5731,1.5425,1.5526,1.5452,1.5167,1.5071,1.5017,1.4976,1.4624,1.4611,1.4667,1.4563,1.4509,1.4509,1.4509,1.4414,1.4299,1.4306,1.4306,1.4333,1.4475,1.4624,1.4694,1.4694,1.4478,1.4306,1.4299,1.4299,1.4299,1.4299,1.4299,1.4306,1.4299,1.4299,1.4299,1.4299,1.4299,1.4299,1.4299,1.4299,1.4353,1.4496,1.4516,1.4516,1.4509,1.4516,1.4455,1.4312,1.4299,1.4299,1.4299,1.4299,1.4299,1.4299,1.4299,1.4299,1.4299,1.415,1.4119,1.4119,1.3919,1.3926,1.4112,1.3912,1.3802,1.2596,1.2725,1.2963,1.3261,1.3797,1.4468,1.5309,1.5615,1.6037,1.6937,1.6781,1.6476,1.6463,1.6385,1.6344,1.632,1.672,1.7046,1.7046,1.708,1.7114,1.7114,1.7073,1.7046,1.7046,1.7005,1.6978,1.6978,1.6978,1.6978,1.6978,1.6876,1.677,1.677,1.653,1.6374,1.6374,1.6178,1.5974,1.5771,1.5634,1.5593,1.5587,1.5479,1.5479,1.5479,1.5527,1.5493,1.5404,1.5343,1.514,1.4875,1.4943,1.4841,1.4652,1.462,1.4586,1.4525,1.4529,1.4448,1.438,1.4482,1.4482,1.4468,1.4532,1.4536,1.4482,1.4586,1.4579,1.4559,1.4667,1.4626,1.4584,1.4475,1.4448,1.4421,1.4319,1.4462,1.455,1.434,1.438,1.4414,1.4319,1.4299,1.4299,1.4299,1.4387,1.4462,1.4509,1.4559,1.4586,1.4523,1.4566,1.4611,1.4462,1.4448,1.4407,1.4306,1.4299,1.4299,1.4299,1.4299,1.4299,1.4299,1.4258,1.4231,1.4231,1.4183,1.419,1.4231,1.4075,1.3946,1.2759,1.2941,1.32,1.3641,1.4231,1.4923,1.5791,1.6239,1.6632,1.7168,1.6998,1.6761,1.6781,1.6673,1.6527,1.6578,1.6802,1.6978,1.6978,1.6978,1.6978,1.6978,1.6978,1.6958,1.6897,1.689,1.6863,1.6802,1.6802,1.6802,1.6802,1.6707,1.6608,1.6608,1.6429,1.6307,1.6307,1.6157,1.5961,1.5723,1.5621,1.556,1.554,1.5391,1.5316,1.5316,1.5316,1.5316,1.5303,1.5092,1.4903,1.4701,1.4774,1.4713,1.4597,1.4532,1.4498,1.4502,1.4448,1.4373,1.4326,1.4468,1.4509,1.4536,1.4647,1.4626,1.4586,1.4787,1.4767,1.4726,1.4875,1.4875,1.4794,1.4638,1.4557,1.4489,1.4401,1.4482,1.4471,1.4333,1.4367,1.4401,1.4312,1.4346,1.4387,1.4387,1.4563,1.4692,1.4692,1.4821,1.4862,1.4713,1.4719,1.4633,1.4523,1.4462,1.4394,1.4306,1.4299,1.4299,1.4299,1.4299,1.4299,1.4299,1.4299,1.4299,1.4299,1.4299,1.4299,1.4299,1.4204,1.4082,1.3078,1.3214,1.3418,1.415,1.4726,1.5371,1.6341,1.6998,1.7399,1.7385,1.7066,1.6929,1.7141,1.6741,1.6503,1.6917,1.6978,1.6978,1.6978,1.6978,1.6978,1.6978,1.6978,1.6917,1.6709,1.6696,1.6635,1.653,1.6524,1.6524,1.6524,1.6524,1.6466,1.6503,1.6374,1.63,1.6286,1.6137,1.6037,1.5881,1.5689,1.5533,1.5364,1.5242,1.5181,1.5181,1.5167,1.516,1.514,1.4809,1.4687,1.466,1.4563,1.459,1.462,1.4401,1.438,1.4475,1.4346,1.4306,1.434,1.4482,1.4543,1.4584,1.4687,1.4728,1.4748,1.495,1.503,1.5051,1.5194,1.5086,1.4957,1.4769,1.4606,1.4523,1.4496,1.4414,1.4333,1.4306,1.4312,1.4319,1.4319,1.4428,1.4523,1.455,1.4794,1.5017,1.5017,1.5139,1.5126,1.503,1.4855,1.4667,1.455,1.4414,1.4326,1.4299,1.4299,1.4299,1.4299,1.4299,1.4299,1.4299,1.4299,1.4299,1.4299,1.4299,1.4299,1.4299,1.4299,1.4217,1.2996,1.3214,1.3559,1.4383,1.5425,1.6307,1.6775,1.7066,1.7209,1.71,1.7087,1.7114,1.7182,1.6998,1.687,1.6965,1.6978,1.6978,1.6978,1.6978,1.6978,1.6978,1.6978,1.6917,1.6709,1.6696,1.6635,1.653,1.6524,1.6524,1.6524,1.6524,1.6469,1.6361,1.6327,1.6252,1.613,1.603,1.5832,1.5683,1.5533,1.5323,1.5065,1.5147,1.5181,1.5174,1.5112,1.5064,1.5051,1.4769,1.4626,1.4557,1.4523,1.4462,1.4387,1.4326,1.4319,1.434,1.4312,1.4373,1.4489,1.4593,1.4774,1.4896,1.5045,1.5011,1.495,1.5146,1.5059,1.5051,1.5194,1.516,1.5126,1.5092,1.4882,1.4579,1.4394,1.4502,1.4532,1.4346,1.4387,1.4468,1.4468,1.4489,1.459,1.4835,1.493,1.5017,1.5017,1.5139,1.5126,1.503,1.5038,1.4977,1.4667,1.462,1.4498,1.4312,1.4299,1.4299,1.4299,1.4299,1.4299,1.4299,1.4299,1.4299,1.4299,1.4299,1.4299,1.4299,1.4299,1.4217,1.3023,1.3329,1.3878,1.4997,1.59,1.6605,1.691,1.7039,1.7073,1.6998,1.7093,1.7168,1.7107,1.7032,1.6978,1.6978,1.6978,1.6978,1.6978,1.6978,1.6978,1.6978,1.6978,1.6917,1.6709,1.6696,1.6608,1.6435,1.6422,1.6388,1.6313,1.6239,1.6198,1.6198,1.6062,1.5981,1.6024,1.5825,1.5676,1.5479,1.5452,1.5289,1.5119,1.5079,1.512,1.5167,1.4957,1.4862,1.4841,1.4618,1.4482,1.4414,1.4414,1.4367,1.4299,1.4299,1.434,1.4401,1.4401,1.4496,1.4599,1.4801,1.4903,1.5057,1.5228,1.5242,1.5215,1.5357,1.535,1.5309,1.5384,1.535,1.5276,1.5201,1.4957,1.4654,1.4498,1.4532,1.4539,1.4428,1.4523,1.4618,1.4618,1.4685,1.4808,1.5038,1.5119,1.5119,1.5119,1.514,1.5153,1.5079,1.5079,1.4991,1.4714,1.4694,1.4566,1.4319,1.4367,1.4373,1.4306,1.4299,1.4299,1.4299,1.4299,1.4299,1.4299,1.4299,1.4299,1.4299,1.4299,1.4258,1.2983,1.3539,1.4248,1.5588,1.6212,1.6632,1.6917,1.6978,1.6978,1.6978,1.7073,1.7121,1.7005,1.6978,1.6978,1.6978,1.6978,1.6978,1.6978,1.6978,1.6978,1.6978,1.6978,1.6917,1.6709,1.6696,1.6588,1.6368,1.6327,1.6252,1.613,1.6003,1.5949,1.6001,1.5715,1.5669,1.5786,1.5622,1.5499,1.5371,1.5371,1.5296,1.514,1.5071,1.5078,1.5126,1.4828,1.4654,1.4633,1.4414,1.4299,1.4299,1.4299,1.4312,1.434,1.434,1.4428,1.455,1.455,1.4652,1.4801,1.493,1.503,1.5059,1.533,1.5411,1.5445,1.5546,1.5573,1.5553,1.5553,1.5486,1.5337,1.5215,1.4977,1.4721,1.4667,1.4624,1.4543,1.4516,1.4679,1.4762,1.4741,1.495,1.5106,1.5174,1.5208,1.5215,1.5187,1.5181,1.5181,1.5181,1.5079,1.4943,1.4748,1.4735,1.4652,1.4353,1.4448,1.4448,1.4306,1.4299,1.4299,1.4299,1.4299,1.4299,1.4299,1.4299,1.4299,1.4299,1.4299,1.4299,1.2705,1.3646,1.4769,1.5697,1.6286,1.6716,1.6937,1.6978,1.6978,1.6978,1.6998,1.7005,1.6985,1.6978,1.6978,1.6978,1.6978,1.6978,1.6978,1.6978,1.6978,1.6978,1.6978,1.6917,1.6709,1.6696,1.6628,1.6503,1.6381,1.63,1.6279,1.6058,1.5854,1.5654,1.5614,1.552,1.5323,1.5255,1.5235,1.5215,1.5215,1.514,1.5044,1.5023,1.503,1.503,1.4679,1.4543,1.4529,1.4367,1.4299,1.4299,1.4299,1.4373,1.4482,1.4482,1.4577,1.4667,1.4667,1.4814,1.4943,1.501,1.5098,1.5187,1.5357,1.5411,1.5445,1.5546,1.5499,1.5438,1.5438,1.533,1.5208,1.5187,1.5059,1.4869,1.4597,1.4586,1.4626,1.4536,1.4841,1.5086,1.4964,1.5276,1.5466,1.5221,1.5296,1.533,1.5201,1.5181,1.5181,1.5181,1.5167,1.5146,1.495,1.4943,1.4808,1.4502,1.4502,1.4448,1.4306,1.4299,1.4299,1.4299,1.4299,1.4299,1.4299,1.4299,1.4299,1.4299,1.4299,1.4299,1.3037,1.3851,1.4692,1.5527,1.6056,1.6463,1.6781,1.6917,1.6978,1.6978,1.6978,1.6978,1.6978,1.6978,1.6978,1.6978,1.691,1.6849,1.6849,1.6849,1.6822,1.6734,1.6795,1.6822,1.6702,1.6696,1.6669,1.6601,1.651,1.6395,1.6313,1.594,1.5703,1.5593,1.5398,1.5201,1.5112,1.4977,1.4936,1.4936,1.5025,1.4984,1.4841,1.4753,1.476,1.4828,1.4604,1.4509,1.4502,1.436,1.4299,1.4299,1.4299,1.4387,1.4509,1.4509,1.4665,1.4869,1.4869,1.4964,1.5086,1.5086,1.5133,1.5228,1.5466,1.5492,1.5539,1.5818,1.5839,1.5784,1.5784,1.5676,1.554,1.5459,1.5323,1.5133,1.4835,1.4821,1.4875,1.4889,1.5045,1.516,1.5099,1.5255,1.5337,1.5201,1.5309,1.5357,1.5201,1.5255,1.5276,1.5194,1.5181,1.5173,1.503,1.5091,1.4923,1.4536,1.459,1.4536,1.4306,1.4299,1.4299,1.4299,1.4299,1.4299,1.4299,1.4299,1.4299,1.4299,1.4299,1.4299,1.3146,1.3729,1.4278,1.5093,1.5689,1.6123,1.6497,1.6754,1.6924,1.6924,1.6951,1.6978,1.6978,1.6978,1.6971,1.6931,1.6822,1.6682,1.6648,1.6642,1.6601,1.6537,1.6567,1.6642,1.6642,1.6642,1.6642,1.6642,1.65,1.6402,1.6259,1.5776,1.5499,1.5472,1.5106,1.4875,1.4801,1.4719,1.4633,1.464,1.4835,1.4828,1.4633,1.4563,1.4557,1.4579,1.4509,1.4462,1.4448,1.4346,1.4299,1.4299,1.4299,1.4387,1.4516,1.4557,1.474,1.5023,1.5057,1.5139,1.5181,1.5181,1.5181,1.5242,1.5499,1.5593,1.5654,1.6001,1.6105,1.6071,1.6071,1.5962,1.5771,1.5662,1.5506,1.5391,1.5086,1.5071,1.5065,1.5215,1.5303,1.5343,1.5303,1.533,1.5343,1.5303,1.5398,1.5411,1.5262,1.5343,1.535,1.5201,1.5181,1.514,1.5078,1.512,1.5025,1.4652,1.4733,1.4679,1.4421,1.4373,1.4353,1.4353,1.4319,1.4299,1.4299,1.4299,1.4299,1.4299,1.4299,1.4299,1.2571,1.3105,1.3627,1.438,1.5221,1.5956,1.6076,1.6449,1.6709,1.6709,1.6876,1.6978,1.6978,1.6978,1.6931,1.6736,1.6702,1.6648,1.6551,1.653,1.653,1.6524,1.653,1.653,1.653,1.653,1.653,1.653,1.6402,1.6252,1.6103,1.5669,1.5296,1.5064,1.4841,1.4572,1.434,1.4462,1.4523,1.4523,1.4633,1.4626,1.4523,1.4516,1.4441,1.4326,1.4312,1.4312,1.4312,1.4306,1.4299,1.4299,1.4299,1.4387,1.4529,1.4626,1.4828,1.5037,1.5173,1.5174,1.5181,1.5181,1.5181,1.5242,1.5499,1.5593,1.5654,1.6001,1.6024,1.5915,1.5915,1.5757,1.56,1.5593,1.5587,1.5499,1.5235,1.5174,1.5215,1.5371,1.5628,1.5826,1.5593,1.573,1.582,1.5587,1.5573,1.5526,1.5418,1.5404,1.535,1.5201,1.5181,1.5181,1.5174,1.5181,1.516,1.5003,1.5003,1.4889,1.4681,1.4577,1.4502,1.4502,1.4367,1.4299,1.4299,1.4299,1.4299,1.4299,1.4299,1.4299,1.2359,1.2779,1.3275,1.3919,1.4536,1.5079,1.5425,1.5927,1.632,1.632,1.6517,1.6714,1.6815,1.691,1.6931,1.6723,1.6615,1.65,1.6408,1.6388,1.6347,1.6252,1.6327,1.6388,1.6388,1.6293,1.632,1.651,1.6212,1.6035,1.6083,1.556,1.5174,1.5023,1.4726,1.4496,1.4299,1.4441,1.4468,1.438,1.4523,1.4516,1.4373,1.4373,1.4346,1.4299,1.4299,1.4299,1.4299,1.4299,1.4299,1.4299,1.4299,1.4387,1.4529,1.464,1.4835,1.5037,1.5133,1.5181,1.5181,1.5181,1.5248,1.5371,1.5526,1.5703,1.5818,1.6022,1.6092,1.6051,1.6051,1.5961,1.59,1.5798,1.571,1.556,1.5499,1.5479,1.5493,1.5499,1.5642,1.5696,1.56,1.5683,1.5696,1.56,1.5716,1.5723,1.5526,1.5635,1.5642,1.5493,1.5391,1.533,1.533,1.5242,1.512,1.5023,1.5017,1.4903,1.4701,1.464,1.4613,1.4613,1.4566,1.4489,1.4299,1.4299,1.4299,1.4299,1.4299,1.4299,1.2094,1.2427,1.2921,1.3471,1.3919,1.436,1.4909,1.5384,1.5813,1.601,1.6198,1.6435,1.6581,1.6754,1.6795,1.6635,1.6533,1.6456,1.6259,1.6232,1.6198,1.6096,1.6171,1.6212,1.6164,1.6112,1.6062,1.6212,1.5947,1.5805,1.5852,1.5384,1.4997,1.4753,1.455,1.4394,1.4299,1.4394,1.4394,1.4299,1.4394,1.4394,1.4299,1.4299,1.4299,1.4299,1.4299,1.4299,1.4299,1.4299,1.4299,1.4306,1.4353,1.4428,1.4536,1.474,1.4882,1.5037,1.5133,1.5215,1.5262,1.5262,1.5364,1.5513,1.5669,1.5778,1.5935,1.6035,1.6083,1.6083,1.6083,1.6083,1.6056,1.6003,1.5859,1.5791,1.5791,1.575,1.571,1.571,1.575,1.5791,1.5791,1.5744,1.573,1.5778,1.5825,1.5867,1.5723,1.584,1.5798,1.5607,1.5499,1.5466,1.5411,1.5316,1.5194,1.5098,1.5085,1.4997,1.4889,1.4841,1.4821,1.4821,1.4721,1.4599,1.4448,1.4394,1.4346,1.4299,1.4299,1.4299,0.0,0.0,0.0,1.3037,1.337,1.3747,1.4478,1.4814,1.5146,1.5731,1.5983,1.6144,1.6442,1.6503,1.651,1.6517,1.6517,1.6415,1.6123,1.6083,1.6083,1.6083,1.6083,1.6071,1.5915,1.5901,1.5791,1.56,1.558,1.5512,1.5411,1.512,1.4753,1.4312,1.4299,1.4299,1.4299,1.4299,1.4299,1.4299,1.4299,1.4299,1.4299,1.4299,1.4299,1.4299,1.4299,1.4299,1.4299,1.4299,1.4299,1.4312,1.4448,1.4509,1.455,1.4855,1.497,1.5037,1.5133,1.5282,1.5404,1.5411,1.5513,1.5614,1.586,1.5901,1.5935,1.6085,1.6076,1.6083,1.6083,1.6083,1.6083,1.6083,1.6083,1.609,1.609,1.6017,1.5915,1.5908,1.603,1.6083,1.6083,1.601,1.5962,1.6056,1.6003,1.5908,1.5908,1.5908,1.5805,1.5621,1.56,1.5539,1.5438,1.5418,1.535,1.5201,1.5181,1.5181,1.5181,1.5098,1.5023,1.5023,1.4828,1.4708,1.4701,1.459,1.4441,1.4306,1.4299,1.4299,1.1728,0.0,0.0,0.0,0.0,0.0,1.3356,1.3736,1.4136,1.4631,1.5025,1.5479,1.5996,1.613,1.6239,1.6347,1.6368,1.63,1.611,1.6083,1.6083,1.6083,1.6083,1.6071,1.5915,1.5757,1.5683,1.5593,1.5432,1.5289,1.5248,1.4862,1.4536,1.4306,1.4299,1.4299,1.4299,1.4299,1.4299,1.4299,1.4299,1.4299,1.4299,1.4299,1.4299,1.4299,1.4299,1.4299,1.4299,1.4299,1.4299,1.4306,1.4346,1.4421,1.4536,1.4733,1.4875,1.5037,1.5133,1.5208,1.5262,1.5377,1.5438,1.552,1.5826,1.5901,1.5908,1.5956,1.6044,1.6083,1.6083,1.6083,1.6083,1.6083,1.6164,1.6246,1.6246,1.6212,1.6151,1.6042,1.6056,1.6083,1.6083,1.6049,1.6085,1.6076,1.6092,1.6015,1.6015,1.6015,1.6001,1.5961,1.5859,1.5778,1.5786,1.5533,1.5391,1.535,1.5242,1.5181,1.5181,1.5147,1.5126,1.5126,1.5079,1.5011,1.4909,1.4638,1.4489,1.4448,1.4346,1.4299,0.0,0.0,0.0,0.0,0.0,0.0,1.3057,1.3254,1.3532,1.417,1.4557,1.4943,1.552,1.5696,1.5852,1.6001,1.6083,1.611,1.6083,1.6083,1.6083,1.6083,1.6029,1.5927,1.5778,1.5628,1.5493,1.5371,1.5194,1.5038,1.4909,1.4652,1.4448,1.4306,1.4299,1.4299,1.4299,1.4299,1.4299,1.4299,1.4299,1.4299,1.4299,1.4299,1.4299,1.4299,1.4299,1.4299,1.4299,1.4299,1.4299,1.4306,1.4367,1.4475,1.4579,1.478,1.493,1.5072,1.5153,1.5221,1.5296,1.5377,1.5452,1.554,1.571,1.5764,1.5778,1.5888,1.601,1.6083,1.6083,1.6083,1.6096,1.6164,1.6198,1.6232,1.6293,1.6259,1.6205,1.6185,1.6123,1.6083,1.6083,1.6083,1.6083,1.6083,1.6083,1.6083,1.6083,1.6083,1.6083,1.6083,1.6051,1.5976,1.5908,1.5642,1.5479,1.5411,1.5269,1.5181,1.5181,1.5181,1.5181,1.5181,1.5181,1.5113,1.5017,1.4787,1.4638,1.4509,1.4367,1.4333,0.0,0.0,0.0,0.0,0.0,0.0,1.3482,1.3489,1.3485,1.4003,1.4251,1.4502,1.497,1.5201,1.5357,1.5445,1.5689,1.5935,1.6056,1.6083,1.6083,1.6083,1.601,1.5867,1.5607,1.5499,1.5289,1.5037,1.4983,1.4801,1.4523,1.4496,1.4428,1.4306,1.4299,1.4299,1.4299,1.4299,1.4299,1.4299,1.4299,1.4299,1.4299,1.4299,1.4299,1.4299,1.4299,1.4299,1.4299,1.4299,1.4299,1.4312,1.4441,1.4577,1.4687,1.4889,1.5085,1.516,1.5174,1.5269,1.5391,1.5404,1.5493,1.5546,1.558,1.5593,1.5676,1.5881,1.6003,1.6042,1.6076,1.6083,1.6117,1.6252,1.6191,1.6144,1.6279,1.6205,1.6144,1.6286,1.6185,1.6083,1.6083,1.6083,1.6083,1.6083,1.6083,1.6083,1.6083,1.6083,1.6083,1.6083,1.6069,1.6051,1.5915,1.5703,1.5506,1.5418,1.5269,1.5181,1.5181,1.5201,1.5208,1.5208,1.5208,1.5147,1.5018,1.503,1.4821,1.4536,1.4407,1.4414,0.0,0.0,0.0,0.0,0.0,0.0,1.5329,1.5193,1.5089,1.3358,1.3247,1.3607,1.4227,1.4509,1.4699,1.4726,1.5269,1.5771,1.6042,1.6083,1.6083,1.6083,1.6056,1.5934,1.5614,1.5499,1.5289,1.5037,1.474,1.4577,1.4516,1.4407,1.4326,1.4299,1.4299,1.4299,1.4299,1.4299,1.4299,1.4299,1.4299,1.4299,1.4299,1.4299,1.4299,1.4299,1.4299,1.4299,1.4299,1.4299,1.4299,1.4306,1.4333,1.4428,1.4577,1.4681,1.4882,1.5031,1.5147,1.5201,1.5248,1.5371,1.535,1.5316,1.5512,1.5593,1.5648,1.5961,1.5886,1.5778,1.6022,1.6083,1.609,1.6117,1.6198,1.6273,1.63,1.6286,1.6273,1.6307,1.6185,1.6083,1.6083,1.6083,1.6083,1.6083,1.6083,1.6083,1.6083,1.6083,1.6083,1.6083,1.6017,1.5935,1.5901,1.5608,1.5445,1.5411,1.5269,1.5181,1.5181,1.5303,1.5364,1.5364,1.5364,1.535,1.5323,1.5086,1.4875,1.4647,1.462,1.4626,0.0,0.0,0.0,1.885,0.0,0.0,0.0,1.717,1.6947,1.6249,1.5154,1.4547,1.5211,1.4572,1.4027,1.4258,1.4733,1.5208,1.5581,1.5825,1.6044,1.6076,1.5886,1.5689,1.554,1.5323,1.5065,1.4767,1.4529,1.4407,1.4407,1.434,1.4299,1.4299,1.4299,1.4299,1.4299,1.4299,1.4299,1.4299,1.4299,1.4299,1.4299,1.4299,1.4299,1.4299,1.4299,1.4299,1.4299,1.4299,1.4299,1.4299,1.4299,1.4387,1.4523,1.4597,1.4774,1.503,1.5098,1.512,1.5194,1.5269,1.5248,1.5208,1.5364,1.5466,1.5574,1.5798,1.5805,1.5798,1.6022,1.6083,1.6103,1.6178,1.6198,1.6218,1.6293,1.6252,1.6198,1.6198,1.6137,1.6083,1.6083,1.6083,1.6083,1.6083,1.6083,1.6083,1.6083,1.6083,1.6083,1.6083,1.6064,1.5983,1.5908,1.5649,1.5493,1.5418,1.5337,1.5296,1.5296,1.5445,1.5479,1.5479,1.5479,1.5479,1.5479,1.5303,1.5072,1.4855,1.4728,1.5406,0.0,0.0,0.0,0.0,0.0,1.9979,0.0,0.0,0.0,1.9157,1.7164,1.5635,1.6313,1.4679,1.3383,1.3715,1.4116,1.4489,1.4794,1.5296,1.569,1.5879,1.5588,1.5357,1.533,1.5031,1.474,1.4489,1.434,1.4272,1.4299,1.4299,1.4299,1.4299,1.4299,1.4299,1.4299,1.4299,1.4299,1.4299,1.4299,1.4299,1.4299,1.4299,1.4299,1.4299,1.4299,1.4299,1.4299,1.4299,1.4299,1.4299,1.4299,1.4373,1.4475,1.4502,1.4672,1.4935,1.4916,1.5018,1.514,1.514,1.516,1.5187,1.5215,1.5289,1.5411,1.5622,1.5744,1.5901,1.6085,1.6083,1.611,1.6239,1.6171,1.6117,1.6239,1.6171,1.6083,1.6083,1.6083,1.6083,1.6083,1.6083,1.6083,1.6083,1.6083,1.6083,1.6083,1.6083,1.6083,1.6083,1.6056,1.6037,1.5915,1.5723,1.5539,1.5459,1.5452,1.5452,1.5452,1.5601,1.5696,1.5723,1.5648,1.5683,1.5683,1.6,1.583,1.5052,1.4896,1.6155,0.0,0.0,0.0,0.0,2.557,0.0,0.0,0.0,2.0891,1.8558,0.0,1.5295,1.5805,0.0,0.0,1.2691,1.3376,1.3802,1.3634,1.4109,1.4679,1.5221,1.5242,1.516,1.5078,1.4631,1.436,1.4326,1.4183,1.4156,1.4292,1.4299,1.4299,1.4299,1.4299,1.4299,1.4299,1.4299,1.4299,1.4299,1.4299,1.4299,1.4299,1.4299,1.4299,1.4299,1.4299,1.4299,1.4299,1.4299,1.4299,1.4299,1.4299,1.4312,1.434,1.4468,1.4536,1.4584,1.4674,1.4869,1.5044,1.5044,1.5079,1.5208,1.5343,1.5303,1.5296,1.5758,1.575,1.573,1.6008,1.6083,1.6083,1.6103,1.6096,1.609,1.6103,1.6096,1.6083,1.6083,1.6083,1.6083,1.6083,1.6083,1.6083,1.6083,1.6083,1.6083,1.6083,1.6083,1.6083,1.6083,1.601,1.5922,1.5901,1.5723,1.5587,1.5566,1.5566,1.5566,1.5566,1.575,1.5942,1.6029,1.5949,1.5874,1.5874,1.8015,1.7787,1.5357,1.5201,1.6474,0.0,0.0,0.0,0.0,0.0,0.0,2.3789,0.0,2.299,0.0,0.0,0.0,0.0,0.0,0.0,0.0,1.4569,1.372,1.4891,1.4228,1.3933,1.4699,1.4563,1.4414,1.4493,1.4323,1.417,1.417,1.4109,1.4102,1.4163,1.4251,1.4299,1.4299,1.4299,1.4299,1.4299,1.4299,1.4299,1.4299,1.4299,1.4299,1.4299,1.4299,1.4299,1.4299,1.4299,1.4299,1.4299,1.4299,1.4299,1.4299,1.4299,1.4299,1.4319,1.4462,1.4509,1.4529,1.464,1.478,1.4855,1.4943,1.5112,1.5194,1.5255,1.5296,1.5371,1.5649,1.5744,1.5811,1.6029,1.6083,1.6083,1.6083,1.6083,1.6083,1.6083,1.6083,1.6083,1.6083,1.6083,1.6083,1.6083,1.6083,1.6083,1.6083,1.6083,1.6083,1.6083,1.6083,1.6083,1.6083,1.6103,1.6049,1.5915,1.5879,1.5825,1.56,1.7151,1.8161,1.8356,1.9938,2.0896,2.1148,2.1118,2.0972,2.0759,2.1715,2.152,2.0219,1.9873,2.1077,2.6306,0.0,0.0,0.0,0.0,0.0,0.0,0.0,0.0,0.0,0.0,0.0,0.0,0.0,0.0,0.0,0.0,1.5154,1.6647,1.556,1.449,1.4178,1.3933,1.3829,1.4109,1.4021,1.3966,1.4007,1.3933,1.3905,1.3946,1.4095,1.4197,1.4238,1.4278,1.4299,1.4299,1.4299,1.4299,1.4299,1.4299,1.4299,1.4299,1.4299,1.4299,1.4299,1.4299,1.4299,1.4299,1.4299,1.4299,1.4299,1.4299,1.4299,1.4312,1.4414,1.4475,1.4523,1.4545,1.4626,1.4728,1.4964,1.5099,1.5181,1.5181,1.5262,1.5391,1.5539,1.5716,1.5839,1.6035,1.6083,1.6083,1.6083,1.6083,1.6083,1.6083,1.6117,1.613,1.609,1.6117,1.613,1.609,1.6083,1.6083,1.6083,1.6083,1.6083,1.6083,1.6083,1.6096,1.6137,1.6934,1.7306,1.7117,1.784,1.8224,1.7882,1.9856,2.1156,2.1443,2.3374,2.4564,2.4787,2.4726,2.4564,2.4302,2.4859,2.4966,2.4684,2.3576,2.4395,0.0,0.0,0.0,2.6667,0.0,0.0,0.0,0.0,2.497,0.0,0.0,0.0,0.0,0.0,0.0,0.0,0.0,0.0,0.0,1.8347,1.6986,1.364,1.3464,1.381,1.4251,1.3899,1.366,1.3795,1.3587,1.3485,1.3592,1.3734,1.3926,1.4119,1.4224,1.4299,1.4299,1.4299,1.4299,1.4299,1.4299,1.4299,1.4299,1.4299,1.4299,1.4299,1.4299,1.4299,1.4299,1.4299,1.4299,1.4299,1.4299,1.4299,1.4299,1.4306,1.4394,1.4489,1.436,1.4502,1.4741,1.5079,1.5181,1.5181,1.5181,1.5187,1.5255,1.5506,1.5593,1.5716,1.6008,1.6083,1.6083,1.6083,1.6083,1.6083,1.6083,1.6198,1.6259,1.611,1.6198,1.6252,1.611,1.6083,1.6083,1.6083,1.6083,1.6083,1.6083,1.6083,1.6137,1.6286,1.8683,2.0216,2.005,2.2515,2.3896,2.3627,2.3964,2.4134,2.4154,2.4565,2.4777,2.4787,2.4473,2.4312,2.4302,2.658,2.7496,2.7144,2.4545,2.4603,0.0,0.0,2.7898,2.668,0.0,0.0,0.0,0.0,0.0,0.0,0.0,0.0,0.0,0.0,0.0,0.0,0.0,0.0,0.0,1.8775,1.7538,1.6727,1.4626,1.3281,1.3532,1.3417,1.3349,1.3397,1.322,1.3173,1.3322,1.3566,1.3727,1.3912,1.4068,1.4197,1.4299,1.4299,1.4299,1.4299,1.4299,1.4299,1.4299,1.4299,1.4299,1.4299,1.4299,1.4299,1.4299,1.4299,1.4299,1.4299,1.4299,1.436,1.4448,1.4512,1.4557,1.4516,1.4525,1.4726,1.4909,1.5011,1.5106,1.5201,1.5303,1.5404,1.5527,1.5723,1.5852,1.5954,1.6056,1.6083,1.6083,1.6083,1.6083,1.6083,1.6083,1.6123,1.6144,1.609,1.6123,1.6144,1.609,1.6083,1.6083,1.6083,1.6171,1.6232,1.6232,1.6313,1.6354,1.6313,1.7284,1.788,1.7667,1.8532,1.9118,1.9012,2.2394,2.4547,2.4739,2.8284,3.0329,3.0514,3.0194,2.9972,2.9799,3.0364,3.0482,3.0212,2.9292,2.9187,2.7468,2.7817,0.0,2.6988,2.6627,0.0,2.509,0.0,0.0,0.0,0.0,0.0,0.0,0.0,0.0,0.0,0.0,0.0,0.0,2.0008,1.8866,1.925,1.6087,1.4004,1.4316,1.36,1.3091,1.2942,1.2839,1.2778,1.2812,1.3166,1.3485,1.3639,1.3933,1.4143,1.4299,1.4299,1.4299,1.4299,1.4299,1.4299,1.4299,1.4299,1.4299,1.4299,1.4299,1.4299,1.4299,1.4299,1.4299,1.4299,1.4299,1.4353,1.4455,1.4559,1.4586,1.4572,1.4767,1.4889,1.5023,1.5078,1.5106,1.5201,1.5303,1.5438,1.5608,1.5915,1.6017,1.6035,1.6198,1.6157,1.6083,1.6083,1.6083,1.6083,1.6083,1.6123,1.6144,1.609,1.6123,1.6144,1.609,1.613,1.6144,1.609,1.6212,1.6307,1.6307,1.6435,1.651,1.6469,1.8356,2.0365,2.2077,2.2255,2.2232,2.2232,2.5558,2.7636,2.7856,3.1238,3.3374,3.3881,3.3293,3.3049,3.3076,3.2398,3.1957,3.1711,3.1711,3.157]},{"header":{"parameterUnit":"m.s-1","parameterCategory":1,"la1":30.6,"la2":29.2853,"lo1":-89.7004,"lo2":-87.6739,"dy":0.0162,"dx":0.0183,"nx":112,"ny":82,"refTime":"2023-09-29T18:00:00:Z","depth":0,"parameterNumber":3,"parameterNumberName":"V-component_of_WINDS"},"data":[0.0,0.0,0.0,0.0,0.0,0.0,0.0,0.0,0.0,0.0,0.0,0.0,0.0,0.0,0.0,0.0,0.0,0.0,0.0,0.0,0.0,0.0,0.0,0.0,0.0,0.0,0.0,0.0,0.0,0.0,0.0,0.0,0.0,0.0,0.0,0.0,0.0,0.0,0.0,0.0,0.0,0.0,0.0,0.0,0.0,0.0,0.0,0.0,0.0,0.0,0.0,0.0,0.0,0.0,0.0,0.0,0.0,0.0,0.0,0.0,0.0,0.0,0.0,0.0,0.0,0.0,0.0,0.0,0.0,0.0,0.0,0.0,0.0,0.0,0.0,0.0,0.0,0.0,0.0,0.0,0.0,0.0,0.0,0.0,0.0,0.0,0.0,0.0,0.0,0.0,5.0942,5.3313,5.7772,6.0652,6.0848,6.076,5.7969,5.159,0.0,0.0,0.0,0.0,0.0,0.0,0.0,0.0,0.0,0.0,0.0,0.0,0.0,0.0,0.0,0.0,0.0,0.0,0.0,0.0,0.0,0.0,0.0,0.0,0.0,0.0,0.0,0.0,0.0,0.0,0.0,0.0,0.0,0.0,0.0,0.0,0.0,0.0,0.0,0.0,0.0,0.0,0.0,0.0,0.0,0.0,0.0,0.0,0.0,0.0,0.0,0.0,0.0,0.0,0.0,0.0,0.0,0.0,0.0,0.0,0.0,0.0,0.0,0.0,0.0,0.0,0.0,0.0,0.0,0.0,0.0,0.0,0.0,0.0,0.0,0.0,0.0,0.0,0.0,0.0,0.0,0.0,0.0,0.0,0.0,0.0,0.0,0.0,0.0,0.0,0.0,0.0,0.0,0.0,0.0,0.0,0.0,0.0,0.0,0.0,0.0,0.0,0.0,0.0,4.9187,5.4725,5.7362,5.8775,5.8908,5.8261,5.5899,5.1399,0.0,0.0,0.0,0.0,0.0,0.0,0.0,0.0,0.0,0.0,0.0,0.0,0.0,0.0,0.0,0.0,0.0,0.0,0.0,0.0,0.0,0.0,0.0,0.0,0.0,0.0,0.0,0.0,0.0,0.0,0.0,0.0,0.0,0.0,0.0,0.0,0.0,0.0,0.0,0.0,0.0,0.0,0.0,0.0,0.0,0.0,0.0,0.0,0.0,0.0,0.0,0.0,0.0,0.0,0.0,0.0,0.0,0.0,0.0,0.0,0.0,0.0,0.0,0.0,0.0,0.0,0.0,0.0,0.0,0.0,0.0,0.0,0.0,0.0,0.0,0.0,0.0,0.0,0.0,0.0,0.0,0.0,0.0,0.0,0.0,0.0,0.0,0.0,0.0,0.0,0.0,0.0,0.0,0.0,0.0,0.0,0.0,0.0,0.0,0.0,0.0,0.0,0.0,4.7957,5.0128,5.4566,5.6165,5.6916,5.6971,5.6628,5.4628,5.0568,5.0248,0.0,0.0,0.0,0.0,0.0,0.0,0.0,0.0,0.0,0.0,0.0,0.0,0.0,0.0,0.0,0.0,0.0,0.0,0.0,0.0,0.0,0.0,0.0,0.0,0.0,0.0,0.0,0.0,0.0,0.0,0.0,0.0,0.0,0.0,0.0,0.0,0.0,0.0,0.0,0.0,0.0,0.0,0.0,0.0,0.0,0.0,0.0,0.0,0.0,0.0,0.0,0.0,0.0,0.0,0.0,0.0,0.0,0.0,0.0,0.0,0.0,0.0,0.0,0.0,0.0,0.0,0.0,0.0,0.0,0.0,0.0,0.0,0.0,0.0,0.0,0.0,0.0,0.0,0.0,0.0,0.0,0.0,0.0,0.0,0.0,0.0,0.0,0.0,0.0,0.0,0.0,0.0,0.0,0.0,0.0,0.0,0.0,0.0,0.0,0.0,0.0,0.0,4.9443,5.0805,5.3336,5.417,5.4516,5.4516,5.4516,5.2926,4.9184,4.8342,0.0,0.0,0.0,0.0,0.0,0.0,0.0,0.0,0.0,0.0,0.0,0.0,0.0,0.0,0.0,0.0,0.0,0.0,0.0,0.0,0.0,0.0,0.0,0.0,0.0,0.0,0.0,0.0,0.0,0.0,0.0,0.0,0.0,0.0,0.0,0.0,0.0,0.0,0.0,0.0,0.0,0.0,0.0,0.0,0.0,0.0,0.0,0.0,0.0,0.0,0.0,0.0,0.0,0.0,0.0,0.0,0.0,0.0,0.0,0.0,0.0,0.0,0.0,0.0,0.0,0.0,0.0,0.0,0.0,0.0,0.0,0.0,0.0,0.0,0.0,0.0,0.0,0.0,0.0,0.0,0.0,0.0,0.0,0.0,0.0,0.0,0.0,0.0,0.0,0.0,0.0,0.0,0.0,0.0,0.0,0.0,0.0,0.0,0.0,0.0,0.0,0.0,4.7368,4.9493,5.0836,5.1015,5.1053,5.1053,5.1053,4.9904,4.7258,4.7079,0.0,0.0,0.0,0.0,0.0,0.0,0.0,0.0,0.0,0.0,0.0,0.0,0.0,0.0,0.0,0.0,0.0,0.0,0.0,0.0,0.0,0.0,0.0,0.0,0.0,0.0,0.0,0.0,0.0,0.0,0.0,0.0,0.0,0.0,0.0,0.0,0.0,0.0,0.0,0.0,0.0,0.0,0.0,0.0,0.0,0.0,0.0,0.0,0.0,0.0,0.0,0.0,0.0,0.0,0.0,0.0,0.0,0.0,0.0,0.0,0.0,0.0,0.0,0.0,0.0,0.0,0.0,0.0,0.0,0.0,0.0,0.0,0.0,0.0,0.0,0.0,0.0,0.0,0.0,0.0,0.0,0.0,0.0,0.0,0.0,0.0,0.0,0.0,0.0,0.0,0.0,0.0,0.0,0.0,0.0,0.0,0.0,0.0,0.0,0.0,0.0,0.0,4.5679,4.7524,4.8928,4.9086,4.9086,4.9086,4.9591,4.9048,4.7043,0.0,0.0,0.0,0.0,0.0,0.0,0.0,0.0,0.0,0.0,0.0,0.0,0.0,0.0,0.0,0.0,0.0,0.0,0.0,0.0,0.0,0.0,0.0,0.0,0.0,0.0,0.0,0.0,0.0,0.0,0.0,0.0,0.0,0.0,0.0,0.0,0.0,0.0,0.0,0.0,0.0,0.0,0.0,0.0,0.0,0.0,0.0,0.0,0.0,0.0,0.0,0.0,0.0,0.0,0.0,0.0,0.0,0.0,0.0,0.0,0.0,0.0,0.0,0.0,0.0,0.0,0.0,0.0,0.0,0.0,0.0,0.0,0.0,0.0,0.0,0.0,0.0,0.0,0.0,0.0,0.0,0.0,0.0,0.0,0.0,0.0,0.0,0.0,0.0,0.0,0.0,0.0,0.0,0.0,0.0,0.0,0.0,0.0,0.0,0.0,0.0,0.0,4.2857,4.4505,4.6004,4.7198,4.7317,4.7317,4.7317,4.7855,4.7702,4.6547,0.0,0.0,0.0,0.0,0.0,0.0,0.0,0.0,0.0,0.0,0.0,0.0,0.0,0.0,0.0,0.0,0.0,0.0,0.0,0.0,0.0,0.0,0.0,0.0,0.0,0.0,0.0,0.0,0.0,0.0,0.0,0.0,0.0,0.0,0.0,0.0,0.0,0.0,0.0,0.0,0.0,0.0,0.0,0.0,0.0,0.0,0.0,0.0,0.0,0.0,0.0,0.0,0.0,0.0,0.0,0.0,0.0,0.0,0.0,0.0,0.0,0.0,0.0,0.0,0.0,0.0,0.0,0.0,0.0,0.0,0.0,0.0,0.0,0.0,0.0,0.0,0.0,0.0,0.0,0.0,0.0,0.0,0.0,0.0,0.0,0.0,0.0,0.0,0.0,0.0,0.0,0.0,0.0,0.0,0.0,0.0,0.0,0.0,0.0,0.0,0.0,0.0,4.2064,4.3838,4.5217,4.5559,4.5586,4.559,4.559,4.559,4.5594,0.0,0.0,0.0,0.0,0.0,0.0,0.0,0.0,0.0,0.0,0.0,0.0,0.0,0.0,0.0,0.0,0.0,0.0,0.0,0.0,0.0,0.0,0.0,0.0,0.0,0.0,0.0,0.0,0.0,0.0,0.0,0.0,0.0,0.0,0.0,0.0,0.0,0.0,0.0,0.0,0.0,0.0,0.0,0.0,0.0,0.0,0.0,0.0,0.0,0.0,0.0,0.0,0.0,0.0,0.0,0.0,0.0,0.0,0.0,0.0,0.0,0.0,0.0,0.0,0.0,0.0,0.0,0.0,0.0,0.0,0.0,0.0,0.0,0.0,0.0,0.0,0.0,0.0,0.0,0.0,0.0,0.0,0.0,0.0,0.0,0.0,0.0,0.0,0.0,0.0,0.0,0.0,0.0,0.0,0.0,0.0,0.0,0.0,0.0,0.0,0.0,0.0,0.0,4.1693,4.3277,4.4482,4.4866,4.5126,4.5243,4.5243,4.5452,4.5594,4.5594,0.0,0.0,0.0,0.0,0.0,0.0,0.0,0.0,0.0,0.0,0.0,0.0,0.0,0.0,0.0,0.0,0.0,0.0,0.0,0.0,0.0,0.0,0.0,0.0,0.0,0.0,0.0,0.0,0.0,0.0,0.0,0.0,0.0,0.0,0.0,0.0,0.0,0.0,0.0,0.0,0.0,0.0,0.0,0.0,0.0,0.0,0.0,0.0,0.0,0.0,0.0,0.0,0.0,0.0,0.0,0.0,0.0,0.0,0.0,0.0,0.0,0.0,0.0,0.0,0.0,0.0,0.0,0.0,0.0,0.0,0.0,0.0,0.0,0.0,0.0,0.0,0.0,0.0,0.0,0.0,0.0,0.0,0.0,0.0,0.0,0.0,0.0,0.0,0.0,0.0,0.0,0.0,0.0,0.0,0.0,0.0,0.0,0.0,0.0,0.0,0.0,0.0,4.1576,4.3144,4.4325,4.4585,4.4788,4.4948,4.5105,4.5273,4.5448,4.5586,0.0,0.0,0.0,0.0,0.0,0.0,0.0,0.0,0.0,0.0,0.0,0.0,0.0,0.0,0.0,0.0,0.0,0.0,0.0,0.0,0.0,0.0,0.0,0.0,0.0,0.0,0.0,0.0,0.0,0.0,0.0,0.0,0.0,0.0,0.0,0.0,0.0,0.0,0.0,0.0,0.0,0.0,0.0,0.0,0.0,0.0,0.0,0.0,0.0,0.0,0.0,0.0,0.0,0.0,0.0,0.0,0.0,0.0,0.0,0.0,0.0,0.0,0.0,0.0,0.0,0.0,0.0,0.0,0.0,0.0,0.0,0.0,0.0,0.0,0.0,0.0,0.0,0.0,0.0,0.0,0.0,0.0,0.0,0.0,0.0,0.0,0.0,0.0,0.0,0.0,0.0,0.0,0.0,0.0,0.0,0.0,0.0,0.0,0.0,0.0,0.0,0.0,4.1666,4.3308,4.4513,4.4513,4.4539,4.4695,4.5011,4.5061,4.5237,4.5577,0.0,0.0,0.0,0.0,0.0,0.0,0.0,0.0,0.0,0.0,0.0,0.0,0.0,0.0,0.0,0.0,0.0,0.0,0.0,0.0,0.0,0.0,0.0,0.0,0.0,0.0,0.0,0.0,0.0,0.0,0.0,0.0,0.0,0.0,0.0,0.0,0.0,0.0,0.0,0.0,0.0,0.0,0.0,0.0,0.0,0.0,0.0,0.0,0.0,0.0,0.0,0.0,0.0,0.0,0.0,0.0,0.0,0.0,0.0,0.0,5.3592,5.173,0.0,0.0,0.0,0.0,0.0,0.0,0.0,0.0,0.0,0.0,0.0,0.0,0.0,0.0,0.0,0.0,0.0,0.0,0.0,0.0,0.0,0.0,0.0,0.0,0.0,0.0,0.0,0.0,0.0,0.0,0.0,0.0,0.0,0.0,0.0,0.0,0.0,0.0,0.0,0.0,4.2059,4.307,4.3718,4.3718,4.3974,4.4283,4.4688,4.4943,4.5237,4.5577,4.5594,0.0,0.0,0.0,0.0,0.0,0.0,0.0,0.0,0.0,0.0,0.0,0.0,0.0,0.0,0.0,0.0,0.0,0.0,0.0,0.0,0.0,0.0,0.0,0.0,0.0,0.0,0.0,0.0,0.0,0.0,0.0,0.0,0.0,0.0,0.0,0.0,0.0,0.0,0.0,0.0,0.0,0.0,0.0,0.0,0.0,0.0,0.0,0.0,0.0,0.0,0.0,0.0,0.0,0.0,0.0,0.0,0.0,0.0,0.0,5.84,5.6381,0.0,0.0,0.0,0.0,0.0,0.0,0.0,0.0,0.0,0.0,0.0,0.0,0.0,0.0,0.0,0.0,0.0,0.0,0.0,0.0,0.0,0.0,0.0,0.0,0.0,0.0,0.0,0.0,0.0,0.0,0.0,0.0,0.0,0.0,0.0,0.0,0.0,0.0,0.0,0.0,4.2249,4.3139,4.3742,4.3742,4.4087,4.4435,4.4818,4.4988,4.5237,4.5577,4.5594,0.0,0.0,0.0,0.0,0.0,0.0,0.0,0.0,0.0,0.0,0.0,0.0,0.0,0.0,0.0,0.0,0.0,0.0,0.0,0.0,0.0,0.0,0.0,0.0,0.0,0.0,0.0,0.0,0.0,0.0,0.0,0.0,0.0,0.0,0.0,0.0,0.0,0.0,0.0,0.0,0.0,0.0,0.0,0.0,0.0,0.0,0.0,0.0,0.0,0.0,0.0,0.0,0.0,6.5301,6.6182,6.6536,6.5999,6.6145,6.6646,6.4604,6.2622,6.0664,5.8499,0.0,0.0,0.0,0.0,0.0,0.0,0.0,0.0,0.0,0.0,0.0,0.0,0.0,0.0,0.0,0.0,0.0,0.0,0.0,0.0,0.0,0.0,5.1555,5.2536,5.3124,5.2525,4.9112,0.0,0.0,0.0,0.0,0.0,0.0,0.0,0.0,0.0,0.0,0.0,4.2656,4.3526,4.4095,4.4095,4.4394,4.4745,4.505,4.5115,4.5237,4.5577,4.5594,4.5594,0.0,0.0,0.0,0.0,0.0,0.0,0.0,0.0,0.0,0.0,0.0,0.0,0.0,0.0,0.0,0.0,0.0,0.0,0.0,0.0,0.0,0.0,0.0,0.0,0.0,0.0,0.0,0.0,0.0,0.0,0.0,0.0,5.4997,5.5893,0.0,0.0,0.0,0.0,0.0,0.0,0.0,0.0,0.0,0.0,0.0,0.0,0.0,6.1826,6.3295,6.7076,6.8678,6.8151,7.1747,7.2775,7.1578,7.2165,7.251,7.2569,7.2253,0.0,6.2389,6.1374,0.0,0.0,0.0,0.0,0.0,0.0,0.0,0.0,0.0,0.0,0.0,0.0,0.0,0.0,0.0,0.0,0.0,0.0,0.0,0.0,0.0,0.0,5.6132,5.628,5.6379,5.5885,5.3964,5.0817,4.8026,4.6787,4.5535,4.4247,0.0,0.0,0.0,0.0,0.0,0.0,4.4168,4.4437,4.4502,4.4502,4.4579,4.4745,4.505,4.5115,4.5237,4.5577,4.5594,4.5594,4.5594,4.5594,0.0,0.0,0.0,0.0,0.0,0.0,0.0,0.0,0.0,0.0,0.0,0.0,0.0,0.0,0.0,0.0,0.0,0.0,0.0,0.0,0.0,0.0,0.0,0.0,0.0,0.0,0.0,0.0,0.0,5.4116,5.6565,5.5574,5.6014,5.5721,0.0,0.0,0.0,0.0,0.0,0.0,0.0,0.0,0.0,6.4433,6.5264,6.6476,6.8128,7.077,7.2165,7.2298,7.4515,7.5417,7.5197,7.5102,7.5065,7.5065,7.5065,7.2899,6.9185,6.6267,6.3405,6.0675,0.0,0.0,0.0,0.0,5.828,5.8032,5.9912,5.9452,5.8021,5.7808,0.0,0.0,0.0,0.0,0.0,0.0,0.0,5.1819,5.3626,5.5562,5.7247,5.8171,5.8401,5.8088,5.6896,5.4455,5.1628,4.8688,4.751,4.6493,4.476,4.3827,0.0,0.0,0.0,4.3987,4.4517,4.477,4.4884,4.4884,4.5039,4.5227,4.5381,4.539,4.5438,4.5586,4.5594,4.5594,4.5594,4.5594,4.5594,0.0,0.0,0.0,0.0,0.0,0.0,0.0,0.0,0.0,0.0,0.0,0.0,0.0,0.0,0.0,0.0,0.0,0.0,0.0,0.0,0.0,0.0,0.0,0.0,0.0,0.0,0.0,0.0,5.6381,5.8742,5.6492,5.8914,5.9428,0.0,0.0,0.0,0.0,0.0,0.0,6.3943,6.4861,6.6439,6.8839,6.9706,7.0917,7.2518,7.3927,7.4918,7.5527,7.6114,7.6823,7.7518,7.6943,7.6728,7.6878,7.6878,7.6233,7.4823,7.0802,6.7824,6.5566,6.3504,6.2333,6.1971,6.3526,6.3331,6.2555,6.4871,6.4578,6.3023,6.2004,5.9676,5.6767,5.4143,0.0,0.0,0.0,0.0,5.3386,5.5689,5.6798,5.7709,5.9165,5.9358,5.8973,5.8127,5.678,5.4496,5.0451,4.9493,4.8709,4.6632,4.5578,0.0,4.5319,4.5161,4.5079,4.5196,4.5404,4.5495,4.5265,4.5635,4.5936,4.5936,4.6129,4.6244,4.6244,4.6244,4.6167,4.5936,4.5936,4.5821,4.5594,0.0,0.0,0.0,0.0,0.0,0.0,0.0,0.0,0.0,0.0,0.0,0.0,0.0,0.0,0.0,0.0,0.0,0.0,0.0,0.0,0.0,0.0,0.0,0.0,0.0,0.0,0.0,0.0,0.0,6.1459,6.5448,0.0,0.0,0.0,0.0,6.3662,6.4494,6.5705,6.737,6.8238,6.9779,7.2165,7.3046,7.4221,7.5836,7.6702,7.7142,7.7179,7.7215,7.7585,7.8255,7.8218,7.8513,7.9029,7.9029,7.8099,7.6418,7.4087,7.2047,7.0128,6.7732,6.6721,6.6626,6.6437,6.623,6.6185,6.681,6.5917,6.4648,6.5378,6.2763,5.9027,5.7291,5.5594,0.0,0.0,5.6066,5.7115,5.884,5.8769,5.8434,5.9319,5.8934,5.8127,5.7247,5.6362,5.4934,5.2259,5.1144,4.9959,4.7886,0.0,4.6483,4.7333,4.6755,4.6347,4.6748,4.6785,4.6491,4.5649,4.6346,4.6812,4.6812,4.7543,4.7966,4.7966,4.7966,4.762,4.6851,4.6812,4.6432,4.5633,4.5594,0.0,0.0,0.0,0.0,0.0,0.0,0.0,0.0,0.0,0.0,0.0,0.0,0.0,0.0,0.0,0.0,0.0,0.0,0.0,0.0,0.0,0.0,0.0,0.0,0.0,0.0,0.0,0.0,6.42,6.782,0.0,6.5521,6.5925,6.6636,6.7136,6.8898,7.066,7.2239,7.3083,7.4184,7.5564,7.5858,7.6479,7.7501,7.7797,7.8146,7.8538,7.8538,7.8666,7.8902,7.8902,7.8986,7.9198,7.9198,7.8782,7.8038,7.7255,7.476,7.133,7.026,6.916,6.8235,6.9023,6.8618,6.7781,6.8512,6.7667,6.5904,6.4057,6.1672,5.9281,5.8165,5.7434,5.7126,5.7934,5.8357,5.8896,6.005,5.9704,5.9127,5.9435,5.8896,5.805,5.717,5.6747,5.5939,5.3972,5.2015,5.0298,4.8974,4.8033,4.7572,4.7879,4.7649,4.7525,4.7649,4.7658,4.7543,4.724,4.7509,4.7658,4.7658,4.7928,4.8082,4.8082,4.762,4.7197,4.6928,4.6355,4.5936,4.5594,4.5594,4.5594,0.0,0.0,0.0,0.0,0.0,0.0,0.0,0.0,0.0,0.0,0.0,0.0,0.0,0.0,0.0,0.0,0.0,0.0,0.0,0.0,0.0,0.0,0.0,0.0,0.0,6.4751,6.8017,6.6646,7.0536,7.2151,6.9229,7.0146,7.1284,7.2129,7.367,7.5028,7.6078,7.6644,7.7169,7.7607,7.7659,7.796,7.8576,7.8589,7.8816,7.9198,7.9198,7.9313,7.9502,7.9502,7.961,7.9827,7.9827,7.9609,7.9192,7.8886,7.6575,7.3183,7.3009,7.2084,7.0883,7.1538,7.0898,6.9667,6.9706,6.8552,6.6635,6.3865,6.1973,6.0583,5.9473,5.9127,5.9242,5.9781,5.9935,6.0089,6.0666,6.0165,5.9511,5.9511,5.8896,5.8127,5.7555,5.7209,5.6593,5.517,5.3092,5.1279,5.0394,4.9317,4.874,4.9312,4.9163,4.8971,4.8971,4.8971,4.874,4.8159,4.8355,4.8548,4.8548,4.8817,4.8856,4.8548,4.8048,4.7505,4.6928,4.6355,4.5898,4.5594,4.5594,4.5594,4.5594,0.0,0.0,0.0,0.0,0.0,0.0,0.0,0.0,0.0,0.0,0.0,0.0,0.0,0.0,0.0,0.0,0.0,0.0,0.0,0.0,0.0,0.0,0.0,6.3358,6.724,7.0046,6.9297,7.4111,7.6536,7.4199,7.6095,7.7806,7.8667,7.8703,7.8703,7.8703,7.8703,7.8625,7.8397,7.841,7.8677,7.9271,7.9271,7.9282,7.9267,7.9267,7.9556,8.0144,8.0144,8.0481,8.1093,8.1093,8.0592,7.9746,7.89,7.7561,7.6053,7.5976,7.5399,7.4546,7.3738,7.2899,7.1867,7.0206,6.8513,6.6789,6.5089,6.3968,6.2968,6.132,6.0825,6.0825,6.0819,6.0825,6.0787,6.0787,6.0165,5.9511,5.9511,5.8896,5.8313,5.8313,5.7627,5.6786,5.5939,5.4434,5.3044,5.2115,5.0582,5.0087,5.1697,5.1279,0.0,5.0784,5.0784,5.013,4.8428,4.9009,4.951,4.9471,5.0245,5.0361,4.9471,4.9356,4.8625,4.6966,4.6889,4.6471,4.5667,4.5676,4.568,4.568,0.0,0.0,0.0,0.0,0.0,0.0,0.0,0.0,0.0,0.0,0.0,0.0,0.0,0.0,0.0,0.0,0.0,0.0,0.0,0.0,0.0,6.6257,6.9343,6.9397,7.2609,7.5326,7.6327,7.8841,8.0492,8.0455,8.0454,8.0854,8.1705,8.1192,8.0841,8.0841,8.0841,8.0818,8.078,8.078,8.0778,8.0791,8.0791,8.0715,8.0573,8.0573,8.0643,8.0838,8.0838,8.0943,8.1093,8.1093,8.0592,7.9777,7.9554,7.8438,7.6823,7.5553,7.4168,7.286,7.2629,7.1629,7.0129,6.8398,6.7135,6.5942,6.4205,6.3089,6.2326,6.1864,6.1287,6.0941,6.1556,6.1287,6.0787,6.0787,6.0165,5.9511,5.9511,5.8896,5.8313,5.8313,5.8127,5.7857,5.7627,5.6703,5.5285,5.3197,5.2467,5.2313,5.2774,5.2664,0.0,5.251,5.251,5.2318,5.1851,5.2005,5.189,5.1274,5.1428,5.0971,4.9471,4.8817,4.8005,4.6928,4.6278,4.6124,4.6547,4.7217,4.7568,0.0,0.0,0.0,0.0,0.0,0.0,0.0,0.0,0.0,0.0,0.0,0.0,0.0,0.0,0.0,0.0,0.0,0.0,0.0,0.0,0.0,0.0,7.123,7.4615,7.6531,7.7421,7.8561,8.0566,8.1672,8.2579,8.3409,8.3032,8.2944,8.3473,8.3045,8.2743,8.2767,8.2767,8.2886,8.3175,8.2807,8.2686,8.2852,8.2125,8.173,8.1593,8.1246,8.1093,8.1093,8.1093,8.1093,8.1093,8.1093,8.0823,8.0323,7.9931,7.9246,7.813,0.0,0.0,0.0,0.0,7.1129,6.9552,6.8552,6.7398,6.6173,6.482,6.382,6.3095,6.2704,6.2243,6.1935,6.2474,6.2018,6.1325,6.1325,6.071,6.005,6.005,5.9704,5.9358,5.9358,5.905,5.8819,5.8819,5.8127,0.0,5.5588,5.4434,5.3857,5.4203,5.3972,5.3741,5.3741,5.3741,5.3587,5.3236,5.3197,5.3005,5.2505,5.212,0.0,0.0,0.0,4.8279,4.7428,4.6932,0.0,0.0,0.0,4.8855,4.8929,4.9367,0.0,0.0,4.9073,4.9145,0.0,0.0,0.0,0.0,0.0,0.0,0.0,0.0,0.0,0.0,0.0,0.0,0.0,0.0,0.0,0.0,7.7,8.0215,8.3447,8.1756,8.101,8.3145,8.3547,8.3975,8.476,8.4746,8.4746,8.485,8.4748,8.4696,8.472,8.472,0.0,0.0,0.0,8.4614,8.5047,8.3516,8.2631,8.2439,8.1631,8.1246,8.1246,8.1131,8.1093,8.1093,8.1093,8.1093,8.1054,8.0285,7.9892,7.9546,7.6976,7.5476,7.4507,7.2822,7.1245,6.9937,6.9783,0.0,0.0,6.6211,6.532,6.4474,6.366,6.3391,6.3314,6.3314,6.2781,6.221,6.2133,6.1595,6.105,6.0979,6.0941,6.0941,6.0825,6.0204,5.9665,5.9665,5.9088,5.8583,5.8583,5.6549,5.5164,5.5901,5.5395,5.4895,5.478,5.478,5.4434,5.3587,0.0,0.0,5.3351,5.2659,5.1813,5.0899,5.0014,4.9216,4.8435,4.8517,4.8629,4.8761,4.965,5.0126,5.0248,5.1035,5.1902,5.2703,5.0839,5.0141,0.0,0.0,0.0,0.0,0.0,0.0,0.0,0.0,0.0,0.0,0.0,0.0,0.0,0.0,0.0,7.5273,7.9561,8.3332,8.5324,8.5727,8.6005,8.6456,8.7147,8.7923,8.871,8.8221,8.8106,8.8739,8.8212,8.7837,8.7837,8.7837,8.7883,8.8011,8.7858,8.7171,8.5893,8.5517,8.467,8.3332,8.2477,0.0,8.2054,8.14,8.1093,8.1093,8.1093,8.1093,8.1093,8.0939,8.0439,7.9546,7.6976,7.5476,7.4507,7.2822,7.1982,7.1521,7.0167,6.9007,6.7898,6.6397,6.532,6.4589,6.4397,6.3852,0.0,6.3314,6.3198,6.2935,6.2287,6.2474,6.2666,6.2018,6.1864,6.1672,6.0941,6.0671,6.055,6.055,6.0435,6.0319,6.0319,5.8781,5.7627,5.778,5.7665,5.7319,5.6593,5.6516,5.617,5.5324,5.5203,5.4934,5.4318,5.4087,5.3318,5.1774,5.0894,5.042,5.0345,5.0968,5.1414,5.159,5.2536,5.301,5.3025,5.3303,5.355,5.367,5.1802,5.1766,0.0,0.0,0.0,0.0,0.0,0.0,0.0,0.0,0.0,0.0,0.0,6.8632,7.1383,0.0,7.7345,8.0531,8.3555,8.6094,8.7786,8.8393,8.8517,8.8094,8.8786,8.9286,8.9286,8.9671,8.9787,8.9325,8.971,8.994,8.994,8.994,9.0325,9.118,9.0402,8.9517,8.8671,8.7825,8.6555,8.4824,8.4016,8.3362,8.2901,8.2093,8.1708,8.167,8.1285,8.1093,8.1093,8.1093,8.0592,7.9662,7.84,7.6861,7.5207,7.3937,7.3206,7.2668,7.1398,7.0398,6.9436,6.8205,6.7205,6.6436,6.5974,6.5551,6.5128,6.4705,6.4282,6.3852,6.3474,6.332,6.3198,6.2781,6.2403,6.1979,6.1556,6.1095,6.0787,6.0787,6.0787,6.0787,6.0787,6.0127,5.9396,5.8973,5.855,5.8127,5.7703,5.7665,5.7473,5.7049,5.7011,5.6665,5.5824,5.4977,5.3933,5.262,5.2255,5.2073,5.2147,5.2589,5.2944,5.3106,5.4003,5.4461,5.4559,5.4608,5.4883,5.5273,5.3901,5.3745,0.0,0.0,0.0,0.0,0.0,0.0,0.0,6.5942,6.7321,7.0045,7.1315,7.3283,7.7715,7.9331,8.1362,8.567,8.7209,8.844,8.9932,9.0316,9.021,8.9718,9.0094,9.0171,8.9487,9.0787,9.1133,8.9757,9.0902,9.171,9.171,9.171,9.2287,9.3672,9.2402,9.1518,9.121,8.9863,8.8209,8.6324,8.5517,8.467,8.3832,8.2939,8.2439,8.2247,8.1439,8.1093,8.1093,8.1093,8.0708,8.0046,7.9854,7.8554,7.6592,7.5399,7.4546,7.3853,7.2822,7.1783,7.0783,7.0129,6.9237,6.8276,6.7552,6.725,6.6942,6.6134,6.5397,6.482,6.4628,6.4199,6.3775,6.3583,6.3051,6.2518,6.2172,6.1556,6.1018,6.0819,6.0787,6.0787,6.0787,6.0787,6.0556,5.9858,5.9204,5.8704,5.855,5.8544,5.8467,5.8313,5.8313,5.8011,5.7324,5.5862,5.469,5.4009,5.3937,5.392,5.3997,5.4085,5.4192,5.4345,5.501,5.5456,5.5547,5.5547,5.5898,5.6562,5.5898,5.5547,6.2305,6.1882,6.3271,6.7569,6.7698,6.848,0.0,7.5053,7.4507,7.7854,7.9208,8.0439,8.2524,8.417,8.5709,8.7055,8.8594,8.997,9.0932,9.171,9.2441,9.3056,9.2595,9.2172,9.2095,9.2903,9.3326,9.3133,9.3287,9.3403,9.3403,9.3403,9.3518,9.3672,9.3518,9.271,9.121,9.1018,8.971,8.7248,8.6363,8.5555,8.4747,8.3862,8.3024,8.2247,8.1439,8.1093,8.1093,8.1093,8.1054,8.09,8.0085,7.9623,7.9085,7.6707,7.5784,7.5476,7.3892,7.2283,7.0898,7.0783,6.9699,6.8391,6.8276,6.7705,6.6942,6.6134,6.582,6.559,6.4782,6.5089,6.5397,6.4628,6.4397,6.3897,6.2403,6.2018,6.171,6.0941,6.0787,6.0787,6.0787,6.0787,6.0787,6.0671,6.0594,6.0242,5.9473,5.9358,5.9088,5.8396,5.8313,5.8275,5.8165,5.7286,5.6737,5.676,5.6024,5.5767,5.6046,5.6062,5.6139,5.6288,5.6367,5.6445,5.6445,5.6445,5.6484,5.6601,5.6484,5.6445,6.802,6.7596,6.7866,7.0514,7.2444,7.4329,7.6561,7.7361,7.8477,8.14,8.2708,8.3978,8.6179,8.7517,8.8739,9.0133,9.1364,9.2249,9.2595,9.2979,9.3133,9.3018,9.3566,9.3758,9.3249,9.395,9.4258,9.3749,9.4634,9.498,9.4489,9.445,9.4672,9.5211,9.4711,9.3864,9.2672,9.2633,9.1364,8.8863,8.847,8.7624,8.6324,8.544,8.4055,8.2285,8.1939,8.1516,8.1093,8.1093,8.1093,8.1039,8.0256,7.9983,7.9693,7.7564,7.6746,7.6515,7.4776,7.3699,7.3014,7.2584,7.1591,7.0514,7.0014,6.9283,6.8321,6.6981,6.6596,6.6404,6.5551,6.5628,6.582,6.5436,6.4974,6.4397,6.3705,6.2787,6.2032,6.1734,6.1262,6.0969,6.1066,6.1091,6.1246,6.1758,6.1237,6.0671,6.0281,6.032,6.0282,6.0071,5.9587,5.9281,5.9281,5.8475,5.8008,5.8082,5.7784,5.7483,5.7169,5.7244,5.7066,5.6601,5.6601,5.6601,5.6601,5.6601,5.6328,5.5859,5.5859,5.5859,7.0405,7.086,7.1321,7.3137,7.6253,7.8784,7.8515,7.99,8.1862,8.417,8.5132,8.6363,8.8902,8.9863,9.0816,9.2556,9.3326,9.3787,9.4027,9.3835,9.3557,9.321,9.4066,9.4489,9.4104,9.4835,9.5104,9.4441,9.5595,9.6019,9.5412,9.5374,9.5634,9.6288,9.5672,9.4835,9.371,9.3941,9.2672,8.9893,9.0124,8.9402,8.7718,8.6677,8.498,8.2803,8.2578,8.2037,8.1258,8.1258,8.1258,8.1207,8.0738,8.0549,8.0334,7.8733,7.7866,7.7241,7.5735,7.5079,7.4731,7.3914,7.307,7.2188,7.1332,7.0483,6.9562,6.8293,6.7796,6.741,6.6593,6.64,6.6323,6.6085,6.5539,6.5043,6.4811,6.3773,6.2829,6.2452,6.2063,6.1686,6.1346,6.1481,6.1795,6.2187,6.1487,6.1026,6.1262,6.1186,6.1147,6.1274,6.0747,6.0364,6.0364,5.9552,5.9065,5.9099,5.8978,5.8666,5.8135,5.82,5.7851,5.6992,5.6953,5.6836,5.6601,5.6601,5.6289,5.5664,5.5664,5.5547,6.7019,6.9052,7.1898,7.6099,7.8477,8.0623,8.3893,8.47,8.5247,8.694,8.7325,8.8094,9.0671,9.1133,9.171,9.3403,9.3672,9.398,9.4835,9.422,9.398,9.4835,9.422,9.4057,9.4874,9.5749,9.6249,9.6211,9.6288,9.6288,9.6249,9.6249,9.6288,9.6288,9.6288,9.5441,9.371,9.4527,9.3249,8.9893,9.074,9.0287,8.8611,8.7153,8.5619,8.4111,8.3302,8.2489,8.1664,8.1664,8.1664,8.1664,8.1672,8.1637,8.1559,8.0622,7.9252,7.7684,7.6836,7.5984,7.5132,7.4268,7.3455,7.2603,7.174,7.0887,7.0158,7.0119,6.95,6.8647,6.7862,6.7665,6.7431,6.6607,6.6371,6.6102,6.5288,6.5058,6.4513,6.2921,6.3199,6.3202,6.1598,6.1993,6.2265,6.1442,6.1316,6.1586,6.2448,6.1825,6.128,6.1286,6.1286,6.1247,6.1247,6.0478,6.0032,6.0166,5.9357,5.8997,5.914,5.914,5.875,5.789,5.7851,5.7422,5.6601,5.6601,5.6601,5.6562,5.6562,5.6094,6.9789,7.279,7.5907,7.9054,8.1939,8.4286,8.5431,8.6594,8.7709,8.8816,8.7709,8.7132,8.9171,8.9556,9.0094,9.1787,9.3441,9.4874,9.5749,9.5595,9.5095,9.4258,9.4903,9.5095,9.422,9.4951,9.5672,9.6249,9.6788,9.6865,9.6326,9.6826,9.6865,9.6326,9.6288,9.5825,9.4852,9.5123,9.4209,9.2082,9.1222,9.0208,8.9044,8.802,8.663,8.5031,8.4174,8.3318,8.2509,8.196,8.1684,8.1656,8.1229,8.1031,8.0963,8.022,7.9576,7.8897,7.7838,7.6897,7.6119,7.5804,7.5146,7.4293,7.343,7.2578,7.1689,7.0522,6.998,6.9555,6.8738,6.8504,6.8426,6.8112,6.8073,6.7839,6.698,6.636,6.5651,6.4604,6.4191,6.3863,6.3365,6.3529,6.3411,6.2552,6.1794,6.144,6.1839,6.1614,6.1481,6.1571,6.1575,6.1575,6.1575,6.1303,6.1153,6.1204,6.0931,6.0544,6.0039,6.0,5.9336,5.793,5.789,5.7461,5.6601,5.6601,5.6289,5.5742,5.5742,5.5586,7.329,7.6284,7.8938,8.2093,8.4747,8.6709,8.7325,8.8325,8.9171,8.944,8.7671,8.6363,8.7171,8.7325,8.7786,8.9171,9.1248,9.3272,9.4822,9.4809,9.4557,9.4442,9.5431,9.5779,9.4974,9.5392,9.5911,9.636,9.7161,9.7306,9.6607,9.7349,9.7426,9.6576,9.6537,9.6198,9.5497,9.5807,9.5329,9.4063,9.2355,9.0953,8.9887,8.903,8.7585,8.5687,8.4827,8.3971,8.3155,8.2255,8.1904,8.1872,8.1433,8.1256,8.1222,8.0779,8.0429,7.996,7.8602,7.7733,7.7185,7.6559,7.5976,7.5352,7.4492,7.3831,7.3131,7.1692,7.1302,7.1029,6.9861,6.9549,6.9471,6.9157,6.9118,6.8962,6.8453,6.7675,6.6796,6.6021,6.5444,6.4946,6.4375,6.4297,6.4101,6.3555,6.2859,6.219,6.1651,6.1577,6.1588,6.1679,6.1719,6.1719,6.1719,6.1719,6.1719,6.1719,6.1719,6.1445,6.0898,6.0859,6.0195,5.8828,5.8515,5.793,5.707,5.6758,5.6328,5.5742,5.5742,5.5742,7.7022,7.9323,8.1085,8.517,8.6863,8.794,8.9547,8.9893,8.9671,8.8812,8.7166,8.5588,8.4757,8.4727,8.5073,8.592,8.7707,8.9941,9.2709,9.2419,9.293,9.5515,9.5945,9.6261,9.6991,9.7108,9.7046,9.6792,9.7534,9.7741,9.7154,9.7951,9.799,9.709,9.709,9.6632,9.5789,9.6577,9.6542,9.5733,9.4024,9.2483,9.1054,9.0116,8.8483,8.6289,8.5312,8.4414,8.3594,8.2695,8.2304,8.2304,8.2304,8.2304,8.2304,8.2304,8.1797,8.082,7.9219,7.8555,7.8242,7.6562,7.6015,7.5781,7.4922,7.4687,7.4492,7.3594,7.3359,7.3008,7.1328,7.0859,7.0625,6.9805,6.9609,6.9609,6.957,6.8906,6.8086,6.7187,6.7031,6.6484,6.4805,6.4492,6.4453,6.4375,6.4375,6.375,6.1992,6.1758,6.1758,6.1719,6.1719,6.1719,6.1719,6.1719,6.1719,6.1719,6.1719,6.1719,6.1719,6.1719,6.1289,6.0351,5.9609,5.875,5.7812,5.6992,5.6601,5.6601,5.6601,5.6601,7.8707,8.1939,8.4901,8.6632,8.8171,8.9355,8.9816,8.9893,8.9517,8.821,8.5053,8.2148,8.0826,8.2169,8.397,8.5411,8.977,9.3886,9.6525,9.6735,9.6843,9.7532,9.8241,9.8475,9.8008,9.8548,9.8986,9.9045,9.9132,9.9088,9.8967,9.9707,9.9473,9.8028,9.7951,9.7644,9.6968,9.6743,9.6538,9.6266,9.4548,9.3188,9.2143,9.0619,8.9255,8.7929,8.582,8.4765,8.4453,8.2929,8.2304,8.2304,8.2304,8.2304,8.2304,8.2304,8.2148,8.1797,8.0742,7.9531,7.8437,7.7969,7.7383,7.6719,7.582,7.5586,7.539,7.4492,7.4258,7.418,7.3711,7.3125,7.2578,7.2344,7.1836,7.1172,7.0547,7.0234,6.9805,6.8945,6.8789,6.8476,6.7383,6.7226,6.6758,6.5469,6.5273,6.4648,6.289,6.2656,6.2422,6.1758,6.1719,6.1719,6.1719,6.1719,6.1719,6.1719,6.1719,6.1719,6.1719,6.1719,6.1015,5.9531,5.9297,5.8437,5.6914,5.6719,5.6601,5.6601,5.6601,5.6601,8.2113,8.5165,8.7752,8.8604,8.979,9.0396,8.886,8.8821,8.8094,8.4632,8.1723,7.9185,7.7225,7.9291,8.1762,8.305,8.7962,9.2865,9.6306,9.6823,9.7399,9.8985,9.9965,10.0316,9.9812,10.0202,10.0697,10.118,10.0615,10.0203,9.9921,10.0704,10.0509,9.9221,9.8792,9.8279,9.7549,9.7184,9.7031,9.6992,9.5664,9.4375,9.3125,9.1758,9.0469,8.914,8.6992,8.582,8.5351,8.3594,8.2656,8.2304,8.2304,8.2304,8.2304,8.2304,8.2304,8.2226,8.1758,8.0703,7.9531,7.914,7.8476,7.7734,7.7617,7.7031,7.6367,7.5898,7.5469,7.5078,7.4687,7.4258,7.3867,7.3867,7.3515,7.3008,7.2539,7.2109,7.1484,7.0195,7.0,6.9765,6.8867,6.8711,6.8398,6.7461,6.7305,6.668,6.4922,6.4023,6.3398,6.289,6.25,6.2265,6.2265,6.1914,6.1719,6.1719,6.1719,6.1719,6.1719,6.1719,6.125,6.0312,5.9922,5.9258,5.8281,5.7539,5.7187,5.7148,5.6797,5.6601,8.6296,8.8589,9.0063,9.076,9.1417,9.1015,8.7721,8.7254,8.5897,8.0299,7.8252,7.6795,7.4493,7.6813,7.9552,8.0926,8.5296,9.0186,9.4938,9.573,9.7003,10.0312,10.1406,10.1914,10.1797,10.1797,10.2109,10.2812,10.2006,10.1216,10.0703,10.1406,10.1406,10.0508,9.9492,9.8633,9.789,9.7773,9.7695,9.7695,9.6875,9.5703,9.4219,9.3086,9.1797,9.0234,8.832,8.707,8.625,8.4492,8.3242,8.2461,8.2461,8.2383,8.2304,8.2304,8.2304,8.2304,8.2304,8.1797,8.1015,8.0156,7.9336,7.8789,7.9492,7.8594,7.7383,7.7383,7.6758,7.5898,7.5156,7.4844,7.4765,7.4765,7.4687,7.4609,7.4609,7.4023,7.3047,7.1523,7.1133,7.0781,7.0039,6.9726,6.9609,6.9648,6.957,6.8945,6.7422,6.5703,6.457,6.4336,6.3633,6.3164,6.3164,6.2383,6.1875,6.1875,6.1758,6.1719,6.1719,6.1719,6.164,6.1523,6.0781,6.0351,6.0234,5.8789,5.8086,5.8047,5.7305,5.6953,8.9648,9.1239,9.2563,9.271,9.2312,9.1175,8.843,8.6277,8.3789,8.0113,7.7526,7.5612,7.4671,7.6749,8.0069,8.4484,8.8312,9.2767,9.8552,9.9998,10.0897,10.2304,10.3203,10.3515,10.2695,10.2695,10.2695,10.289,10.2694,10.2616,10.25,10.2617,10.2304,10.1406,9.9844,9.8945,9.8789,9.8047,9.7695,9.7695,9.6875,9.6328,9.5976,9.3633,9.2422,9.1992,8.8867,8.7422,8.7148,8.539,8.414,8.3359,8.3359,8.2929,8.2304,8.2304,8.2304,8.2304,8.2304,8.2187,8.1914,8.1054,8.0195,7.9531,7.9648,7.9023,7.8281,7.8281,7.7656,7.6953,7.6797,7.6211,7.5664,7.5664,7.5117,7.4609,7.4609,7.4492,7.4297,7.3984,7.3359,7.2812,7.2656,7.1445,7.0469,7.0508,6.9883,6.9336,6.9062,6.7539,6.5898,6.4453,6.414,6.4062,6.4062,6.3281,6.2773,6.2773,6.2109,6.1719,6.1719,6.1719,6.1367,6.0625,6.0469,6.0078,5.9414,5.9101,5.8984,5.8984,5.8828,5.875,9.1882,9.3285,9.4144,9.3671,9.2576,9.0543,8.6595,8.4408,8.2,7.7782,7.6266,7.5338,7.414,7.6758,7.9922,8.2422,8.6484,9.1289,9.6875,9.875,10.0586,10.3281,10.3906,10.3984,10.3594,10.3203,10.289,10.289,10.289,10.289,10.289,10.289,10.25,10.1601,10.0312,9.9453,9.8984,9.8125,9.7695,9.7695,9.7304,9.6914,9.6445,9.5195,9.414,9.3164,9.1054,8.9375,8.8047,8.6758,8.5469,8.4219,8.3789,8.3359,8.2929,8.2461,8.2304,8.2304,8.2304,8.2304,8.2226,8.1797,8.1094,8.0469,8.0937,8.0156,7.9219,7.9687,7.918,7.8515,7.8515,7.8203,7.789,7.789,7.7578,7.7265,7.7265,7.6914,7.6484,7.6055,7.5234,7.4492,7.4062,7.3281,7.2734,7.2734,7.2383,7.1953,7.1523,7.0742,6.9375,6.7187,6.6172,6.5664,6.5664,6.4453,6.3672,6.3672,6.3281,6.2851,6.2383,6.2383,6.1953,6.1094,6.1094,6.0898,6.0508,6.0039,5.9805,5.9805,5.9289,5.9045,9.3554,9.4922,9.5547,9.4687,9.2851,9.0039,8.5234,8.289,8.0429,7.582,7.5273,7.5273,7.4062,7.6601,7.918,8.0117,8.3867,8.8672,9.4375,9.6797,9.9531,10.3711,10.4414,10.4414,10.4219,10.3398,10.289,10.289,10.289,10.289,10.289,10.2695,10.2383,10.1914,10.0703,9.9765,9.9297,9.8242,9.7695,9.7695,9.7695,9.7383,9.6758,9.6562,9.5664,9.4101,9.3047,9.1328,8.9179,8.8359,8.7031,8.539,8.4687,8.4101,8.3515,8.2812,8.2461,8.2304,8.2304,8.2304,8.2304,8.2304,8.1836,8.1406,8.2109,8.1211,8.0117,8.082,8.0351,7.9687,7.9687,7.9687,7.9687,7.9687,7.9687,7.9687,7.9687,7.9219,7.8555,7.7851,7.7031,7.6289,7.5781,7.5234,7.4922,7.5117,7.4844,7.4336,7.3672,7.3594,7.2773,7.0742,6.8828,6.7656,6.7461,6.5859,6.4844,6.4844,6.4492,6.3984,6.332,6.3086,6.2773,6.2265,6.2069,6.195,6.1911,6.1203,6.0769,6.0574,5.9787,5.9402,9.4804,9.625,9.7265,9.6445,9.375,9.0351,8.6797,8.2851,7.914,7.6367,7.5195,7.4922,7.5547,7.5976,7.7539,8.1445,8.3125,8.6601,9.414,9.7304,10.0195,10.3789,10.4883,10.5117,10.4297,10.3398,10.289,10.289,10.289,10.289,10.289,10.2109,10.1992,10.2812,10.039,9.9453,10.0195,9.8515,9.7695,9.7695,9.7695,9.7656,9.7578,9.6836,9.5976,9.5,9.332,9.1992,9.0976,9.0117,8.8789,8.7265,8.7187,8.5703,8.3594,8.3515,8.2969,8.2304,8.2304,8.2304,8.2304,8.2304,8.2265,8.2187,8.2265,8.164,8.0898,8.0976,8.0351,7.9687,7.9687,7.9687,7.9687,7.9687,7.9687,7.9687,7.9687,7.9648,7.957,7.9492,7.8828,7.8476,7.9101,7.7305,7.6055,7.6836,7.5625,7.457,7.4492,7.4492,7.4375,7.414,7.1875,7.0039,6.9258,6.7617,6.664,6.664,6.5195,6.4258,6.418,6.3437,6.332,6.4062,6.3179,6.2682,6.2686,6.2435,6.1946,6.1209,6.1117,6.1073,9.5195,9.6836,9.75,9.6719,9.3476,8.9765,8.6875,8.2812,7.914,7.7109,7.6406,7.6094,7.5937,7.6328,7.7226,7.8945,8.0351,8.3242,8.8984,9.1523,9.5039,10.1094,10.2187,10.3203,10.5508,10.4492,10.3515,10.289,10.2383,10.2109,10.2109,10.1797,10.1797,10.2109,10.0117,9.9179,9.9492,9.832,9.7695,9.7695,9.7695,9.7695,9.7695,9.7383,9.6484,9.5156,9.4453,9.2773,9.0547,9.0703,8.9492,8.75,8.75,8.6523,8.5117,8.457,8.414,8.3789,8.3242,8.3086,8.3008,8.2461,8.2304,8.2304,8.2304,8.207,8.1797,8.1797,8.1523,8.125,8.125,8.125,8.125,8.125,8.125,8.125,8.125,8.0859,8.0469,8.0469,7.9805,7.9336,7.9648,7.8867,7.832,7.8633,7.8125,7.75,7.6992,7.6953,7.6562,7.5508,7.3515,7.1914,7.1055,6.9883,6.8945,6.8437,6.7305,6.6365,6.572,6.4859,6.4256,6.4008,6.3609,6.3387,6.339,6.333,6.2834,6.2017,6.1949,6.1625,9.3906,9.5937,9.6836,9.625,9.2851,8.9023,8.6719,8.2812,7.9297,7.789,7.7578,7.7383,7.6797,7.7187,7.75,7.7226,7.8594,8.1133,8.5234,8.7461,9.1094,9.7617,9.8398,10.0,10.3984,10.4101,10.3594,10.289,10.2304,10.1914,10.1601,10.1406,10.1211,10.1211,9.9531,9.875,9.8984,9.8125,9.7695,9.7695,9.7695,9.7695,9.7695,9.7695,9.6797,9.5195,9.5195,9.3515,9.082,9.1445,9.0312,8.8242,8.8242,8.7578,8.6484,8.5625,8.5273,8.5117,8.3984,8.3594,8.3476,8.2578,8.2304,8.2304,8.2304,8.2304,8.2304,8.2304,8.2304,8.2304,8.2304,8.2304,8.2304,8.2304,8.2304,8.2304,8.2304,8.1836,8.1367,8.1367,8.0898,8.0469,8.0469,8.0273,8.0078,8.0078,7.9883,7.9492,7.8945,7.8867,7.8398,7.7148,7.5937,7.4531,7.289,7.1719,7.082,7.0195,6.918,6.8236,6.74,6.6536,6.5821,6.532,6.4758,6.4496,6.4461,6.4167,6.3596,6.2742,6.266,6.2157,9.0664,9.3242,9.5234,9.5234,9.1953,8.8281,8.6562,8.2812,7.9453,7.8633,7.8476,7.8476,7.8476,7.8476,7.8203,7.7344,7.8594,8.0937,8.4414,8.7109,9.0,9.3554,9.3984,9.5312,9.875,10.1406,10.289,10.289,10.289,10.25,10.1601,10.0781,10.0312,10.0312,9.8633,9.8125,9.8984,9.8125,9.7695,9.7695,9.7695,9.7695,9.7695,9.7695,9.6797,9.5195,9.5195,9.4219,9.2578,9.2578,9.1562,8.9961,8.9961,8.8945,8.7383,8.6523,8.6172,8.5937,8.4219,8.3594,8.3476,8.2578,8.2304,8.2304,8.2304,8.2304,8.2304,8.2304,8.2304,8.2304,8.2304,8.2304,8.2304,8.2304,8.2304,8.2304,8.2304,8.2304,8.2304,8.2304,8.2265,8.2265,8.2265,8.1562,8.0976,8.0976,8.0234,7.9687,7.9687,7.9687,7.9687,7.9648,7.9648,7.8242,7.4844,7.2969,7.1992,7.1953,7.039,6.9407,6.9192,6.8328,6.8197,6.8818,6.7023,6.6095,6.6075,6.5064,6.4134,6.3288,6.3281,6.2864,8.7109,8.9258,9.0625,9.0078,8.8008,8.5664,8.3945,8.1562,7.9453,7.8672,7.8047,7.7773,7.8398,7.8008,7.789,7.8789,7.9336,8.0508,8.2812,8.5351,8.8711,9.3359,9.8594,10.1992,10.25,10.3281,10.3281,10.2109,10.1484,10.0703,9.9883,9.8984,9.8789,9.9375,9.8281,9.7812,9.8125,9.7851,9.7695,9.7695,9.7695,9.7695,9.7695,9.7148,9.6289,9.5156,9.457,9.2969,9.0859,9.1484,9.0351,8.8398,8.9531,8.8984,8.7539,8.7812,8.7578,8.6914,8.5781,8.5,8.4336,8.3476,8.2773,8.2304,8.2304,8.2304,8.2304,8.2304,8.2304,8.2304,8.2304,8.2304,8.2304,8.2304,8.2304,8.2304,8.2304,8.2304,8.2304,8.2304,8.2304,8.2304,8.2304,8.207,8.1875,8.1875,8.164,8.1209,8.0476,8.0392,8.0098,7.9354,7.9305,7.8445,7.6368,7.5669,7.4514,7.2603,7.1463,7.0506,6.971,6.8835,6.8454,6.858,6.7975,6.7657,6.7663,6.6756,6.559,6.4166,6.3583,6.316,8.3437,8.5703,8.7148,8.664,8.5195,8.3554,8.2148,8.0469,7.9101,7.8594,7.832,7.832,7.8867,7.8515,7.8398,7.914,7.9492,8.0312,8.2031,8.4844,8.8359,9.2851,9.8828,10.2304,10.1797,10.289,10.3086,10.1719,10.1094,10.0312,9.9062,9.8476,9.8281,9.8515,9.7969,9.7695,9.7695,9.7695,9.7695,9.7695,9.7695,9.7695,9.7656,9.6875,9.6015,9.5156,9.4297,9.2617,0.0,9.1445,9.0273,8.8086,8.9453,8.914,8.7969,8.8164,8.7929,8.7344,8.6133,8.5156,8.4258,8.3398,8.2734,8.2304,8.2304,8.2304,8.2304,8.2304,8.2304,8.2304,8.2304,8.2304,8.2304,8.2304,8.2304,8.2304,8.2304,8.2304,8.2304,8.2304,8.2223,8.2176,8.2176,8.2121,8.2065,8.2065,8.2065,8.1812,8.115,8.1062,8.083,8.017,8.0077,7.9555,7.8202,7.7287,7.5914,7.3816,7.2907,7.2119,7.1343,7.0819,7.0297,6.9828,6.9507,6.9199,6.8891,6.8013,6.7051,6.6006,6.5128,6.4589,0.0,8.2422,8.4414,8.4375,8.3164,8.1797,8.0937,7.957,0.0,7.8515,7.9062,7.957,7.9687,7.9609,7.9336,7.8672,7.9219,8.0312,8.2031,8.5546,8.9218,9.2616,9.6015,9.8047,9.7969,10.1015,10.25,10.1601,10.1484,10.0703,9.8984,9.8866,9.8475,9.7693,9.7654,9.7655,9.7695,9.7695,9.7695,9.7695,9.7695,9.7656,9.7578,9.6717,9.5896,9.4998,9.4139,9.2772,9.1209,9.2029,9.0858,8.8631,8.9529,8.9295,8.8397,8.7694,8.7381,8.7029,8.5428,8.4295,8.3397,8.2537,8.2264,8.2264,8.2264,8.2265,8.2304,8.2304,8.2304,8.2304,8.2304,8.2304,8.2265,8.2265,8.2264,8.2264,8.2264,8.2264,8.2264,8.2264,8.2115,8.198,8.198,8.1834,8.1684,8.1684,8.1684,8.168,8.1664,8.166,8.1656,8.1679,8.1679,8.1241,8.0162,7.8049,7.6346,7.5401,7.4538,7.3942,7.3706,7.3695,7.3261,7.229,7.1437,7.0552,6.9706,6.8891,6.8468,6.8391,6.7552,6.675,7.4883,0.0,7.9844,7.918,7.9219,7.914,0.0,7.8281,7.8515,7.8515,7.8125,7.8164,7.9453,7.8633,7.8164,7.9258,7.957,8.0231,8.1832,8.7881,9.3428,9.6862,9.9874,10.1406,10.0703,10.1992,10.2304,10.0703,10.041,9.9558,9.7877,9.7589,9.7362,9.7164,9.7164,9.7322,9.7695,9.7695,9.7695,9.7695,9.7553,9.7135,9.6432,9.5435,9.4481,9.3627,9.2766,9.1363,8.9801,8.9999,8.8943,8.7345,8.8206,8.7624,8.6299,8.6809,8.6149,8.4983,8.459,8.3885,8.2986,8.2125,8.1852,8.1852,8.1852,8.2059,8.2304,8.2304,8.2304,8.2304,8.2304,8.2176,8.2062,8.2062,8.1967,8.1852,8.1852,8.1852,8.1852,8.1852,8.178,8.1753,8.1753,8.1714,8.1684,8.1684,8.1684,8.1623,8.1506,8.1475,8.1424,8.1244,8.1256,8.0874,7.9972,7.8891,7.7578,7.5935,7.5028,7.4256,7.3561,7.3554,7.3443,7.3206,7.2322,7.1168,6.9706,6.9475,6.9045,6.8391,6.8199,6.7628,7.3906,7.5586,7.7305,7.7226,7.7539,7.789,7.7812,7.7539,7.7422,7.7812,7.7539,7.7617,7.8906,7.8627,7.8544,7.9531,8.0211,8.1859,8.5453,9.0603,9.529,9.8715,10.0818,10.1913,10.1794,10.1913,10.1406,10.0116,9.9467,9.8595,9.7305,9.7082,9.7012,9.7012,9.7012,9.713,9.7381,9.7383,9.7383,9.7381,9.6842,9.6372,9.5866,9.4508,9.3635,9.3134,9.2269,9.0907,8.9346,8.9739,8.8455,8.6276,8.7175,8.6673,8.5579,8.6051,8.5389,8.426,8.426,8.3443,8.231,8.184,8.1684,8.1684,8.1684,8.1858,8.2005,8.2005,8.2005,8.2005,8.2005,8.1923,8.1867,8.1867,8.1799,8.1684,8.1684,8.1684,8.1684,8.1684,8.164,8.1563,8.1563,8.1496,8.1408,8.1408,8.1408,8.1383,8.1278,8.1251,8.1214,8.1116,8.1093,8.09,8.0439,7.9706,7.8661,7.7222,7.6707,7.6092,7.5284,7.5245,7.4861,7.4084,7.3206,7.236,7.143,7.143,7.1007,7.0129,6.9744,6.909,7.4603,7.5344,7.6206,7.6992,7.7305,7.7539,7.8124,7.7108,7.6247,7.6947,7.7219,7.7571,7.843,7.9014,7.9494,7.9948,8.1368,8.4449,9.0299,9.3269,9.6002,9.9147,10.0383,10.1185,10.1687,10.1185,10.0407,9.9468,9.8695,9.7854,9.6993,9.6914,9.6887,9.6887,9.6887,9.6887,9.6887,9.6974,9.7012,9.6973,9.6084,9.5598,9.5404,9.3814,9.3016,9.2861,9.2117,9.0791,8.9275,9.0018,8.8391,8.5471,8.6369,8.5981,8.5048,8.516,8.4577,8.3717,8.3717,8.2784,8.1618,8.1618,8.1618,8.1618,8.1618,8.1618,8.1618,8.1618,8.1631,8.1684,8.1684,8.1699,8.1636,8.1636,8.1645,8.1618,8.1618,8.1618,8.1618,8.1618,8.1475,8.1335,8.1335,8.12,8.1093,8.1093,8.1093,8.1093,8.1093,8.1093,8.1093,8.1093,8.1093,8.1093,8.1093,8.0439,7.9669,7.8946,7.8638,7.8138,7.733,7.7176,7.6322,7.4738,7.4046,7.3623,7.3507,7.3507,7.3129,7.2367,7.1629,7.0783,7.4658,7.583,7.6601,7.7064,7.7734,7.8084,7.7307,7.6939,7.6722,7.6693,7.7245,7.7985,7.8845,7.9091,7.9658,8.1162,8.3815,8.7506,9.2729,9.5106,9.7038,9.9027,10.0801,10.1414,10.0086,10.048,10.0212,9.8617,9.8169,9.7581,9.6715,9.6514,9.6425,9.6425,9.6425,9.6425,9.6425,9.6807,9.7012,9.7007,9.5959,9.5054,9.4311,9.313,9.2192,9.1498,9.1374,9.0341,8.8799,8.8961,8.7411,8.5051,8.5907,8.4827,8.2868,8.3639,8.2899,8.1588,8.1588,8.1396,8.1203,8.1203,8.1203,8.1203,8.1203,8.1203,8.1203,8.1203,8.1425,8.1684,8.1684,8.1577,8.1442,8.1442,8.1311,8.1203,8.1203,8.1203,8.1203,8.1203,8.1152,8.1146,8.1146,8.1139,8.1093,8.1093,8.1093,8.1093,8.1093,8.1093,8.1093,8.1093,8.1093,8.1093,8.1093,8.0977,8.0823,8.0708,7.9331,7.8138,7.733,7.6592,7.5745,7.47,7.4584,7.4161,7.3507,7.3507,7.343,7.3315,7.3161,7.2238,7.3642,7.5256,7.6624,7.6841,7.8228,7.9417,7.8896,7.8057,7.7488,7.7874,7.7851,7.8198,7.9563,8.0853,8.2682,8.5649,8.7842,9.0264,9.3391,9.5329,9.7082,9.8764,10.0187,10.0688,9.9945,9.9766,9.9186,9.794,9.7349,9.6851,9.6456,9.6367,9.6288,9.6288,9.5826,9.5595,9.5595,9.5355,9.5462,9.5927,9.493,9.4033,9.3176,9.1728,9.1133,9.1171,9.0248,8.941,8.8679,8.8179,8.6478,8.4286,8.5132,8.4439,8.3101,8.3978,8.3516,8.2362,8.19,8.1477,8.1093,8.1093,8.1093,8.1093,8.1093,8.1093,8.1093,8.1093,8.1242,8.1371,8.1371,8.1298,8.1249,8.1249,8.1152,8.1093,8.1093,8.1093,8.1093,8.1093,8.1093,8.1093,8.1093,8.1093,8.1093,8.1093,8.1093,8.1093,8.1093,8.1093,8.1093,8.1093,8.1093,8.1093,8.1093,8.1093,8.1093,8.1093,7.99,7.9054,7.8669,7.7823,7.6938,7.613,7.6092,7.5707,7.4853,7.4853,7.4623,7.4161,7.4161,7.3507,7.3104,7.4654,7.6212,7.6393,7.8017,7.9703,8.0474,7.9446,7.872,8.018,8.0083,8.0039,8.0975,8.2929,8.5569,8.906,9.116,9.2937,9.464,9.6211,9.775,9.9211,9.9798,9.999,9.9837,9.9029,9.8134,9.7288,9.6634,9.6288,9.6288,9.6288,9.6288,9.6288,9.5451,9.4989,9.4989,9.4143,9.4027,9.4681,9.3826,9.3095,9.2441,9.0902,9.047,9.0825,8.9748,8.8949,8.8372,8.7902,8.6209,8.3978,8.4863,8.4516,8.3678,8.4132,8.3862,8.3216,8.2516,8.19,8.1362,8.1362,8.1246,8.1093,8.1093,8.1093,8.1093,8.1093,8.1246,8.1323,8.1131,8.1093,8.1093,8.1093,8.1093,8.1093,8.1093,8.1093,8.1093,8.1093,8.1093,8.1093,8.1093,8.1093,8.1093,8.1093,8.1093,8.1093,8.1093,8.1093,8.1093,8.1093,8.1093,8.1093,8.1093,8.1093,8.1093,8.1093,8.0285,7.9815,7.9815,7.8977,7.8215,7.7599,7.7407,7.6984,7.6284,7.6092,7.5745,7.5284,7.5091,7.4661,7.3986,7.4707,7.5015,7.5831,7.6454,7.7669,8.0633,8.0605,8.0787,8.3857,8.502,8.5058,8.3641,8.4773,8.6588,8.8487,9.213,9.5593,9.8105,9.9259,10.0096,10.101,10.0481,9.9798,9.8981,9.8096,9.725,9.6442,9.6326,9.6288,9.6288,9.6288,9.6288,9.6288,9.5451,9.4989,9.4989,9.4143,9.3719,9.3787,9.2979,9.2556,9.2479,9.1518,9.0701,9.0047,9.071,8.9671,8.7555,8.8295,8.7094,8.4901,8.5709,8.5016,8.3524,8.2747,8.2439,8.2362,8.2324,8.2247,8.2208,8.2208,8.1708,8.1093,8.1093,8.1093,8.1093,8.1093,8.1631,8.2054,8.1285,8.1093,8.1093,8.1093,8.1093,8.1093,8.1093,8.1093,8.1093,8.1093,8.1093,8.1093,8.1093,8.1093,8.1093,8.1093,8.1093,8.1093,8.1093,8.1093,8.1093,8.1093,8.1093,8.1093,8.1093,8.1093,8.1093,8.1093,8.0285,7.9815,7.9815,7.8977,7.8484,7.8407,7.7676,7.7292,7.7215,7.6399,7.6361,7.7099,7.6284,7.5861,7.2087,7.3469,7.4776,7.513,7.6115,7.7896,8.1221,8.2536,8.3725,8.6011,8.7517,8.8132,8.6987,8.8594,9.0287,9.0941,9.4134,9.6903,9.7865,9.875,9.9404,9.9712,9.9481,9.8942,9.8096,9.7673,9.7173,9.6365,9.6288,9.6288,9.6288,9.5788,9.5749,9.6288,9.4441,9.3681,9.4181,9.2826,9.1864,9.1325,9.1595,9.1402,9.0855,9.0017,8.9748,8.9855,8.9133,8.8594,8.8132,8.7401,8.6209,8.4931,8.5239,8.4978,8.4439,8.4593,8.4016,8.3101,8.3101,8.2439,8.1554,8.1554,8.1362,8.1093,8.1093,8.1093,8.1093,8.1093,8.1323,8.1477,8.117,8.1477,8.1708,8.1208,8.1093,8.1093,8.1093,8.1093,8.1093,8.1093,8.1093,8.1093,8.1093,8.1093,8.1093,8.1093,8.1093,8.1093,8.1093,8.1093,8.1093,8.1093,8.1093,8.1093,8.1093,8.1093,8.1093,8.1093,8.0785,8.0592,8.0592,8.0285,7.9862,7.9323,7.9015,7.8592,7.8061,7.7715,7.7715,7.8023,7.7215,7.683,7.1321,7.2591,7.4053,7.4584,7.6015,7.8407,8.2554,8.4632,8.6555,8.9594,9.0056,8.9893,8.9902,9.068,9.1556,9.2364,9.5326,9.7519,9.7519,9.825,9.8788,9.8788,9.8557,9.8173,9.7557,9.7288,9.6903,9.6326,9.6288,9.6288,9.6288,9.5711,9.5672,9.6288,9.4057,9.3133,9.3672,9.2056,9.0902,9.0316,9.0364,9.0094,8.9517,8.894,8.8979,8.9479,8.8594,8.8209,8.8218,8.7286,8.6286,8.5239,8.5008,8.4893,8.4893,8.4901,8.4362,8.3563,8.3293,8.2439,8.1477,8.1477,8.1323,8.1093,8.1093,8.1093,8.1131,8.14,8.167,8.19,8.19,8.19,8.1785,8.1246,8.1093,8.1093,8.1093,8.1093,8.1093,8.1093,8.1093,8.1093,8.1093,8.1093,8.1093,8.1093,8.1093,8.1208,8.1439,8.1477,8.1477,8.1477,8.1477,8.1362,8.1131,8.1093,8.1093,8.1093,8.1093,8.1093,8.1093,8.1093,8.0823,8.0208,7.9931,7.9515,7.8907,7.8638,7.8638,7.89,7.8061,7.7676,7.2175,7.2213,7.2598,7.4284,7.6053,7.89,8.4786,8.6786,8.9094,9.5095,9.2932,9.047,9.2172,9.0449,8.9564,9.2095,9.5326,9.748,9.748,9.8211,9.8788,9.8788,9.8019,9.748,9.748,9.6788,9.6288,9.6288,9.6288,9.6288,9.6288,9.6288,9.6288,9.6288,9.4595,9.3672,9.3672,9.2018,9.121,9.1171,8.9479,8.8718,8.8718,8.8679,8.8679,8.8718,8.9517,8.8932,8.7478,8.8333,8.7632,8.6017,8.5201,8.4893,8.4662,8.2939,8.2862,8.3447,8.2593,8.2285,8.2285,8.2285,8.1747,8.1093,8.1131,8.1131,8.1285,8.2093,8.2939,8.3601,8.3601,8.237,8.1131,8.1093,8.1093,8.1093,8.1093,8.1093,8.1131,8.1093,8.1093,8.1093,8.1093,8.1093,8.1093,8.1093,8.1093,8.14,8.2208,8.2324,8.2324,8.2285,8.2324,8.1977,8.117,8.1093,8.1093,8.1093,8.1093,8.1093,8.1093,8.1093,8.1093,8.1093,8.0246,7.9815,7.9815,7.8938,7.8977,7.9777,7.89,7.8523,7.1437,7.2168,7.3514,7.5207,7.8246,8.2054,8.6824,8.8556,9.0663,9.6057,9.5172,9.3441,9.3364,9.3219,9.2988,9.2556,9.4826,9.6673,9.6673,9.6865,9.7057,9.7057,9.6826,9.6673,9.6673,9.6442,9.6288,9.6288,9.6288,9.6288,9.6288,9.5711,9.5412,9.5412,9.3749,9.2864,9.2864,9.1748,9.0594,8.944,8.8949,8.8718,8.8679,8.8064,8.7786,8.7786,8.8055,8.7863,8.7363,8.7017,8.5863,8.4362,8.4747,8.417,8.3093,8.3178,8.2986,8.2639,8.2401,8.1939,8.1554,8.2131,8.2131,8.2054,8.2678,8.2439,8.2131,8.2986,8.2947,8.2832,8.3447,8.3216,8.2708,8.2093,8.1939,8.1785,8.1208,8.2016,8.2516,8.1323,8.1554,8.1747,8.1208,8.1093,8.1093,8.1093,8.1593,8.2016,8.2285,8.2832,8.2986,8.2362,8.287,8.2862,8.2016,8.1939,8.1708,8.1131,8.1093,8.1093,8.1093,8.1093,8.1093,8.1093,8.0862,8.0708,8.0708,8.0439,8.0477,8.0708,7.9823,7.9092,7.236,7.3161,7.4623,7.7361,8.0708,8.4632,8.9556,9.2095,9.4326,9.7365,9.6403,9.5057,9.5172,9.4557,9.4027,9.4018,9.5288,9.6288,9.6288,9.6288,9.6288,9.6288,9.6288,9.6172,9.5826,9.5788,9.5634,9.5288,9.5288,9.5288,9.5288,9.4749,9.4489,9.4489,9.3172,9.2479,9.2479,9.1633,9.0517,8.9171,8.8872,8.8526,8.8132,8.7286,8.6863,8.6863,8.6863,8.6863,8.6786,8.5593,8.4516,8.364,8.3785,8.3439,8.2785,8.2678,8.2485,8.2247,8.1939,8.1516,8.1246,8.2054,8.2285,8.2439,8.3332,8.3216,8.2986,8.3862,8.3747,8.3516,8.4362,8.4362,8.3901,8.3016,8.2554,8.217,8.167,8.2131,8.2331,8.1285,8.1477,8.167,8.117,8.1362,8.1593,8.1593,8.2593,8.3324,8.3324,8.4055,8.4286,8.3439,8.3478,8.3255,8.2362,8.2016,8.1631,8.1131,8.1093,8.1093,8.1093,8.1093,8.1093,8.1093,8.1093,8.1093,8.1093,8.1093,8.1093,8.1093,8.0554,7.9862,7.4168,7.47,7.5853,8.0246,8.3516,8.7171,9.2672,9.6403,9.8673,9.8596,9.6788,9.5702,9.7211,9.4941,9.3595,9.5942,9.6288,9.6288,9.6288,9.6288,9.6288,9.6288,9.6288,9.5942,9.5066,9.4989,9.4643,9.3749,9.371,9.371,9.371,9.371,9.3681,9.3595,9.2864,9.2441,9.2364,9.1518,9.0663,8.9778,8.8979,8.8094,8.7132,8.644,8.6094,8.6094,8.6017,8.5978,8.5863,8.4255,8.3563,8.3409,8.2593,8.2747,8.3178,8.167,8.1554,8.2093,8.1362,8.1131,8.1323,8.2131,8.2477,8.2708,8.3563,8.3793,8.3909,8.4786,8.497,8.5085,8.5893,8.5555,8.4824,8.4024,8.3101,8.2362,8.2208,8.1747,8.1285,8.1131,8.117,8.1208,8.1208,8.1823,8.2362,8.2516,8.3901,8.4893,8.4893,8.5585,8.5786,8.497,8.4247,8.3447,8.2516,8.1747,8.1246,8.1093,8.1093,8.1093,8.1093,8.1093,8.1093,8.1093,8.1093,8.1093,8.1093,8.1093,8.1093,8.1093,8.1093,8.0631,7.3469,7.47,7.6899,8.1831,8.7478,9.2479,9.5134,9.6788,9.7596,9.698,9.6903,9.7057,9.7442,9.6403,9.5672,9.6211,9.6288,9.6288,9.6288,9.6288,9.6288,9.6288,9.6288,9.5942,9.5066,9.4989,9.4643,9.3749,9.371,9.371,9.371,9.371,9.3403,9.2787,9.2595,9.2172,9.1479,9.0624,8.9787,8.894,8.8094,8.6901,8.544,8.5901,8.6094,8.6055,8.5431,8.5162,8.5085,8.4024,8.3216,8.2554,8.2362,8.2016,8.1593,8.1246,8.1208,8.1323,8.117,8.1516,8.217,8.3024,8.3785,8.4478,8.5324,8.5132,8.4786,8.5624,8.5401,8.5085,8.5893,8.5978,8.5786,8.5593,8.4401,8.2947,8.1631,8.2247,8.2678,8.1362,8.1593,8.2054,8.2054,8.217,8.2747,8.4132,8.467,8.4893,8.4893,8.5585,8.5786,8.497,8.5286,8.4939,8.3447,8.3178,8.2485,8.117,8.1093,8.1093,8.1093,8.1093,8.1093,8.1093,8.1093,8.1093,8.1093,8.1093,8.1093,8.1093,8.1093,8.0631,7.3623,7.5592,7.8707,8.5055,9.0171,9.4172,9.5903,9.6634,9.6826,9.6403,9.6942,9.7365,9.7019,9.6596,9.6288,9.6288,9.6288,9.6288,9.6288,9.6288,9.6288,9.6288,9.6288,9.5942,9.5066,9.4989,9.4489,9.321,9.3133,9.2941,9.2518,9.2095,9.1864,9.1864,9.1095,9.0633,9.0586,8.9748,8.8902,8.8064,8.7632,8.6709,8.547,8.5517,8.5747,8.6017,8.4824,8.4286,8.417,8.2901,8.2131,8.1747,8.1747,8.1477,8.1093,8.1093,8.1323,8.167,8.167,8.2208,8.3062,8.3939,8.4516,8.5124,8.6363,8.644,8.6286,8.7094,8.7055,8.6824,8.7248,8.7055,8.6632,8.6209,8.4824,8.337,8.2485,8.2678,8.2716,8.1823,8.2362,8.2901,8.2901,8.3285,8.3978,8.5286,8.547,8.547,8.547,8.5863,8.594,8.5517,8.5517,8.5016,8.3717,8.3601,8.287,8.1208,8.1477,8.1516,8.1131,8.1093,8.1093,8.1093,8.1093,8.1093,8.1093,8.1093,8.1093,8.1093,8.1093,8.0862,7.363,7.6784,8.1062,8.8124,9.1941,9.4326,9.5942,9.6288,9.6288,9.6288,9.6826,9.7096,9.6442,9.6288,9.6288,9.6288,9.6288,9.6288,9.6288,9.6288,9.6288,9.6288,9.6288,9.5942,9.5066,9.4989,9.4373,9.2826,9.2595,9.2172,9.1479,9.047,9.0163,9.0748,8.941,8.8863,8.9239,8.8594,8.7902,8.7171,8.7171,8.6748,8.5863,8.5201,8.5239,8.5786,8.4093,8.337,8.3255,8.1747,8.1093,8.1093,8.1093,8.117,8.1323,8.1323,8.1823,8.2516,8.2516,8.3093,8.3939,8.467,8.497,8.5401,8.694,8.7401,8.7594,8.8449,8.8603,8.8487,8.8487,8.7825,8.6978,8.6286,8.4939,8.3755,8.3447,8.2939,8.2477,8.2324,8.3247,8.3986,8.387,8.4786,8.567,8.6055,8.6247,8.6286,8.6132,8.6094,8.6094,8.6094,8.5517,8.4747,8.3909,8.3832,8.3093,8.14,8.1939,8.1939,8.1131,8.1093,8.1093,8.1093,8.1093,8.1093,8.1093,8.1093,8.1093,8.1093,8.1093,8.1093,7.2052,7.7638,8.4024,8.8739,9.2364,9.5104,9.6057,9.6288,9.6288,9.6288,9.6403,9.6442,9.6326,9.6288,9.6288,9.6288,9.6288,9.6288,9.6288,9.6288,9.6288,9.6288,9.6288,9.5942,9.5066,9.4989,9.4604,9.3595,9.2903,9.2441,9.2326,9.0778,8.9624,8.9064,8.8833,8.8017,8.6624,8.6517,8.6401,8.6286,8.6286,8.5863,8.5047,8.4931,8.497,8.497,8.3247,8.2477,8.2401,8.1477,8.1093,8.1093,8.1093,8.1516,8.2131,8.2131,8.267,8.3447,8.3447,8.4016,8.4747,8.4854,8.5354,8.6132,8.7094,8.7401,8.7594,8.8449,8.8179,8.7555,8.7555,8.694,8.6247,8.6132,8.5401,8.4324,8.2785,8.2986,8.3216,8.2439,8.417,8.5555,8.4863,8.6632,8.7709,8.6324,8.6748,8.694,8.6209,8.6094,8.6094,8.6094,8.6017,8.5624,8.4786,8.4747,8.3978,8.2247,8.2247,8.1939,8.1131,8.1093,8.1093,8.1093,8.1093,8.1093,8.1093,8.1093,8.1093,8.1093,8.1093,8.1093,7.3937,7.8554,8.3324,8.8055,9.1056,9.3364,9.5172,9.5942,9.6288,9.6288,9.6288,9.6288,9.6288,9.6288,9.6288,9.6288,9.5903,9.5557,9.5557,9.5557,9.5403,9.4903,9.5249,9.5403,9.5027,9.4989,9.4835,9.445,9.3633,9.2979,9.2518,9.0402,8.9056,8.8718,8.7325,8.6209,8.5431,8.4939,8.4709,8.4709,8.5209,8.4978,8.417,8.367,8.3708,8.4093,8.2824,8.2285,8.2247,8.1439,8.1093,8.1093,8.1093,8.1593,8.2285,8.2285,8.317,8.4324,8.4324,8.4863,8.5555,8.5555,8.5824,8.6363,8.7709,8.8141,8.841,8.971,8.9825,8.9517,8.9517,8.8902,8.8132,8.7671,8.6901,8.5824,8.4132,8.4055,8.4362,8.4439,8.5324,8.5978,8.5632,8.6517,8.6978,8.6209,8.6824,8.7094,8.6209,8.6517,8.6632,8.617,8.6094,8.5778,8.497,8.5316,8.4632,8.2439,8.2747,8.2439,8.1131,8.1093,8.1093,8.1093,8.1093,8.1093,8.1093,8.1093,8.1093,8.1093,8.1093,8.1093,7.4553,7.7861,8.0977,8.5871,8.8979,9.1441,9.3557,9.5018,9.598,9.598,9.6134,9.6288,9.6288,9.6288,9.6249,9.6019,9.5403,9.4912,9.472,9.4681,9.445,9.3787,9.4258,9.4681,9.4681,9.4681,9.4681,9.4681,9.3873,9.3018,9.221,8.9757,8.8179,8.7748,8.567,8.4362,8.3939,8.3478,8.3255,8.3293,8.4132,8.4093,8.3255,8.2593,8.2554,8.2947,8.2285,8.2016,8.1939,8.1362,8.1093,8.1093,8.1093,8.1593,8.2324,8.2554,8.3593,8.4931,8.5124,8.5585,8.6094,8.6094,8.6094,8.644,8.8179,8.8718,8.9064,9.0748,9.1047,9.0855,9.0855,9.0239,8.944,8.8825,8.8218,8.7286,8.5555,8.5201,8.544,8.6286,8.6786,8.7017,8.6786,8.694,8.7017,8.6786,8.7325,8.7401,8.6555,8.7017,8.7055,8.6209,8.6094,8.5863,8.5239,8.5747,8.5209,8.3093,8.3555,8.3247,8.1785,8.1516,8.14,8.14,8.1208,8.1093,8.1093,8.1093,8.1093,8.1093,8.1093,8.1093,7.1521,7.4322,7.7284,8.1554,8.6324,9.0201,9.1171,9.3287,9.5066,9.5066,9.5711,9.6288,9.6288,9.6288,9.6019,9.522,9.5027,9.472,9.3864,9.3749,9.3749,9.371,9.3749,9.3749,9.3749,9.3749,9.3749,9.3749,9.3018,9.2172,9.1325,8.8863,8.6748,8.5162,8.417,8.2909,8.1323,8.2016,8.2362,8.2362,8.3255,8.3216,8.2362,8.2324,8.19,8.1246,8.117,8.117,8.117,8.1131,8.1093,8.1093,8.1093,8.1593,8.2401,8.3216,8.4093,8.5008,8.5778,8.6055,8.6094,8.6094,8.6094,8.644,8.8179,8.8718,8.9064,9.0748,9.0586,8.997,8.997,8.9363,8.8756,8.8718,8.8679,8.8179,8.6401,8.6055,8.6286,8.7171,8.8632,8.947,8.8718,8.921,8.9432,8.8679,8.8603,8.8333,8.744,8.7363,8.7055,8.6209,8.6094,8.6094,8.6055,8.6094,8.5701,8.4816,8.4816,8.4439,8.3524,8.267,8.2247,8.2247,8.1477,8.1093,8.1093,8.1093,8.1093,8.1093,8.1093,8.1093,7.009,7.2476,7.5284,7.8938,8.2439,8.5517,8.7478,9.0325,9.2556,9.2556,9.3672,9.4788,9.5365,9.5903,9.6019,9.5143,9.4527,9.3873,9.3056,9.2941,9.271,9.2172,9.2595,9.2941,9.2941,9.2402,9.2556,9.3633,9.1941,9.0941,9.121,8.8248,8.6055,8.4931,8.3516,8.2208,8.1093,8.19,8.2054,8.1554,8.2362,8.2324,8.1516,8.1516,8.1362,8.1093,8.1093,8.1093,8.1093,8.1093,8.1093,8.1093,8.1093,8.1593,8.2401,8.3293,8.4132,8.5008,8.5824,8.6094,8.6094,8.6094,8.6478,8.7171,8.8333,8.9056,8.971,9.0864,9.097,9.074,9.074,9.0517,9.0171,8.9594,8.9094,8.8526,8.7902,8.7786,8.7863,8.8179,8.8709,8.9017,8.8756,8.894,8.9017,8.8756,8.9133,8.9171,8.8333,8.8671,8.8709,8.7863,8.7286,8.694,8.694,8.644,8.5747,8.4931,8.4893,8.4516,8.364,8.3293,8.3139,8.3139,8.287,8.217,8.1093,8.1093,8.1093,8.1093,8.1093,8.1093,6.859,7.0475,7.3046,7.6399,7.8938,8.1439,8.4555,8.7248,8.9393,9.0509,9.1864,9.321,9.4335,9.5018,9.5249,9.4643,9.4066,9.3326,9.221,9.2056,9.1864,9.1287,9.171,9.1941,9.1672,9.1086,9.1095,9.1941,9.0441,8.9633,8.9902,8.7248,8.5055,8.367,8.2516,8.1631,8.1093,8.1631,8.1631,8.1093,8.1631,8.1631,8.1093,8.1093,8.1093,8.1093,8.1093,8.1093,8.1093,8.1093,8.1093,8.1131,8.14,8.1823,8.2439,8.3593,8.4401,8.5008,8.5824,8.6286,8.6555,8.6555,8.7132,8.7979,8.8863,8.9479,9.0086,9.0941,9.121,9.121,9.121,9.121,9.1056,9.047,8.994,8.9556,8.9556,8.9325,8.9094,8.9094,8.9325,8.9556,8.9556,8.9286,8.921,8.9479,8.9748,8.9701,8.9171,8.9547,8.9594,8.8795,8.8179,8.7709,8.7401,8.6863,8.617,8.5354,8.5277,8.5055,8.4439,8.417,8.4055,8.4055,8.3755,8.3062,8.1939,8.1631,8.1362,8.1093,8.1093,8.1093,0.0,0.0,0.0,7.3699,7.5822,7.8215,8.237,8.4016,8.5624,8.8932,9.0355,9.1556,9.3249,9.3595,9.3633,9.3672,9.3672,9.3095,9.1441,9.121,9.121,9.121,9.121,9.0855,8.997,8.9893,8.9556,8.8756,8.8641,8.8256,8.7401,8.5747,8.367,8.117,8.1093,8.1093,8.1093,8.1093,8.1093,8.1093,8.1093,8.1093,8.1093,8.1093,8.1093,8.1093,8.1093,8.1093,8.1093,8.1093,8.1093,8.117,8.1939,8.2285,8.2516,8.4247,8.4901,8.5008,8.5824,8.6671,8.7363,8.7401,8.7979,8.8833,8.9663,8.9893,9.0086,9.0932,9.1171,9.121,9.121,9.121,9.121,9.121,9.121,9.1248,9.1248,9.0547,8.997,8.9932,9.0624,9.121,9.121,9.0509,9.0239,9.1056,9.047,8.9932,8.9932,8.9932,8.9633,8.8872,8.8756,8.841,8.7555,8.744,8.7055,8.6209,8.6094,8.6094,8.6094,8.5354,8.4931,8.4931,8.4093,8.3678,8.364,8.2747,8.19,8.1131,8.1093,8.1093,6.6513,0.0,0.0,0.0,0.0,0.0,7.5745,7.79,8.0169,8.2978,8.5209,8.7508,9.0432,9.1479,9.2095,9.271,9.2826,9.2441,9.1364,9.121,9.121,9.121,9.121,9.0855,8.997,8.9363,8.894,8.8718,8.7517,8.6709,8.6478,8.4286,8.2439,8.1131,8.1093,8.1093,8.1093,8.1093,8.1093,8.1093,8.1093,8.1093,8.1093,8.1093,8.1093,8.1093,8.1093,8.1093,8.1093,8.1093,8.1093,8.1131,8.1362,8.1785,8.2439,8.3555,8.4362,8.5008,8.5824,8.6247,8.6555,8.7209,8.7555,8.8017,8.947,8.9893,8.9932,9.0201,9.0701,9.121,9.121,9.121,9.121,9.121,9.1672,9.2133,9.2133,9.1941,9.1595,9.0979,9.1056,9.121,9.121,9.1018,9.0932,9.1171,9.097,9.0825,9.0825,9.0825,9.0748,9.0517,8.994,8.9479,8.9239,8.8094,8.7286,8.7055,8.644,8.6094,8.6094,8.5901,8.5786,8.5786,8.5517,8.5132,8.4555,8.3016,8.217,8.1939,8.1362,8.1093,0.0,0.0,0.0,0.0,0.0,0.0,7.3815,7.5168,7.6746,8.0362,8.2554,8.4747,8.7739,8.9017,8.9902,9.0748,9.121,9.1364,9.121,9.121,9.121,9.121,9.0902,9.0325,8.9479,8.8632,8.7863,8.7171,8.617,8.5286,8.4555,8.3093,8.1939,8.1131,8.1093,8.1093,8.1093,8.1093,8.1093,8.1093,8.1093,8.1093,8.1093,8.1093,8.1093,8.1093,8.1093,8.1093,8.1093,8.1093,8.1093,8.1131,8.1477,8.2093,8.2947,8.3824,8.467,8.5478,8.594,8.6324,8.6748,8.7209,8.7632,8.8132,8.9094,8.9402,8.9479,8.9816,9.0509,9.121,9.121,9.121,9.1287,9.1672,9.1864,9.2056,9.2402,9.221,9.1902,9.1787,9.1441,9.121,9.121,9.121,9.121,9.121,9.121,9.121,9.121,9.121,9.121,9.121,9.074,9.0316,8.9932,8.8709,8.7786,8.7401,8.6594,8.6094,8.6094,8.6094,8.6094,8.6094,8.6094,8.5709,8.4893,8.3862,8.3016,8.2285,8.1477,8.1285,0.0,0.0,0.0,0.0,0.0,0.0,7.4096,7.4134,7.4572,7.9162,8.0823,8.2247,8.4901,8.6209,8.7094,8.7872,8.8979,9.0086,9.1056,9.121,9.121,9.121,9.0509,8.9701,8.8795,8.7902,8.6709,8.5008,8.47,8.3939,8.2362,8.2208,8.1823,8.1131,8.1093,8.1093,8.1093,8.1093,8.1093,8.1093,8.1093,8.1093,8.1093,8.1093,8.1093,8.1093,8.1093,8.1093,8.1093,8.1093,8.1093,8.117,8.19,8.267,8.3563,8.4439,8.5277,8.5978,8.6055,8.6594,8.7286,8.7363,8.7863,8.8449,8.8641,8.8718,8.8902,8.9778,9.047,9.0979,9.1171,9.121,9.1402,9.2172,9.1825,9.1556,9.2326,9.1902,9.1556,9.2364,9.1787,9.121,9.121,9.121,9.121,9.121,9.121,9.121,9.121,9.121,9.121,9.121,9.1133,9.074,8.997,8.9056,8.8218,8.744,8.6594,8.6094,8.6094,8.6209,8.6247,8.6247,8.6247,8.5901,8.517,8.497,8.4055,8.2439,8.1708,8.1747,0.0,0.0,0.0,0.0,0.0,0.0,6.9501,7.053,7.215,7.3642,7.513,7.7169,8.0431,8.2285,8.3362,8.3516,8.6594,8.944,9.0979,9.121,9.121,9.121,9.1056,9.0364,8.8833,8.7902,8.6709,8.5008,8.3593,8.267,8.2324,8.1708,8.1246,8.1093,8.1093,8.1093,8.1093,8.1093,8.1093,8.1093,8.1093,8.1093,8.1093,8.1093,8.1093,8.1093,8.1093,8.1093,8.1093,8.1093,8.1093,8.1131,8.1285,8.1823,8.267,8.3524,8.4401,8.5247,8.5901,8.6209,8.6478,8.7171,8.7055,8.6863,8.8256,8.8718,8.9026,9.0517,9.0094,8.9479,9.0864,9.121,9.1248,9.1402,9.1864,9.2287,9.2441,9.2364,9.2287,9.2479,9.1787,9.121,9.121,9.121,9.121,9.121,9.121,9.121,9.121,9.121,9.121,9.121,9.0547,9.0086,8.9893,8.8517,8.7594,8.7401,8.6594,8.6094,8.6094,8.6786,8.7132,8.7132,8.7132,8.7055,8.6901,8.5555,8.4362,8.3332,8.3178,8.3216,0.0,0.0,0.0,6.944,0.0,0.0,0.0,6.9673,7.025,7.2178,7.2855,7.3974,7.6908,7.8383,7.9554,8.0862,8.3555,8.6247,8.8363,8.9748,9.0701,9.1171,9.0094,8.8979,8.8132,8.6901,8.544,8.3747,8.2401,8.1708,8.1708,8.1323,8.1093,8.1093,8.1093,8.1093,8.1093,8.1093,8.1093,8.1093,8.1093,8.1093,8.1093,8.1093,8.1093,8.1093,8.1093,8.1093,8.1093,8.1093,8.1093,8.1093,8.1093,8.1593,8.2362,8.2785,8.3785,8.497,8.5354,8.5747,8.617,8.6594,8.6478,8.6247,8.7132,8.7709,8.8325,8.9594,8.9633,8.9594,9.0864,9.121,9.1325,9.1748,9.1864,9.1979,9.2402,9.2172,9.1864,9.1864,9.1518,9.121,9.121,9.121,9.121,9.121,9.121,9.121,9.121,9.121,9.121,9.121,9.0816,9.0355,8.9932,8.8748,8.7863,8.744,8.6978,8.6748,8.6748,8.7594,8.8064,8.8064,8.8064,8.8064,8.8064,8.6786,8.5478,8.4247,8.3793,8.3632,0.0,0.0,0.0,0.0,0.0,6.953,0.0,0.0,0.0,7.134,7.1323,7.1634,7.3964,7.4863,7.5899,7.7784,8.0054,8.217,8.3901,8.647,8.8701,9.0056,8.8402,8.7094,8.694,8.5247,8.3593,8.217,8.1323,8.0939,8.1093,8.1093,8.1093,8.1093,8.1093,8.1093,8.1093,8.1093,8.1093,8.1093,8.1093,8.1093,8.1093,8.1093,8.1093,8.1093,8.1093,8.1093,8.1093,8.1093,8.1093,8.1093,8.1093,8.1516,8.2093,8.2247,8.3208,8.4431,8.4593,8.517,8.5863,8.5863,8.5978,8.6132,8.6286,8.6709,8.7401,8.8594,8.9286,8.9893,9.0932,9.121,9.1364,9.2095,9.171,9.1402,9.2095,9.171,9.121,9.121,9.121,9.121,9.121,9.121,9.121,9.121,9.121,9.121,9.121,9.121,9.121,9.121,9.1056,9.0663,8.997,8.9171,8.841,8.7671,8.7632,8.7632,8.7632,8.8479,8.9017,8.9171,8.9026,8.894,8.894,8.7931,8.6731,8.5363,8.4478,8.4087,0.0,0.0,0.0,0.0,7.2208,0.0,0.0,0.0,6.9139,6.7779,0.0,6.9709,7.1476,0.0,0.0,7.1975,7.5861,7.8523,7.7323,8.0015,8.3247,8.6324,8.644,8.5978,8.5239,8.2978,8.1439,8.1246,8.0439,8.0285,8.1054,8.1093,8.1093,8.1093,8.1093,8.1093,8.1093,8.1093,8.1093,8.1093,8.1093,8.1093,8.1093,8.1093,8.1093,8.1093,8.1093,8.1093,8.1093,8.1093,8.1093,8.1093,8.1093,8.117,8.1323,8.2054,8.2439,8.2708,8.3486,8.4324,8.5047,8.5047,8.5517,8.6247,8.7017,8.6786,8.6748,8.9086,8.9325,8.921,9.0787,9.121,9.121,9.1325,9.1287,9.1248,9.1325,9.1287,9.121,9.121,9.121,9.121,9.121,9.121,9.121,9.121,9.121,9.121,9.121,9.121,9.121,9.121,9.0509,9.0009,8.9893,8.9171,8.8679,8.8564,8.8564,8.8564,8.8564,8.9325,9.0124,9.0902,9.0163,8.9739,8.9739,8.8298,8.7427,8.7094,8.6209,8.5497,0.0,0.0,0.0,0.0,0.0,0.0,6.8362,0.0,6.7728,0.0,0.0,0.0,0.0,0.0,0.0,0.0,7.3452,7.5402,7.4861,7.6302,7.9015,8.3362,8.2593,8.1747,8.1931,8.0969,8.0362,8.0362,8.0015,7.9977,8.0323,8.0823,8.1093,8.1093,8.1093,8.1093,8.1093,8.1093,8.1093,8.1093,8.1093,8.1093,8.1093,8.1093,8.1093,8.1093,8.1093,8.1093,8.1093,8.1093,8.1093,8.1093,8.1093,8.1093,8.1208,8.2016,8.2285,8.2401,8.3293,8.3824,8.4247,8.4747,8.5431,8.617,8.6517,8.6748,8.7171,8.8748,8.9286,8.9671,9.0902,9.121,9.121,9.121,9.121,9.121,9.121,9.121,9.121,9.121,9.121,9.121,9.121,9.121,9.121,9.121,9.121,9.121,9.121,9.121,9.121,9.121,9.1325,9.1018,8.997,9.0056,8.9748,8.8756,8.8748,8.9265,9.0222,9.0166,9.051,9.1374,9.102,9.0612,9.014,8.895,8.8153,8.7579,8.6296,8.5326,7.2275,0.0,0.0,0.0,0.0,0.0,0.0,0.0,0.0,0.0,0.0,0.0,0.0,0.0,0.0,0.0,0.0,7.2655,7.2648,7.3009,7.498,7.9646,7.9015,7.8677,8.0015,7.9515,7.9208,7.9438,7.9015,7.8861,7.9092,7.9939,8.0516,8.0746,8.0977,8.1093,8.1093,8.1093,8.1093,8.1093,8.1093,8.1093,8.1093,8.1093,8.1093,8.1093,8.1093,8.1093,8.1093,8.1093,8.1093,8.1093,8.1093,8.1093,8.117,8.1747,8.2093,8.2362,8.2755,8.3216,8.3793,8.4863,8.5632,8.6094,8.6094,8.6555,8.7286,8.841,8.9133,8.9825,9.0941,9.121,9.121,9.121,9.121,9.121,9.121,9.1402,9.1479,9.1248,9.1402,9.1479,9.1248,9.121,9.121,9.121,9.121,9.121,9.121,9.121,9.1287,9.1518,9.193,9.1701,9.0425,9.0723,9.0328,8.8883,8.9103,8.9847,9.1064,9.0789,9.0879,9.1507,9.1281,9.0879,9.0302,8.9259,8.8337,8.7523,8.629,8.525,0.0,0.0,0.0,7.3266,0.0,0.0,0.0,0.0,6.8605,0.0,0.0,0.0,0.0,0.0,0.0,0.0,0.0,0.0,0.0,6.9534,7.0924,7.4504,7.6361,7.8323,8.0823,7.8823,7.7715,7.8484,7.7053,7.6476,7.733,7.8138,7.8977,7.9815,8.0669,8.1093,8.1093,8.1093,8.1093,8.1093,8.1093,8.1093,8.1093,8.1093,8.1093,8.1093,8.1093,8.1093,8.1093,8.1093,8.1093,8.1093,8.1093,8.1093,8.1093,8.1131,8.1631,8.217,8.1439,8.2247,8.387,8.5517,8.6094,8.6094,8.6094,8.6132,8.6517,8.8218,8.8718,8.9133,9.0787,9.121,9.121,9.121,9.121,9.121,9.121,9.1864,9.221,9.1364,9.1864,9.2172,9.1364,9.121,9.121,9.121,9.121,9.121,9.121,9.121,9.1518,9.2364,9.1829,9.1424,9.1381,9.0724,8.9966,8.9149,8.9827,9.0267,9.0342,9.1081,9.1469,9.1507,9.0742,9.034,9.0302,8.8843,8.7705,8.6915,8.6669,8.58,0.0,0.0,7.6518,7.3303,0.0,0.0,0.0,0.0,0.0,0.0,0.0,0.0,0.0,0.0,0.0,0.0,0.0,0.0,0.0,6.6989,6.7969,7.0865,7.3321,7.5322,7.6746,7.6092,7.5707,7.5976,7.4976,7.4707,7.5553,7.6938,7.8099,7.89,7.9785,8.0516,8.1093,8.1093,8.1093,8.1093,8.1093,8.1093,8.1093,8.1093,8.1093,8.1093,8.1093,8.1093,8.1093,8.1093,8.1093,8.1093,8.1093,8.1439,8.1939,8.2562,8.2554,8.2324,8.2639,8.3516,8.4555,8.5132,8.567,8.6209,8.6786,8.7363,8.8055,8.9171,8.9902,9.0479,9.1056,9.121,9.121,9.121,9.121,9.121,9.121,9.1441,9.1556,9.1248,9.1441,9.1556,9.1248,9.121,9.121,9.121,9.171,9.2056,9.2056,9.2518,9.2749,9.2518,9.3255,9.3342,9.2229,9.2378,9.2418,9.2161,9.1518,9.141,9.1924,9.1264,9.114,9.1696,9.0898,9.023,8.9711,8.8655,8.7747,8.6972,8.6915,8.6291,7.5469,7.6298,0.0,7.4023,7.3156,0.0,6.8935,0.0,0.0,0.0,0.0,0.0,0.0,0.0,0.0,0.0,0.0,0.0,0.0,6.557,6.6476,6.8397,7.1093,7.3323,7.4735,7.4511,7.4007,7.3399,7.2584,7.2238,7.243,7.4668,7.6476,7.7599,7.9015,8.0208,8.1093,8.1093,8.1093,8.1093,8.1093,8.1093,8.1093,8.1093,8.1093,8.1093,8.1093,8.1093,8.1093,8.1093,8.1093,8.1093,8.1093,8.14,8.1977,8.2832,8.2986,8.2909,8.3747,8.4439,8.4931,8.5239,8.567,8.6209,8.6786,8.7555,8.8517,8.997,9.0547,9.0941,9.1864,9.1633,9.121,9.121,9.121,9.121,9.121,9.1441,9.1556,9.1248,9.1441,9.1556,9.1248,9.1479,9.1556,9.1248,9.1941,9.2479,9.2479,9.321,9.3633,9.3403,9.3886,9.3551,9.1957,9.2035,9.2161,9.2161,9.1578,9.1463,9.2008,9.137,9.1693,9.3088,9.1473,9.0647,9.0721,8.9014,8.7802,8.6978,8.6978,8.6738]}]]